GFSSE_prec_cthk_000.txt.gz
RH
39 39 42 39 37 35 34 32 30 27 28 23 18 18 19 20 22 24 25 23 22 21 17 15 18 22 31 32 32 29 28 24 23 21 18 15 13 14 15 20 19 17 21
41 39 43 41 38 36 34 33 32 31 32 27 26 29 20 19 19 23 22 21 19 18 17 14 18 19 23 29 25 25 25 23 21 19 18 15 16 16 16 18 23 21 22
43 41 43 41 38 37 35 35 33 33 32 29 27 32 31 26 25 24 20 21 20 20 17 14 15 16 16 19 21 21 20 19 18 18 18 15 15 16 16 18 23 21 22
43 42 40 42 40 39 38 38 36 34 31 28 28 32 38 37 35 32 29 20 20 17 16 15 15 15 14 15 16 16 15 15 14 15 14 14 13 13 14 18 21 21 21
44 41 40 44 42 41 40 40 38 35 31 28 29 33 40 42 40 38 27 24 21 15 14 14 14 15 15 15 16 16 16 15 14 13 12 11 11 12 15 21 25 21 21
47 46 41 42 44 47 46 43 40 37 33 30 27 31 37 40 41 43 41 35 30 23 20 18 16 16 16 17 18 17 17 16 16 17 18 18 18 18 17 19 21 23 22
47 46 42 44 46 49 47 45 43 38 34 33 30 32 37 40 40 46 41 37 35 33 30 30 30 29 28 27 27 26 26 25 25 26 28 28 28 27 25 24 24 28 28
43 41 42 45 47 47 48 47 46 41 38 35 34 34 35 38 39 43 40 36 33 30 29 30 30 31 32 34 36 36 36 36 35 35 34 33 32 32 31 29 28 27 27
46 47 46 47 47 49 50 49 48 44 42 39 36 35 34 33 35 36 36 32 31 29 29 31 31 31 30 31 31 32 33 34 34 35 35 36 37 35 34 34 34 35 35
46 49 49 51 51 47 48 51 50 46 46 43 38 36 33 33 34 34 35 34 33 34 37 39 39 38 38 36 37 37 37 36 35 33 31 32 33 34 34 36 37 37 34
49 52 53 57 54 49 48 50 53 48 47 46 43 36 34 33 34 34 34 34 35 37 38 41 44 44 43 40 38 37 35 32 28 27 28 27 28 29 30 31 35 35 43
47 50 52 54 54 49 48 49 55 54 49 44 43 39 34 35 34 34 36 36 38 41 44 45 44 43 41 38 35 32 30 27 27 27 27 28 29 30 30 30 32 36 38
45 48 51 52 53 53 51 49 51 58 55 49 43 40 38 37 38 38 38 41 43 44 48 45 40 40 39 37 34 32 29 27 27 28 30 30 32 32 32 30 28 30 33
43 44 48 51 56 55 54 52 56 57 60 54 47 43 43 43 44 44 42 46 46 49 48 43 42 42 38 33 29 28 29 28 26 23 22 21 22 23 24 24 26 26 26
36 39 40 45 51 56 56 56 60 63 61 60 53 49 46 47 48 48 47 48 48 47 46 43 43 35 30 29 31 30 27 21 18 15 15 15 16 18 21 23 25 25 27
36 37 41 42 48 52 56 58 60 68 68 67 58 54 51 50 52 52 53 51 49 47 44 38 31 31 32 31 28 22 16 15 15 15 16 19 21 23 24 25 26 28 29
35 38 40 44 46 50 55 60 63 68 72 71 63 58 56 54 55 52 52 51 51 41 34 32 34 33 29 22 18 17 18 17 17 18 20 22 24 25 26 26 27 28 29
34 35 38 38 41 50 54 57 63 68 74 71 65 62 57 56 54 54 54 50 39 35 36 35 32 27 21 18 17 16 14 14 16 19 21 22 22 22 22 23 24 24 24
36 34 37 37 34 39 48 53 58 67 71 69 66 60 56 53 52 53 48 35 32 38 37 32 28 20 15 13 14 15 15 17 20 22 21 19 19 17 16 17 17 17 16
37 37 38 39 38 34 40 47 55 63 68 69 66 61 56 55 52 41 35 32 36 36 32 27 19 14 14 16 18 18 20 21 21 22 19 19 18 18 18 18 18 17 17
37 39 37 38 42 39 38 44 55 59 66 70 64 59 57 56 42 36 36 37 40 36 28 19 14 15 18 20 21 22 21 21 20 18 20 23 21 20 19 19 18 18 17
40 39 38 40 46 46 45 49 56 59 63 63 63 59 57 45 38 40 45 44 39 33 24 17 17 20 21 22 23 22 20 20 21 21 21 21 21 21 21 21 20 18 17
42 39 39 40 44 48 50 52 55 60 60 62 61 58 47 42 43 46 46 43 39 32 25 21 22 22 23 23 24 23 23 23 22 22 22 23 23 23 23 21 18 15 12
42 43 41 43 41 47 51 57 56 55 55 59 57 49 44 45 47 46 45 44 40 33 28 27 26 24 24 26 25 26 25 24 24 23 23 23 24 22 19 16 13 11 10
43 44 45 42 43 47 54 63 60 55 54 55 50 46 46 48 49 50 51 49 43 37 34 31 29 28 27 28 28 27 26 26 27 27 25 23 21 19 15 13 11 11 11
43 47 47 45 49 55 60 57 57 52 53 51 45 46 48 52 54 54 53 49 47 44 38 34 31 30 30 31 30 28 27 28 28 28 27 24 21 17 14 12 12 13 15

GFSSE_prec_cthk_003.txt.gz
RH
38 41 47 44 40 36 35 32 29 28 28 24 20 18 24 26 25 26 27 27 25 23 20 16 17 26 31 32 31 31 28 23 22 23 18 15 13 13 13 20 21 21 18
41 44 49 46 41 36 34 32 31 30 29 26 33 36 31 30 28 24 25 25 20 18 15 14 17 20 23 28 27 26 24 22 21 19 17 15 15 15 16 19 22 22 20
44 46 50 46 41 38 35 34 34 31 29 25 33 36 31 27 24 28 23 19 17 17 16 15 15 16 16 20 22 22 21 20 18 16 16 16 15 15 14 16 20 21 17
45 45 48 48 43 39 36 37 36 34 30 26 26 31 35 40 38 32 26 19 17 15 15 16 16 15 13 15 17 17 16 15 14 13 12 13 13 12 12 17 17 20 18
49 49 53 52 48 42 39 39 39 35 33 29 30 35 40 41 39 31 28 22 20 16 16 15 14 15 15 16 16 15 16 15 13 12 12 10 10 10 12 14 21 23 23
60 60 59 56 55 45 45 44 44 37 35 33 31 34 39 39 46 42 39 33 31 27 24 23 23 22 21 21 20 19 20 19 17 17 18 19 20 20 20 19 19 21 24
54 54 57 56 52 48 48 48 47 41 37 35 34 36 41 39 42 47 44 39 36 32 31 30 30 29 29 30 31 31 31 31 30 30 30 30 31 30 29 27 25 24 27
48 48 49 52 52 52 50 50 49 43 40 38 36 38 40 41 43 46 45 35 31 29 27 27 29 31 31 31 30 29 28 29 28 28 28 28 29 29 31 32 33 32 31
46 46 47 53 54 54 52 52 49 45 43 40 39 38 40 41 43 47 42 36 36 32 33 36 38 38 38 37 36 35 34 33 34 33 31 30 29 29 28 29 30 34 33
45 48 50 51 55 56 57 52 51 47 50 44 41 37 37 38 40 40 39 39 35 34 37 39 42 47 46 43 42 39 37 34 31 29 26 26 25 26 28 31 33 32 37
46 51 52 55 55 57 58 54 52 48 52 49 42 40 36 36 38 37 36 35 35 37 40 42 44 44 42 39 37 35 32 28 24 24 25 25 26 27 28 30 32 33 36
44 49 53 57 56 58 56 54 51 48 54 54 48 40 38 36 37 36 35 36 40 40 41 44 45 42 37 38 34 32 32 28 25 25 26 25 26 27 28 30 30 30 32
44 47 51 54 57 56 56 56 55 49 52 55 54 45 39 38 37 39 42 42 44 43 46 47 44 41 39 35 33 30 27 26 28 30 28 24 22 22 23 24 26 25 27
41 46 46 49 55 58 56 54 55 53 55 58 57 52 47 45 44 45 49 49 47 46 47 47 45 42 37 31 30 29 29 29 27 22 18 16 16 16 22 24 25 24 25
36 43 46 48 52 57 60 57 56 57 58 63 59 60 55 52 50 50 52 51 50 48 46 47 41 33 31 30 30 27 24 21 18 16 16 16 17 18 19 22 24 26 31
37 38 44 47 46 48 53 57 60 61 62 62 66 64 60 59 56 56 55 55 52 49 48 39 31 31 32 29 25 21 19 19 18 17 17 18 20 22 23 25 27 28 29
38 38 38 42 44 45 49 55 60 62 64 62 69 72 67 64 61 57 55 54 52 47 37 33 36 34 30 25 21 19 17 15 15 16 17 19 21 24 25 26 27 28 28
39 37 37 38 43 47 51 54 59 62 64 69 70 73 70 67 62 58 55 53 45 36 33 34 34 32 25 20 17 14 12 15 17 18 21 22 22 21 21 20 19 19 19
41 39 37 36 38 42 49 55 61 61 64 65 66 73 70 68 62 54 55 43 36 34 35 32 29 24 19 16 13 14 17 18 19 22 23 23 20 19 18 18 18 19 19
39 41 39 37 37 39 42 48 54 58 62 62 67 73 71 67 59 53 42 36 37 39 35 30 25 21 17 13 14 18 20 19 21 24 23 21 20 22 22 20 20 19 19
37 41 41 40 38 40 43 47 48 50 54 62 67 73 74 67 57 43 38 40 44 42 38 31 26 20 14 14 16 20 20 21 22 23 23 22 21 23 22 20 21 21 21
39 41 41 42 44 44 44 47 51 52 56 62 69 74 73 63 50 40 43 47 44 41 38 35 29 20 14 16 19 22 23 24 25 24 24 23 23 23 24 24 23 23 22
38 41 40 44 46 47 49 51 58 62 59 63 67 70 64 59 44 45 49 47 46 46 44 40 31 22 16 17 21 24 25 27 26 25 26 25 25 25 24 24 24 23 20
36 41 42 44 46 46 51 54 55 60 59 58 63 64 62 51 47 50 51 53 52 50 48 44 36 25 17 19 23 26 27 27 27 27 26 25 24 25 25 24 23 20 17
37 42 43 46 48 50 54 59 54 64 65 56 59 59 50 46 49 53 55 55 54 53 48 45 40 27 19 20 25 28 29 29 29 28 27 25 26 25 25 23 20 17 15
40 44 45 46 49 53 58 58 57 63 64 58 59 52 46 47 51 54 55 57 57 56 51 47 40 29 22 22 27 28 28 29 29 29 31 31 29 27 23 21 19 17 17

GFSSE_prec_cthk_006.txt.gz
RH
36 39 45 44 39 36 32 29 27 27 27 24 22 22 24 25 24 25 28 28 28 24 20 16 17 30 29 39 35 30 27 25 23 21 20 16 13 13 12 13 20 22 21
39 43 48 48 44 38 34 31 30 29 27 27 35 33 34 32 29 26 26 25 22 18 15 13 16 26 31 31 30 30 29 22 21 18 16 16 14 14 14 15 19 22 18
43 50 49 48 44 40 35 32 32 31 27 28 31 31 32 35 31 28 23 17 16 15 15 16 17 19 23 27 25 26 24 22 18 15 14 21 17 14 13 15 18 18 14
48 53 53 48 45 43 37 34 34 34 30 26 29 30 33 37 36 31 18 15 14 14 15 17 17 16 15 15 17 17 16 15 14 13 18 18 18 13 12 13 16 18 17
50 54 54 54 51 47 44 37 37 35 32 30 30 32 37 34 33 31 27 21 18 16 16 15 15 15 16 16 16 22 22 18 14 16 18 14 12 15 12 15 20 23 24
62 54 59 63 58 51 43 43 40 38 34 32 35 34 37 37 42 39 34 30 28 24 23 23 23 24 24 24 25 24 23 23 23 29 26 27 25 24 23 22 23 26 28
59 61 64 64 60 49 45 44 44 40 38 34 38 37 39 38 39 48 41 36 34 32 31 30 29 33 29 28 29 28 28 29 29 32 31 31 32 30 28 28 28 27 27
54 56 59 57 55 50 48 45 46 40 39 37 39 39 40 41 45 45 43 34 30 29 28 29 32 34 35 34 34 32 31 31 33 34 33 32 30 30 29 29 31 30 30
51 53 57 55 55 58 54 49 48 42 40 39 40 42 41 42 46 49 49 43 35 32 32 35 37 40 41 41 40 38 37 36 35 37 33 35 32 29 29 32 34 35 37
52 56 55 56 56 58 58 55 53 44 44 41 40 40 43 42 44 45 43 41 39 34 36 38 40 44 45 42 39 37 35 32 31 28 27 26 24 24 24 27 29 30 33
51 53 54 59 60 61 58 58 58 46 46 46 44 40 38 41 40 41 39 38 36 36 38 41 41 44 42 39 35 34 33 31 27 27 25 25 26 26 27 28 28 30 31
47 48 48 56 59 63 61 60 62 53 51 49 48 45 41 39 40 38 37 37 38 41 42 42 43 43 42 39 35 31 29 28 27 27 27 28 30 27 25 24 25 26 25
45 50 47 52 60 63 63 59 59 59 58 55 48 47 44 42 41 39 40 42 46 45 44 47 45 43 43 37 30 30 29 29 29 29 29 26 22 19 21 24 23 22 25
44 46 47 50 54 59 65 63 61 62 58 59 55 50 48 48 45 46 49 47 48 49 50 48 45 42 38 30 29 30 28 26 23 21 20 17 17 17 19 21 21 24 25
41 44 45 46 49 54 59 63 61 60 60 62 60 52 56 56 56 53 53 51 51 52 52 48 43 34 31 29 27 27 24 21 20 19 21 17 17 18 19 21 23 23 24
40 41 44 44 47 50 54 59 63 64 63 63 62 53 59 62 59 57 59 56 53 53 53 41 34 32 31 31 28 25 22 20 19 17 16 17 19 20 21 23 24 24 25
42 43 42 42 44 47 51 54 58 59 60 65 64 63 57 65 67 65 64 60 54 53 42 34 32 32 31 27 25 22 20 18 15 14 18 20 21 22 23 23 23 24 24
43 42 42 41 42 45 49 53 53 55 61 65 67 64 63 66 71 69 66 60 56 43 35 33 34 30 26 21 22 19 17 15 15 19 21 21 20 20 20 19 18 18 18
40 42 42 42 40 42 49 52 55 59 61 64 64 62 63 68 70 69 65 60 44 35 36 37 33 28 21 19 18 18 16 15 19 22 23 22 23 21 21 21 20 19 19
35 38 42 43 42 41 48 54 58 61 61 64 62 63 67 68 68 68 65 48 38 39 41 37 33 28 21 18 18 17 16 18 20 23 25 21 22 22 22 22 23 21 19
32 35 37 42 44 43 45 47 53 56 56 53 57 60 65 65 68 67 54 43 42 45 41 40 37 31 25 20 18 20 20 19 21 24 23 23 24 23 23 22 22 21 21
30 34 35 38 43 44 46 51 54 58 59 58 58 59 60 64 67 63 50 46 47 45 48 48 44 38 30 21 18 21 23 23 24 25 27 26 27 26 26 25 23 22 22
31 32 34 36 41 45 49 55 58 58 62 64 65 63 64 66 64 56 49 51 49 53 53 51 47 42 33 25 21 21 22 24 25 28 30 30 30 29 27 24 23 23 24
31 31 33 36 38 43 48 56 57 55 59 66 69 68 67 62 60 50 51 54 55 55 56 55 51 45 36 27 24 23 22 22 25 26 29 30 30 29 26 24 25 25 24
32 32 32 36 39 42 49 56 60 65 65 66 69 70 64 59 54 49 52 55 56 56 57 56 55 50 43 32 26 23 23 26 27 28 28 28 28 27 26 29 29 27 26
33 34 35 38 42 43 46 55 63 64 63 60 65 67 64 57 48 50 53 56 57 58 59 59 58 55 46 35 31 28 27 28 30 31 30 29 30 31 33 30 28 27 25

GFSSE_prec_cthk_009.txt.gz
RH
38 35 39 40 40 35 31 27 25 25 23 22 22 26 24 25 27 27 26 27 27 25 20 15 15 30 34 40 41 34 31 28 27 24 21 18 15 14 13 13 21 22 24
43 40 41 42 40 35 34 29 28 27 23 26 26 27 34 34 29 27 25 24 22 18 14 12 14 26 31 32 31 31 31 26 22 19 15 17 18 14 14 18 20 21 22
46 48 43 44 42 37 36 33 29 28 28 31 29 28 34 37 33 29 24 16 14 13 13 14 17 22 25 25 25 24 24 22 17 14 15 21 22 16 16 16 19 18 17
50 50 50 47 45 43 41 35 31 30 28 32 30 25 29 33 32 28 18 15 13 12 13 15 15 15 16 17 17 18 17 15 14 14 20 19 20 17 13 13 13 17 18
54 55 51 50 52 51 45 39 33 33 31 30 33 32 31 35 33 28 25 21 17 16 15 15 15 16 15 16 16 16 20 18 16 22 23 22 16 20 13 13 15 21 24
58 64 57 56 58 58 50 42 35 34 35 36 35 35 34 30 30 33 30 29 26 21 20 20 22 25 24 25 26 25 25 25 26 32 31 32 31 29 28 28 27 26 26
66 71 63 58 56 59 57 46 40 34 35 39 39 39 41 39 38 43 34 33 33 30 29 30 33 34 33 34 34 33 32 30 29 32 31 31 31 26 25 25 26 27 28
63 64 61 57 52 55 59 48 42 36 35 40 42 41 40 42 44 45 41 31 31 31 29 30 32 34 35 35 34 34 33 33 32 37 35 36 32 30 29 30 31 31 31
57 60 63 57 54 54 57 55 46 40 36 39 42 41 42 45 46 47 47 40 34 30 30 35 38 41 43 42 39 36 34 32 32 35 32 33 27 25 24 24 26 29 33
52 57 62 62 58 55 57 60 51 45 44 38 41 43 43 45 47 47 45 43 41 33 33 37 39 39 40 38 36 35 30 28 29 28 28 26 24 24 24 25 26 27 28
52 58 60 61 62 57 57 56 55 49 52 41 38 43 45 46 47 46 40 39 37 35 38 39 40 41 39 37 36 32 27 29 28 28 28 27 26 25 26 27 26 25 25
53 53 55 58 59 60 58 56 57 53 57 50 44 39 45 50 48 47 41 36 35 38 40 41 43 43 41 40 36 31 28 28 28 28 28 28 27 27 28 28 23 22 22
50 51 50 55 56 56 59 57 60 58 56 56 56 51 46 42 47 46 44 43 44 41 44 46 46 43 42 36 30 30 27 27 28 27 26 23 20 24 25 25 22 23 22
46 48 47 50 56 58 59 59 59 57 59 59 60 56 49 46 45 51 54 52 50 48 47 47 47 45 36 31 29 27 26 24 24 24 23 20 19 19 19 18 20 20 21
46 47 48 47 50 56 60 61 59 61 62 62 64 59 54 51 48 54 54 54 52 52 50 49 45 37 33 30 27 27 26 23 22 23 24 20 18 17 18 20 21 22 23
45 47 49 46 49 49 52 57 59 61 63 63 64 63 57 59 58 53 58 58 55 55 54 47 37 33 32 29 27 26 24 24 22 22 22 19 16 18 21 21 22 23 23
42 48 49 51 48 46 50 53 58 62 65 64 68 64 63 62 60 56 59 63 60 60 54 42 34 34 30 27 25 23 21 20 22 20 19 18 18 20 22 20 19 18 18
38 43 51 51 52 49 45 53 59 64 62 62 66 65 65 63 62 62 63 65 63 59 49 38 37 33 29 24 20 19 19 19 20 20 19 18 19 21 21 19 18 17 18
37 40 42 47 49 50 46 50 57 63 63 66 65 63 62 64 65 65 65 64 62 52 45 41 35 32 28 23 20 17 16 20 23 22 22 22 21 21 20 20 20 20 21
37 38 40 40 44 50 50 51 55 64 65 65 63 67 65 66 66 68 67 62 51 50 48 40 36 37 34 28 21 19 20 21 23 24 26 25 22 20 21 22 22 22 22
35 33 36 36 39 43 50 51 53 57 58 62 63 66 64 65 65 63 62 56 47 51 49 44 42 41 38 32 27 24 23 20 23 26 23 25 24 23 25 25 24 24 23
32 35 34 35 36 39 41 45 53 56 60 62 62 63 65 66 64 60 56 48 45 52 52 50 47 45 42 36 30 27 26 26 26 25 25 26 24 25 25 25 24 23 23
31 32 37 38 38 38 35 39 49 55 58 60 63 67 68 71 69 64 55 47 48 53 55 54 54 52 48 44 37 31 26 26 26 26 26 24 25 25 25 25 24 23 22
32 33 34 36 40 37 33 37 44 45 54 58 62 67 71 73 74 70 61 47 50 54 56 57 58 57 54 49 42 37 33 32 31 28 26 26 27 28 29 28 27 24 21
33 34 33 38 39 41 37 39 46 52 55 57 61 68 73 72 73 71 60 47 50 54 57 59 58 56 56 51 44 40 37 35 32 31 30 30 29 28 27 26 28 29 30
31 35 34 39 39 40 40 45 48 53 51 59 66 69 73 71 68 67 57 52 53 54 56 58 59 58 58 54 47 41 38 35 32 32 31 30 30 32 33 31 31 29 27

GFSSE_prec_cthk_012.txt.gz
RH
39 33 35 34 36 34 32 26 23 22 22 22 25 28 29 30 31 31 28 23 24 23 19 14 17 27 32 41 41 35 30 29 26 23 20 16 15 14 13 12 21 23 26
39 37 38 36 35 34 33 30 28 24 23 22 22 28 30 32 31 29 23 21 18 15 12 11 17 26 29 30 31 31 27 23 20 16 14 17 18 15 14 16 19 22 22
42 40 39 38 36 35 35 32 28 26 30 30 26 31 35 36 34 29 22 12 10 11 12 13 16 23 24 23 23 21 21 18 14 14 18 20 20 20 16 16 18 19 17
47 43 41 38 38 40 40 35 30 26 31 29 28 29 32 33 30 22 18 14 13 12 12 12 13 13 14 15 16 15 15 14 16 19 19 19 20 19 17 13 13 14 18
49 46 43 45 44 43 42 39 34 28 29 32 30 30 30 30 25 23 24 21 16 16 15 15 15 15 15 15 16 17 17 17 21 23 24 23 21 21 20 19 17 18 20
49 51 51 52 51 49 44 42 37 29 28 33 34 32 33 29 27 25 27 28 25 22 19 19 21 21 22 25 26 26 26 27 28 31 32 34 32 33 32 31 31 30 29
56 56 59 57 58 57 47 43 39 34 31 34 35 35 34 38 39 35 27 28 30 29 30 32 34 33 32 32 31 31 30 30 31 35 38 31 30 28 26 26 29 31 28
57 61 64 59 61 59 49 47 43 37 32 35 37 38 38 42 44 44 38 28 25 26 29 32 33 36 36 36 36 33 31 30 32 35 37 33 32 28 26 29 31 31 35
56 57 61 58 56 53 50 48 46 40 36 37 37 39 42 44 45 45 46 41 35 29 29 32 34 36 37 36 33 31 30 29 27 25 27 27 26 24 23 24 23 25 27
54 52 52 52 51 53 51 49 48 45 41 42 39 38 43 47 49 48 46 43 42 35 33 35 36 36 36 34 32 30 28 29 25 26 25 25 25 25 24 24 25 26 26
54 52 52 51 50 52 51 51 50 49 45 43 47 42 40 44 47 48 46 42 38 34 36 38 38 39 38 36 35 31 28 28 26 26 26 25 26 27 27 27 28 27 27
52 55 54 52 52 53 53 51 52 51 48 45 47 47 44 45 44 45 46 43 40 38 38 38 39 40 40 38 34 30 27 27 27 25 26 26 24 23 28 26 26 26 24
52 54 55 55 52 53 52 50 50 53 51 51 50 47 51 53 45 42 43 46 45 45 45 43 41 40 40 35 32 29 27 25 24 24 23 23 21 25 28 27 25 21 21
46 50 53 56 57 53 52 53 51 53 53 53 54 53 53 50 48 44 46 47 54 52 49 49 47 44 36 32 30 29 26 24 23 24 22 21 20 21 21 20 18 19 21
41 42 43 50 53 52 48 53 55 54 55 55 55 57 54 54 50 51 50 50 49 50 51 49 47 39 33 32 31 28 25 23 22 23 23 23 21 21 19 18 19 22 22
38 40 42 43 46 50 53 53 55 58 60 60 61 59 55 55 54 54 52 52 51 52 54 51 44 39 34 32 28 26 23 22 22 21 22 22 21 20 19 18 20 22 21
33 36 41 42 44 47 51 52 52 57 60 62 65 65 58 61 62 58 54 57 58 54 55 49 45 42 38 30 26 24 22 20 20 20 20 20 20 19 19 17 17 17 18
36 36 38 41 42 44 46 52 52 55 60 61 63 65 63 65 64 60 58 61 61 59 52 47 43 43 39 31 26 22 19 19 20 20 19 21 23 22 22 21 20 19 19
36 38 38 40 41 40 47 50 53 57 59 63 64 67 66 65 63 58 60 63 64 60 48 46 41 43 42 35 29 25 22 20 21 22 22 23 23 23 22 22 23 22 20
31 36 38 40 42 41 43 49 52 59 59 60 62 64 62 67 63 62 62 62 62 51 46 44 41 45 44 37 30 28 27 25 25 23 25 25 24 24 24 24 24 23 22
26 33 37 37 38 39 39 42 46 51 54 60 58 58 62 65 63 64 62 63 56 45 40 40 42 45 47 42 35 33 32 31 30 31 29 25 25 25 26 25 24 22 22
28 30 35 37 36 37 40 40 44 47 51 54 55 60 64 63 63 62 66 64 54 47 40 40 44 48 51 48 44 41 39 38 36 33 29 26 25 26 26 25 24 23 22
30 31 34 35 37 36 41 46 45 47 48 49 55 60 65 66 66 68 69 64 59 50 47 46 48 51 53 53 50 46 43 42 38 35 33 32 31 30 28 27 26 25 23
26 31 35 37 37 39 39 40 39 40 42 44 49 55 63 68 69 71 71 65 65 54 51 49 50 52 54 54 52 49 44 42 39 37 35 32 30 29 28 28 26 25 24
26 30 32 38 41 39 39 40 43 43 45 46 52 57 62 67 70 72 70 70 67 51 54 54 54 54 55 54 52 48 45 44 41 39 36 34 33 31 29 28 28 28 27
23 27 32 36 41 42 46 41 40 44 44 48 52 58 64 66 69 74 72 70 68 54 55 55 58 60 60 57 54 49 47 46 41 36 34 33 31 31 30 28 26 25 25

GFSSE_prec_cthk_015.txt.gz
RH
45 42 36 30 28 31 31 27 23 23 24 25 26 27 29 31 31 30 27 23 19 19 16 12 20 27 32 39 37 28 27 22 23 21 18 15 15 13 12 12 19 21 23
45 42 36 31 29 29 30 28 25 23 23 23 24 24 25 28 29 26 21 17 13 11 10 12 24 25 28 29 28 25 19 17 15 13 15 16 17 16 14 15 19 20 21
44 44 38 33 31 30 33 30 27 27 27 25 29 34 35 33 32 25 15 11 10 10 12 13 20 22 22 21 19 17 16 14 14 17 18 17 17 18 15 15 16 17 17
47 47 41 38 34 36 35 34 31 30 28 28 30 32 34 31 23 19 18 15 12 12 12 12 12 13 14 14 14 15 14 15 18 19 19 17 17 19 18 15 14 13 16
44 44 41 40 40 41 39 34 33 32 30 28 30 31 32 29 20 20 20 20 17 15 15 14 14 14 15 15 16 16 18 21 24 24 25 27 25 25 24 24 23 22 23
42 41 41 43 47 48 44 38 32 31 31 29 30 32 33 29 25 22 22 22 23 22 19 19 18 20 22 25 27 27 27 29 30 32 32 31 29 30 30 29 28 28 28
44 43 44 47 53 52 51 43 33 32 33 32 32 33 33 34 35 29 24 21 23 27 29 30 30 32 32 31 30 29 28 30 32 33 31 32 30 29 26 27 30 32 33
46 50 50 51 57 54 51 45 38 31 36 36 34 34 38 41 41 37 30 27 24 23 26 30 33 35 34 33 31 30 30 32 34 33 31 29 27 25 24 27 29 29 31
49 53 53 54 54 57 53 45 38 35 36 40 39 38 39 44 44 42 39 32 30 30 29 30 31 31 33 33 32 30 30 29 28 28 25 25 24 23 22 24 25 26 26
50 53 53 53 49 50 51 50 43 41 39 40 41 44 42 39 45 46 44 41 38 32 32 34 34 35 36 35 34 31 30 29 27 27 28 26 26 25 24 26 27 27 31
47 49 52 50 49 48 49 51 47 44 42 42 43 45 49 48 43 46 47 45 42 37 38 38 36 37 38 38 37 33 30 29 28 26 27 26 26 27 31 33 32 31 31
42 45 49 52 52 50 50 50 49 45 42 43 44 46 50 51 49 49 43 42 42 42 43 44 42 41 39 37 33 31 30 28 27 26 24 25 25 30 30 28 28 28 28
45 44 48 52 54 53 52 51 51 49 44 43 44 47 50 51 48 49 47 41 38 42 47 47 46 46 43 36 32 30 29 28 27 26 24 22 22 26 29 29 27 26 25
38 45 42 45 49 52 53 50 50 48 47 46 45 46 49 51 52 52 50 47 45 46 44 46 49 49 41 36 33 31 29 27 26 25 24 24 22 22 23 23 24 24 23
38 38 43 44 45 45 48 51 48 47 48 47 46 50 49 50 49 52 53 52 50 49 47 49 49 45 38 35 33 29 26 25 24 25 24 23 22 22 22 24 24 22 19
34 37 39 42 42 39 40 45 45 45 49 50 52 55 54 49 49 51 53 53 51 49 50 52 47 42 39 35 34 31 26 24 24 23 22 22 21 20 21 22 22 20 17
32 35 36 39 41 41 39 45 46 52 51 54 54 55 55 51 52 51 54 56 53 53 53 53 47 41 37 34 34 33 27 24 23 22 21 21 21 19 19 21 22 21 20
30 33 34 34 37 39 40 46 47 51 51 55 58 58 56 56 58 60 61 60 57 55 57 53 45 41 39 35 33 34 32 26 23 22 22 22 22 22 23 23 21 21 22
27 30 34 34 33 35 42 42 48 52 53 57 58 57 55 60 61 64 63 61 60 60 58 48 43 38 36 34 31 34 35 28 27 26 25 26 25 23 23 23 23 24 24
26 30 34 36 36 35 37 44 47 54 57 61 61 59 56 61 61 63 64 64 62 60 56 47 42 39 36 32 32 35 38 35 31 31 31 32 31 30 29 26 25 25 25
26 30 34 36 36 39 40 47 44 47 54 58 58 57 57 63 62 65 64 64 63 61 53 48 46 43 38 35 36 40 42 43 40 40 41 38 35 33 30 28 26 25 26
31 30 32 36 38 37 38 36 44 46 51 56 56 54 56 59 61 64 64 65 63 64 55 51 50 48 46 43 42 42 44 45 45 45 44 42 39 35 32 31 30 28 27
26 28 31 33 36 38 40 44 47 52 53 60 60 58 55 54 58 63 66 67 67 64 60 54 52 51 51 49 46 44 43 44 44 44 43 40 37 35 33 32 29 27 26
21 24 28 33 37 38 40 43 40 42 46 48 51 52 57 56 61 64 66 68 67 63 62 59 55 51 51 52 53 51 49 46 45 43 43 39 37 35 32 29 28 28 27
17 21 25 30 36 38 40 42 41 44 46 49 52 55 59 61 63 66 68 66 67 67 65 62 54 54 55 56 56 54 51 48 46 46 45 43 39 33 31 30 29 27 25
20 21 24 28 32 38 41 45 43 40 42 52 55 56 55 61 63 69 70 72 68 70 69 65 57 56 58 60 60 58 55 52 49 47 46 44 39 35 33 29 26 24 24

GFSSE_prec_cthk_018.txt.gz
RH
47 40 39 35 28 26 28 27 24 24 24 27 26 27 32 32 33 30 26 22 19 16 16 17 24 27 38 35 27 25 22 20 20 20 20 18 16 13 12 11 15 20 22
45 43 41 34 28 25 27 27 26 24 23 28 27 26 27 28 27 26 21 14 11 9 9 17 21 28 27 26 24 22 20 15 15 14 13 14 14 13 13 14 17 18 17
47 44 41 36 31 28 31 30 28 26 24 23 27 28 28 27 27 23 15 11 10 10 10 19 20 20 21 21 18 16 15 14 15 15 15 15 15 16 14 14 15 15 16
45 44 42 40 37 34 34 33 30 29 26 32 31 33 31 28 18 16 17 15 12 11 12 15 17 17 15 13 14 14 14 16 17 17 17 17 17 19 18 16 16 15 17
44 43 41 41 38 41 39 35 33 28 28 30 32 32 30 25 18 17 18 19 18 15 13 13 13 13 15 16 16 16 18 22 24 24 22 23 23 24 24 25 27 26 28
43 41 39 40 40 44 43 39 38 33 28 28 31 32 29 24 24 22 20 20 23 24 24 21 19 20 21 22 24 27 28 29 30 30 31 30 30 28 28 27 25 25 26
42 41 39 42 43 44 46 43 39 35 34 32 33 32 33 28 27 26 24 23 21 24 30 29 31 31 32 32 31 29 28 31 32 32 32 32 30 29 25 28 33 36 38
43 41 42 44 45 47 49 47 40 36 35 34 37 39 35 39 35 30 28 27 28 28 28 30 32 32 32 30 28 28 29 31 32 32 32 31 27 25 21 23 28 30 33
44 46 44 46 48 49 50 48 44 40 34 36 38 39 42 40 41 41 36 34 32 31 33 33 32 32 32 30 31 30 30 31 30 30 30 30 29 28 25 25 24 25 29
46 51 56 57 57 53 48 44 41 40 38 38 40 43 46 47 45 43 42 41 39 37 38 37 35 34 33 34 34 33 32 31 30 29 30 29 28 28 27 29 30 32 36
43 50 55 57 56 52 49 46 45 43 40 41 42 45 46 49 52 48 45 44 43 40 42 42 42 41 40 38 37 33 32 31 31 29 29 28 28 30 33 33 37 36 36
41 44 52 55 54 51 52 50 48 43 41 41 42 43 47 48 52 52 50 47 42 39 42 44 47 47 44 42 37 34 31 30 29 29 29 28 29 31 31 30 33 34 35
38 45 46 48 53 54 54 53 52 47 43 42 41 43 46 47 50 51 49 48 45 42 41 42 44 47 48 43 38 35 33 31 30 28 28 27 26 30 31 30 29 29 28
34 36 40 47 51 53 56 54 56 52 47 44 40 41 45 46 47 49 48 49 46 44 44 44 45 46 43 40 36 33 30 27 26 25 26 27 26 28 26 25 25 27 27
35 35 39 40 43 43 49 55 55 53 53 50 42 39 41 44 46 48 50 49 48 48 47 46 47 48 43 38 36 31 29 29 27 25 24 25 25 24 25 24 23 24 25
38 37 38 41 44 43 40 42 48 51 50 48 43 40 42 44 48 51 50 51 50 50 51 51 49 47 43 39 36 31 27 29 28 26 25 24 24 23 23 22 21 20 20
30 32 38 43 45 39 36 38 39 42 46 47 47 48 49 49 49 49 50 53 55 58 57 54 51 46 42 39 35 32 30 29 30 30 27 25 22 22 22 22 23 21 21
29 30 32 39 44 46 38 39 40 47 49 47 48 51 51 54 51 49 51 56 61 61 61 58 54 48 42 37 33 29 27 27 30 33 31 26 25 25 24 23 22 22 22
29 31 33 37 45 44 39 45 44 43 44 48 50 49 53 56 56 55 56 62 63 62 64 62 53 48 44 39 35 31 28 28 31 36 37 31 29 29 29 29 29 29 29
27 31 35 36 35 46 54 49 47 49 48 49 48 50 56 59 61 61 62 63 63 63 64 62 52 48 46 42 38 37 34 33 36 40 43 43 41 37 36 36 34 34 31
23 24 29 33 33 38 50 53 49 53 50 51 46 52 58 60 62 60 63 66 66 66 67 61 54 52 50 46 43 42 42 42 41 43 44 46 45 44 42 40 38 35 32
25 24 23 24 30 32 35 44 54 45 46 51 52 53 56 61 61 59 60 63 62 63 64 60 58 55 53 50 47 45 45 46 44 44 44 44 43 42 41 39 36 34 32
24 27 28 27 31 34 36 41 54 61 63 55 57 58 61 63 63 59 60 63 64 66 66 63 60 57 54 54 52 49 46 46 47 48 48 46 43 42 40 38 34 30 28
20 24 24 27 28 33 36 39 45 50 53 51 56 57 64 66 66 63 62 65 67 67 63 64 64 61 57 56 55 54 53 52 50 48 48 46 46 44 41 38 33 30 28
16 17 21 25 26 29 31 36 46 53 60 55 52 55 60 66 69 67 67 71 71 70 63 65 65 64 59 56 57 58 58 57 55 52 50 48 47 45 43 39 34 31 28
19 19 19 21 26 27 31 34 39 51 55 58 56 55 57 62 66 68 69 75 76 71 66 70 67 68 65 59 58 60 61 59 56 55 54 53 52 50 47 41 35 30 27

GFSSE_prec_cthk_021.txt.gz
RH
43 41 40 35 31 27 26 27 26 25 25 25 27 28 28 29 31 32 29 24 19 16 17 25 25 39 36 26 23 21 21 20 21 23 26 26 24 21 14 13 13 17 20
42 44 42 39 35 29 28 29 27 25 27 28 26 28 28 29 28 26 21 15 11 11 18 27 24 30 27 26 24 21 18 14 17 17 17 15 14 13 14 15 17 17 17
46 45 42 40 37 35 30 30 27 26 27 30 28 28 26 25 25 21 16 12 10 11 20 24 23 25 25 22 18 16 15 13 14 15 15 15 16 15 13 14 15 15 16
45 43 44 41 40 38 35 33 31 28 27 29 28 30 28 26 16 15 16 15 14 13 20 19 20 19 17 14 15 14 15 16 16 16 16 17 19 21 22 21 21 21 23
45 43 42 42 40 39 39 39 36 34 34 33 32 32 30 22 18 17 16 18 18 16 14 15 14 13 14 16 16 17 17 18 19 22 24 25 26 28 28 28 28 26 25
47 44 42 41 39 38 39 40 40 38 40 40 34 31 29 23 21 20 20 19 21 23 24 24 24 24 23 23 23 24 27 28 28 27 27 28 28 30 27 26 28 31 31
45 45 44 40 40 40 38 41 41 41 38 37 38 38 29 28 26 25 25 24 23 24 26 29 30 31 32 31 29 29 28 28 29 30 31 31 30 29 24 26 29 36 38
43 44 43 41 40 42 41 43 44 42 39 35 37 36 34 31 30 31 30 29 30 30 32 32 33 32 31 29 28 27 27 29 30 31 32 33 31 28 26 25 26 29 32
43 43 43 43 43 45 44 44 44 43 39 36 37 39 40 42 37 32 33 34 35 36 38 38 34 33 32 32 31 30 31 31 31 31 30 31 31 29 28 27 27 28 30
41 45 45 44 45 47 47 47 43 41 41 39 37 38 42 45 49 42 38 37 37 40 41 41 41 40 38 36 34 32 31 31 31 30 31 31 31 29 30 33 38 41 41
38 42 50 55 59 60 55 49 43 41 41 43 40 40 42 45 47 50 46 43 42 40 41 42 43 44 44 42 41 38 34 32 31 31 31 30 32 35 36 38 40 39 40
34 37 45 53 57 60 57 55 48 44 43 43 44 44 43 44 47 50 51 50 49 44 43 42 41 44 45 46 42 38 35 33 32 31 30 30 33 37 38 40 40 40 37
32 37 37 45 52 56 55 54 52 49 44 43 43 45 45 45 48 50 52 52 49 46 45 44 43 43 43 42 40 39 37 35 32 29 28 26 30 33 35 35 35 33 33
28 30 36 40 43 47 50 56 57 55 51 45 44 44 45 43 46 49 51 52 51 48 46 46 46 46 45 42 38 36 33 29 26 25 25 25 25 30 28 26 28 28 28
33 34 36 39 39 42 48 53 55 55 58 55 46 43 45 44 44 47 51 52 50 50 49 50 49 48 46 40 38 35 31 28 26 25 27 26 25 25 25 25 25 25 24
37 37 39 39 40 42 41 44 46 51 56 56 52 45 44 43 43 48 52 53 51 52 53 54 54 54 49 43 39 35 31 28 27 26 27 29 26 26 26 24 23 22 22
39 40 40 40 43 43 45 47 47 46 46 49 50 50 46 42 44 49 53 53 53 53 56 58 59 57 50 44 41 35 32 30 28 26 26 29 29 29 27 25 24 22 22
31 34 33 36 40 43 46 51 52 44 42 41 45 49 47 47 50 53 54 53 55 56 61 62 63 59 52 47 41 38 34 32 30 29 28 29 32 33 32 27 27 28 28
30 33 33 33 36 39 43 50 54 54 47 46 50 49 50 52 56 60 57 56 59 62 66 64 64 59 52 48 43 40 37 36 34 35 35 34 37 40 40 38 35 35 36
26 32 34 35 36 36 40 46 57 55 54 55 53 46 51 54 56 59 60 60 61 66 66 65 65 59 54 50 46 43 41 39 39 41 43 43 43 42 42 42 41 40 39
21 22 30 33 35 37 43 46 51 58 62 60 56 53 54 52 55 60 63 65 66 67 65 64 63 55 52 50 49 46 45 44 45 46 46 47 47 43 41 40 39 39 38
23 22 24 28 34 36 37 40 40 44 52 58 60 58 56 50 49 57 62 64 63 62 62 61 60 55 51 51 49 47 47 47 48 49 49 50 48 46 44 42 41 39 37
26 27 27 27 27 31 36 37 42 45 43 47 54 59 55 59 59 59 60 63 62 61 62 61 64 56 54 52 50 50 49 48 49 51 53 52 50 48 46 44 42 39 37
18 23 27 29 30 29 30 31 40 44 45 45 54 63 65 67 67 67 66 69 70 69 68 66 62 61 58 54 53 53 51 51 51 52 54 52 51 50 49 48 45 41 39
17 18 19 21 25 29 30 31 35 42 45 49 49 57 66 67 70 73 75 73 73 73 75 74 67 63 62 61 59 57 54 54 55 56 55 54 53 54 53 50 45 41 39
17 18 18 18 20 25 27 29 32 40 49 50 60 60 66 68 70 70 70 74 78 78 77 82 75 68 66 68 63 64 61 58 59 58 58 56 56 58 55 50 46 44 40

GFSSE_prec_cthk_024.txt.gz
RH
38 41 43 41 36 31 29 28 28 29 30 30 30 30 31 33 34 34 30 26 23 17 18 25 34 36 25 22 20 20 24 27 29 30 30 29 26 22 18 13 13 17 19
37 41 41 40 38 37 32 29 28 28 30 30 30 29 28 29 30 30 25 18 13 13 29 38 40 41 26 22 20 18 16 15 18 19 19 19 16 13 14 15 16 16 18
41 40 42 38 38 40 36 33 35 34 30 30 33 33 30 28 24 20 16 13 12 20 27 24 25 22 23 21 17 14 14 13 14 15 15 15 15 14 13 14 15 17 18
44 40 41 38 37 37 35 35 36 39 36 31 31 30 27 25 16 14 14 15 16 22 23 21 21 21 17 14 14 13 14 15 16 16 16 16 18 20 21 21 21 22 23
46 43 43 39 40 37 34 34 36 43 38 37 32 29 26 21 20 17 15 16 17 20 21 20 17 14 14 16 17 19 20 20 21 22 26 27 27 27 26 26 25 25 25
43 42 43 41 41 39 34 34 37 39 42 42 39 35 27 24 22 21 20 18 18 20 22 23 24 25 25 24 23 24 25 26 28 29 29 29 29 30 25 26 29 31 32
43 43 42 40 40 39 35 34 37 45 46 44 38 35 30 26 27 26 25 25 26 26 24 25 28 30 31 30 28 28 28 29 29 29 30 30 28 27 25 24 30 33 37
43 42 42 40 40 38 37 36 38 40 46 45 38 35 32 33 30 29 31 33 33 34 33 34 34 31 30 29 29 29 29 30 31 32 32 32 31 30 28 26 26 30 33
35 41 41 39 39 40 40 37 38 41 40 40 41 37 36 35 36 34 33 35 36 39 41 42 40 37 35 33 32 31 31 30 31 31 31 32 31 30 29 28 29 29 32
33 37 40 39 38 40 40 40 40 43 43 41 42 40 39 41 39 39 39 37 38 43 43 41 41 41 41 40 39 36 34 32 31 30 30 30 30 31 37 42 42 42 46
33 36 39 39 38 44 47 46 47 47 44 43 44 46 42 44 47 46 45 44 42 44 43 41 39 40 42 43 43 40 36 33 32 32 31 30 36 39 39 41 43 42 42
33 34 37 42 46 49 54 56 53 49 46 44 44 45 46 47 47 50 49 49 49 43 44 45 44 42 42 42 41 39 37 36 33 32 30 32 34 36 37 40 40 37 38
36 35 35 39 47 52 57 59 57 54 49 47 47 47 47 49 48 48 51 52 52 49 45 46 46 46 46 44 40 37 34 32 29 26 25 25 29 30 31 31 31 32 30
29 33 36 38 39 44 52 56 58 57 51 48 49 48 49 48 51 49 50 53 53 52 49 50 49 48 49 46 41 37 35 31 27 25 24 23 25 28 26 23 25 26 26
32 32 30 34 37 40 46 49 52 53 56 56 51 47 49 47 48 49 49 50 52 52 50 49 51 51 51 48 42 38 34 31 27 25 24 24 24 26 25 25 23 24 24
34 31 35 37 35 40 42 45 47 52 56 57 55 51 50 46 45 46 47 48 50 50 51 52 53 55 55 50 45 41 36 32 29 27 27 25 25 26 26 26 24 25 25
34 37 36 39 41 41 44 45 48 49 51 53 54 53 49 45 46 46 46 48 51 51 52 53 54 58 59 54 48 44 38 35 32 30 29 27 28 27 28 29 30 29 28
29 33 40 46 46 43 38 42 48 52 56 54 53 50 47 47 46 44 44 49 53 53 54 56 58 61 61 54 49 45 40 37 34 33 33 32 33 34 33 33 35 36 38
27 30 32 35 37 36 36 36 45 49 56 59 60 55 49 50 53 48 47 51 55 56 57 61 62 63 60 53 49 45 41 39 38 38 38 38 38 38 38 38 37 38 39
26 28 30 32 33 32 30 35 39 46 49 54 61 59 57 58 54 52 56 58 57 57 61 65 65 65 60 51 47 43 41 41 39 41 41 41 42 42 40 40 41 39 37
21 23 26 30 33 35 34 32 36 40 43 49 60 62 62 64 57 58 58 59 59 60 64 69 66 63 56 49 47 41 41 41 41 42 43 44 46 45 44 43 42 40 40
23 23 24 24 29 32 35 36 35 40 42 46 56 66 68 69 67 68 61 60 64 64 67 67 66 62 55 49 47 43 42 42 42 43 44 46 46 47 46 46 45 44 43
22 25 27 27 26 26 28 31 35 40 40 40 44 49 57 66 69 69 66 67 63 64 66 68 67 61 57 52 50 45 44 43 45 45 46 46 47 48 48 46 46 46 45
18 19 24 29 31 31 30 28 31 36 39 40 46 46 47 50 62 66 68 69 71 68 67 70 72 70 64 60 56 53 49 48 48 48 48 49 50 50 48 47 47 47 46
17 18 18 20 25 29 33 34 35 33 34 38 43 54 57 54 62 72 77 79 80 78 79 77 75 78 73 68 63 62 57 55 54 52 51 53 53 54 52 51 50 49 48
17 17 19 20 20 21 23 25 28 33 35 36 39 46 54 60 60 64 73 78 79 83 86 86 85 83 80 73 70 65 64 61 60 63 60 56 57 56 56 54 52 52 51

GFSSE_prec_cthk_027.txt.gz
RH
32 35 43 43 41 37 33 29 27 28 32 33 35 34 33 32 33 34 31 28 25 16 24 32 38 28 23 22 21 23 28 31 31 32 33 31 28 24 19 14 13 15 18
33 37 45 45 40 42 34 32 30 29 29 31 31 30 30 28 29 28 25 21 16 30 39 41 40 33 24 21 20 18 19 21 22 25 25 22 18 14 13 14 15 15 20
36 38 43 44 45 41 38 33 35 34 32 29 31 30 28 27 24 20 18 15 14 31 36 34 32 26 21 20 16 14 14 14 16 17 17 15 15 14 14 16 17 19 23
38 38 37 38 37 36 36 35 40 41 37 34 31 30 27 24 19 16 14 14 21 24 26 22 23 19 16 14 13 13 14 15 16 16 15 17 19 20 22 23 23 24 24
40 38 37 36 38 36 34 32 39 41 40 39 36 31 27 20 19 18 17 17 20 24 23 21 18 16 16 16 17 19 20 21 21 22 23 23 25 28 26 26 27 27 25
41 39 38 36 37 36 33 30 31 38 40 38 36 33 26 23 23 21 20 19 19 21 22 23 24 25 25 25 24 23 23 23 25 26 27 28 28 25 26 28 32 37 37
42 41 39 37 38 38 34 33 32 39 41 41 39 31 27 26 25 26 25 25 25 26 26 27 28 29 29 28 27 27 26 26 26 28 28 28 28 28 26 28 30 33 39
43 42 39 38 38 37 35 34 33 40 45 42 38 33 28 30 29 29 30 31 33 36 37 37 37 32 30 28 28 28 29 30 30 30 30 30 30 29 28 27 28 32 34
40 43 42 41 39 38 37 34 35 39 44 45 39 34 31 31 32 34 34 36 39 40 42 45 40 38 36 34 32 32 31 30 29 28 29 29 29 29 29 31 31 36 36
36 38 41 41 40 41 39 37 36 37 41 48 47 37 34 34 33 34 38 40 42 44 44 42 39 39 39 39 38 36 34 31 30 30 30 30 30 37 43 44 44 44 44
34 36 38 40 41 41 42 40 40 40 44 45 47 46 43 38 38 37 38 39 43 47 44 44 42 40 39 38 39 37 35 33 32 31 30 32 37 39 41 42 42 42 41
35 35 37 42 42 42 46 47 46 46 49 49 46 49 46 47 48 43 43 42 43 44 44 44 44 43 43 42 39 35 32 31 30 28 27 33 33 33 31 31 30 32 30
33 36 36 38 42 48 49 51 52 53 53 52 50 47 48 50 49 50 46 44 47 46 45 46 46 46 45 45 43 37 33 31 28 25 24 25 27 30 27 30 28 28 27
33 33 36 38 40 42 48 53 55 57 57 54 53 49 48 50 50 47 50 47 46 47 46 47 47 48 48 49 46 40 36 31 29 26 24 24 24 24 23 21 24 24 22
32 33 34 35 39 40 43 45 51 56 58 59 54 50 52 50 50 49 48 48 47 46 46 47 48 49 50 51 49 44 39 35 31 28 26 25 25 25 24 23 24 23 22
34 36 35 33 35 38 39 43 46 51 54 57 61 57 53 49 47 50 47 47 48 47 45 45 47 49 50 52 50 47 43 38 33 30 28 28 28 27 26 26 27 27 27
29 32 39 38 34 37 39 40 43 47 51 52 56 61 61 52 50 48 47 46 49 49 45 46 48 51 52 54 52 49 45 41 36 33 31 30 32 32 31 31 32 31 30
28 28 29 32 33 32 36 38 43 49 54 54 50 53 57 57 54 50 47 46 47 48 47 49 51 52 54 55 53 50 46 41 37 34 32 32 34 36 34 34 33 34 35
26 27 26 27 31 33 35 42 45 47 48 50 53 56 59 59 61 53 47 48 49 50 51 52 53 56 58 59 54 49 44 40 36 35 34 34 35 35 35 37 37 36 36
25 24 24 25 27 31 34 36 38 43 44 43 48 53 57 63 63 61 57 54 52 52 55 56 56 59 62 61 55 48 41 38 35 35 35 36 36 37 38 39 39 39 39
21 23 24 24 25 29 31 31 31 31 34 37 38 46 54 57 62 62 63 63 58 56 62 58 57 63 64 62 54 46 41 39 36 36 36 38 39 40 40 40 40 40 39
19 19 19 21 22 23 26 30 31 33 34 37 40 43 48 53 59 64 67 69 67 67 62 62 66 67 67 63 53 45 42 40 40 38 37 39 41 42 43 44 43 43 42
19 20 20 20 23 24 24 25 27 30 34 36 38 41 43 47 56 68 70 73 78 76 71 71 67 67 68 65 58 48 45 44 43 42 41 41 43 45 46 47 46 46 45
18 18 18 18 20 25 29 29 28 27 28 31 33 36 41 48 51 59 65 72 79 81 75 73 72 68 71 68 65 59 55 51 50 49 48 47 48 48 50 50 50 50 48
18 18 17 17 17 21 27 30 31 32 32 31 31 34 39 44 51 57 60 61 67 76 80 79 79 78 77 75 72 69 66 63 60 57 55 53 53 54 53 53 53 53 52
18 17 17 17 18 19 22 25 26 27 29 31 33 36 37 39 44 55 61 62 63 76 83 86 89 89 86 86 88 81 77 72 69 64 63 63 60 62 62 60 57 58 57

GFSSE_prec_cthk_030.txt.gz
RH
31 34 40 43 40 36 33 31 28 28 33 34 32 33 33 32 33 33 31 27 22 19 33 38 33 27 33 23 24 29 33 34 32 32 32 31 29 25 19 14 16 21 17
30 38 41 44 42 40 38 33 33 34 35 32 33 32 30 29 28 26 25 22 21 35 38 40 32 24 18 19 19 20 24 27 28 27 27 25 20 15 14 15 15 17 22
37 42 42 45 44 42 40 37 37 36 35 31 29 28 27 26 24 21 18 15 31 40 39 38 29 22 18 17 14 14 15 17 18 19 19 21 14 14 15 16 18 20 25
43 45 45 44 46 43 40 37 37 37 38 35 31 29 26 22 19 16 14 16 28 30 32 31 25 17 14 12 12 13 14 14 14 15 21 22 24 20 21 23 23 23 24
45 44 44 39 40 37 36 34 37 36 37 37 34 29 25 20 18 17 17 20 23 27 26 24 18 15 16 16 17 17 18 18 19 22 23 27 29 26 26 26 28 29 28
44 45 39 37 37 37 37 39 39 35 36 37 33 29 22 20 20 19 19 21 22 22 22 21 22 24 25 24 24 24 23 23 23 26 28 24 30 24 25 28 33 39 45
46 46 42 38 39 37 35 35 40 37 37 36 34 27 24 23 22 23 23 23 24 24 24 25 27 28 27 27 26 26 26 26 30 29 31 30 28 25 25 28 30 37 41
49 48 47 39 38 39 37 36 37 41 41 40 36 28 26 27 28 27 28 28 29 32 34 37 34 31 29 28 27 27 28 28 30 30 28 29 27 27 27 27 28 35 36
49 50 48 44 39 39 39 37 36 39 44 44 43 34 29 30 31 33 34 34 37 36 39 39 36 36 35 34 33 32 30 29 32 29 28 31 27 28 31 31 37 38 38
44 45 52 49 42 41 41 40 40 43 45 46 45 43 33 32 32 33 36 38 40 40 41 40 36 35 35 37 37 36 34 32 31 30 31 33 33 43 42 44 44 44 42
34 38 44 48 48 47 49 42 42 42 45 47 49 46 41 42 37 36 36 37 41 42 42 40 39 39 38 37 36 34 32 32 32 35 35 35 39 41 41 42 43 41 39
36 34 35 39 46 46 48 47 45 44 43 48 51 51 51 50 49 44 40 38 39 41 41 42 41 41 42 41 40 36 33 32 30 34 35 34 32 30 29 29 30 31 31
32 33 33 36 42 44 48 52 53 52 51 52 53 56 55 54 52 51 49 43 40 40 40 42 44 45 45 45 42 40 36 32 32 34 33 29 30 29 28 25 26 26 25
29 30 34 35 37 39 49 52 55 55 55 53 54 58 59 56 53 52 52 50 48 46 43 41 42 44 47 47 46 43 41 37 36 35 33 26 26 25 26 24 24 25 25
30 31 33 35 36 38 40 44 51 54 56 57 56 58 58 57 54 53 55 52 51 51 47 43 41 43 46 48 49 45 44 41 38 37 38 28 27 26 26 25 25 25 25
33 31 31 33 35 36 36 38 41 44 52 58 65 61 58 58 56 56 55 51 55 53 49 46 44 42 45 49 50 47 45 44 41 37 39 31 29 28 28 29 29 28 27
34 35 34 32 35 36 33 35 38 39 43 50 56 59 61 57 59 60 58 49 54 55 52 51 47 43 45 48 51 50 47 45 42 37 36 37 30 29 29 30 30 30 30
30 30 31 29 30 36 36 34 35 38 40 43 49 54 57 61 62 63 63 55 53 50 49 50 47 45 46 49 52 53 49 47 43 39 35 31 32 31 31 32 31 31 32
27 28 27 27 27 28 29 32 32 34 40 40 43 47 53 55 58 62 62 61 62 53 48 48 47 48 49 51 55 55 51 48 43 38 34 32 31 32 33 33 32 32 33
21 23 24 25 27 27 27 27 31 33 38 42 41 43 49 52 56 61 65 62 63 57 52 50 52 52 52 54 57 57 52 48 42 36 35 32 31 33 35 36 35 34 35
17 19 20 22 23 24 27 26 28 30 30 34 34 37 43 47 54 60 62 68 69 65 61 59 60 54 54 58 60 58 54 47 42 37 35 35 34 34 36 37 37 37 38
17 17 17 18 21 22 23 25 26 28 30 33 33 35 40 41 47 53 57 60 65 69 67 67 67 64 58 60 64 61 56 49 42 38 37 37 37 36 37 39 40 40 41
17 18 18 18 18 19 19 20 24 27 29 29 30 32 33 39 43 46 50 56 59 67 71 73 74 72 67 67 69 63 57 52 49 45 42 42 42 41 42 43 44 45 45
17 17 18 19 19 19 20 22 27 30 28 26 28 31 35 38 44 50 54 54 57 63 72 77 79 80 75 74 75 70 64 56 52 54 52 50 50 49 48 49 48 48 49
19 18 18 18 18 17 17 18 23 31 33 36 37 33 32 33 37 43 52 64 63 67 68 73 81 84 82 79 76 77 75 70 64 61 62 64 61 58 56 55 55 55 54
20 18 17 17 17 17 17 17 19 25 32 36 37 38 39 38 38 40 44 55 61 64 69 71 75 78 79 81 85 86 85 84 79 77 76 76 70 68 65 65 65 64 63

GFSSE_prec_cthk_033.txt.gz
RH
34 29 32 37 35 33 30 30 30 31 32 32 32 33 32 31 32 31 28 24 19 27 36 33 23 32 27 22 28 28 29 31 34 35 35 31 27 22 15 12 19 20 17
33 29 33 40 40 35 36 33 32 35 38 35 34 33 28 29 27 25 23 19 29 37 40 35 22 16 19 19 20 24 28 29 30 29 27 25 20 13 13 13 15 16 18
34 35 34 43 44 41 38 37 33 39 39 35 34 29 28 25 22 19 16 22 40 39 41 31 25 17 15 14 13 14 17 19 20 18 22 22 14 13 15 16 18 21 20
40 41 43 44 45 44 41 39 38 35 35 34 31 27 24 22 19 17 15 28 32 33 35 28 22 15 12 11 11 12 13 13 14 18 26 28 24 19 20 22 23 23 24
47 45 45 38 45 44 41 40 37 35 33 32 31 26 21 18 17 17 18 24 29 31 32 26 19 14 14 15 16 16 17 17 19 24 27 28 33 22 24 27 29 29 28
52 52 44 40 43 43 43 42 40 37 35 33 33 27 20 18 18 17 17 20 23 23 21 20 20 23 24 24 24 24 24 24 26 29 29 27 27 23 25 29 33 38 44
51 50 43 42 41 39 44 43 42 41 37 35 32 26 22 22 21 21 23 24 24 23 22 22 24 25 25 25 25 26 26 27 32 33 32 31 26 25 25 27 28 37 40
52 49 46 43 39 38 40 41 43 42 40 37 33 29 23 24 26 26 25 27 27 27 29 31 30 29 28 27 26 26 26 26 33 32 29 29 25 25 26 26 28 35 36
51 52 51 43 40 39 38 38 43 42 41 40 36 31 29 26 28 30 31 31 31 33 37 34 31 31 31 32 32 32 31 29 33 30 30 31 26 30 32 31 37 40 39
48 48 48 46 39 38 37 37 40 42 43 42 40 34 32 34 31 31 33 36 37 38 39 38 35 34 32 31 32 32 32 31 34 32 33 30 37 39 42 43 43 42 38
43 44 49 50 45 44 44 39 40 44 44 43 43 41 34 37 38 36 36 37 37 40 41 40 37 38 38 36 35 33 30 31 32 32 34 32 33 35 37 36 37 33 34
37 38 43 46 45 43 45 43 43 45 44 44 44 42 41 47 44 42 40 39 40 41 40 38 39 39 40 39 39 36 36 35 34 33 35 34 31 30 29 29 30 31 27
34 36 36 40 42 43 45 46 46 47 47 48 49 47 48 53 52 50 48 39 41 41 39 38 39 40 41 41 42 41 38 37 39 36 36 32 32 29 26 25 23 25 25
30 31 32 35 39 41 43 48 53 51 52 52 52 56 52 56 56 60 54 51 48 47 46 39 40 39 40 41 43 43 42 40 41 40 40 33 33 28 26 26 24 24 24
33 29 28 31 36 40 40 46 52 54 52 54 55 54 56 60 59 60 61 60 56 53 50 47 43 40 39 40 43 45 44 44 43 43 44 34 30 29 28 26 25 24 24
32 32 30 32 35 37 39 41 44 45 48 48 51 53 57 58 62 62 61 63 64 60 56 52 50 45 40 41 42 44 45 46 46 44 45 37 33 31 29 27 26 25 26
37 40 38 31 29 31 33 36 39 40 40 41 43 44 48 54 60 62 62 61 61 62 61 57 54 48 43 42 43 44 46 47 47 45 46 42 34 31 28 27 28 29 29
27 28 31 36 33 31 32 36 38 39 39 40 40 43 44 48 54 61 65 61 64 63 63 63 58 52 47 44 43 43 46 48 49 47 47 43 38 32 28 29 30 30 30
22 25 28 31 35 34 33 33 35 40 43 38 39 41 43 46 50 55 60 62 62 67 68 66 62 61 51 45 45 46 48 49 50 49 47 42 39 36 31 30 31 31 32
20 21 23 27 29 32 35 35 30 29 35 39 40 40 44 46 45 49 54 61 60 60 63 64 62 62 58 50 50 50 51 52 53 50 47 43 38 33 33 31 31 32 33
16 17 20 21 25 27 29 32 28 27 27 29 34 38 41 44 46 47 48 54 59 58 63 66 66 65 63 61 57 56 52 54 53 51 49 45 38 33 32 34 34 34 35
17 17 17 18 19 21 22 24 29 27 23 24 27 32 34 37 40 46 46 47 54 56 61 65 66 67 68 68 65 65 58 56 56 55 51 47 41 36 35 35 37 38 39
17 16 17 18 18 18 18 19 20 25 30 27 24 25 28 35 40 45 46 46 49 54 56 62 65 69 69 70 75 72 66 61 60 58 52 49 46 43 41 41 43 44 45
17 16 16 16 17 18 19 20 21 24 28 31 32 30 28 30 35 43 49 48 53 58 59 63 66 72 78 76 83 80 74 70 67 64 60 53 53 51 49 49 50 51 52
19 17 16 16 17 19 19 19 20 22 25 31 34 34 34 35 33 34 46 52 51 54 59 66 73 71 75 77 85 87 87 84 79 74 69 64 64 64 61 60 65 61 61
21 19 18 18 18 18 18 17 17 18 22 29 33 36 37 37 37 39 41 45 50 54 54 57 67 77 83 82 82 88 89 88 85 80 78 75 78 76 73 72 76 70 69

GFSSE_prec_cthk_036.txt.gz
RH
38 29 26 29 32 33 30 30 32 34 32 31 31 31 31 29 28 26 23 21 25 33 34 23 29 28 23 25 27 29 33 33 34 34 36 31 25 15 12 16 15 14 15
34 27 26 31 34 34 35 32 34 38 38 32 34 32 27 27 25 21 18 27 33 37 33 19 16 14 18 18 23 27 30 31 31 29 26 20 13 12 13 14 15 16 16
34 28 29 36 36 39 38 37 35 37 40 38 35 30 27 25 21 18 19 34 36 38 32 25 20 13 12 12 13 15 19 21 21 22 21 20 16 15 15 17 19 21 22
35 31 34 42 42 40 39 38 39 36 37 34 30 27 22 20 17 17 26 31 33 34 28 25 18 11 11 11 11 12 12 14 20 26 31 32 23 18 20 21 22 23 23
36 34 37 42 43 44 41 41 38 37 36 32 29 24 19 16 15 15 23 26 28 31 31 25 17 16 15 16 16 16 17 20 24 25 25 26 23 20 21 26 29 31 31
38 38 39 39 39 44 41 41 40 40 35 33 29 23 19 17 17 17 17 24 25 24 21 18 19 20 22 22 22 23 24 26 27 28 26 24 21 20 24 29 37 39 40
39 44 41 37 41 37 40 39 42 41 39 35 30 25 20 20 20 20 22 23 25 23 22 22 24 24 23 22 23 24 24 28 30 31 29 26 24 24 24 27 31 35 38
47 47 42 37 38 38 36 41 41 41 42 38 31 26 24 22 23 24 26 27 26 25 26 28 28 27 27 27 26 27 27 31 32 28 26 25 24 23 24 24 29 32 33
49 46 40 37 37 37 38 40 42 41 41 40 34 27 25 25 24 25 27 28 29 30 32 30 30 28 28 28 29 29 30 33 33 30 31 29 27 32 31 32 35 34 35
47 45 44 39 37 35 33 35 40 42 42 41 37 32 26 27 28 30 29 29 31 34 36 35 34 33 32 30 29 28 26 26 26 27 27 26 33 33 36 38 35 33 32
46 47 44 42 35 34 33 34 35 41 43 42 40 38 31 29 30 34 35 35 33 35 36 36 35 35 35 35 35 33 31 31 31 31 30 30 30 30 32 33 32 30 29
40 40 44 42 40 39 38 34 36 39 43 44 44 40 35 33 34 34 37 39 39 39 37 36 35 35 36 37 37 36 35 34 34 37 36 32 30 29 28 27 28 27 26
34 35 37 40 38 38 39 41 36 41 43 43 42 39 38 39 44 42 40 42 42 41 38 38 37 35 36 36 37 38 37 37 38 37 38 36 33 29 27 25 23 22 23
33 34 36 35 37 38 38 37 38 39 42 43 47 47 45 43 45 46 46 46 43 43 41 39 40 40 39 38 37 37 38 38 39 39 40 39 36 32 27 26 24 23 23
33 33 33 33 33 34 35 36 40 42 42 44 45 46 47 48 48 48 50 53 51 50 52 51 46 44 41 40 39 38 39 39 41 40 41 40 36 33 30 28 26 25 23
37 34 31 30 30 32 36 38 39 43 41 42 45 45 46 46 47 49 50 53 56 56 57 56 56 52 49 44 43 43 42 41 41 42 43 41 38 34 31 29 27 25 24
40 38 32 30 27 29 31 35 38 39 40 38 38 38 40 43 45 45 47 49 53 56 61 62 58 57 57 52 50 44 43 43 42 42 42 42 40 37 32 31 29 26 26
37 41 40 32 29 30 28 31 35 36 38 39 41 41 38 39 42 44 45 47 52 57 62 65 61 60 58 57 56 53 46 43 43 44 44 44 43 41 35 32 29 28 28
24 25 30 33 33 28 31 35 33 36 38 40 41 40 40 38 38 41 45 47 47 52 55 61 61 64 64 64 62 57 56 50 45 46 46 46 45 43 37 33 31 29 30
21 20 22 25 27 30 36 36 34 33 37 37 38 39 40 37 36 39 44 48 49 50 52 55 57 59 60 60 62 61 58 57 55 51 48 48 47 45 42 36 32 30 31
20 19 17 18 21 23 25 31 34 31 30 34 36 37 43 48 42 37 42 45 50 49 50 53 56 59 61 63 64 64 62 62 63 59 55 52 50 47 45 41 35 32 33
21 19 17 16 17 19 21 22 25 26 26 24 24 28 35 39 45 50 45 43 47 50 49 55 54 58 61 64 66 68 65 65 66 67 63 60 56 54 48 44 40 37 35
19 18 17 17 17 17 17 17 18 20 23 26 24 21 21 27 40 44 48 55 52 54 55 52 58 62 66 71 72 73 70 69 71 73 71 69 66 60 56 48 45 43 44
20 18 17 16 16 17 18 19 20 21 21 24 27 26 26 27 27 29 38 46 55 57 58 56 56 61 68 68 72 74 77 76 78 77 77 76 75 70 66 62 55 53 54
22 19 18 17 17 18 17 17 18 19 21 22 26 31 32 31 29 29 32 34 45 54 59 63 63 58 62 67 70 73 76 81 83 85 82 84 85 80 75 72 65 61 64
22 20 19 18 18 18 18 19 18 18 18 17 20 24 30 33 34 35 39 39 42 48 53 56 60 66 65 64 67 76 79 83 88 88 87 87 88 89 85 76 74 74 73

GFSSE_prec_cthk_039.txt.gz
RH
40 32 26 27 33 31 29 27 28 30 32 31 30 30 29 27 25 22 20 24 28 31 22 28 25 22 22 24 29 32 33 31 30 32 34 30 19 12 12 12 15 14 14
38 31 26 27 31 33 33 29 29 33 34 33 29 29 26 25 22 19 25 32 36 30 18 14 11 13 16 20 23 26 28 28 27 26 23 16 11 12 14 16 15 16 16
38 33 27 29 33 35 35 34 33 32 33 31 29 26 23 21 19 19 28 34 37 31 26 19 12 11 12 12 14 19 22 23 22 20 19 18 16 16 17 17 19 20 20
37 32 28 32 38 40 36 35 37 34 30 28 25 23 19 17 15 28 31 31 31 30 22 19 12 11 11 11 12 14 16 18 20 22 22 22 20 19 21 20 21 23 26
36 32 30 37 40 40 38 38 38 37 32 28 25 20 16 14 14 24 24 26 28 28 25 19 17 16 16 16 15 16 18 21 23 24 24 23 19 19 23 27 33 36 37
38 33 34 42 42 40 42 41 40 37 35 31 25 20 16 16 15 19 24 24 24 24 20 17 18 19 19 20 21 22 25 27 27 25 25 23 21 21 26 37 39 38 39
38 34 33 39 40 39 42 42 40 39 36 31 28 21 20 19 18 18 20 24 23 22 21 23 24 23 22 22 22 23 25 26 28 27 25 24 22 23 24 28 32 33 37
37 37 39 39 38 40 41 42 41 40 39 34 29 23 22 21 22 21 23 24 24 24 25 26 26 25 26 26 26 27 29 30 30 28 25 26 24 24 25 28 30 31 31
42 43 43 38 35 35 38 42 43 41 40 37 32 26 24 24 25 27 26 25 25 28 30 30 30 28 27 26 25 24 25 26 28 27 26 26 28 31 33 32 34 34 34
47 45 40 35 34 34 35 38 42 42 41 40 37 33 28 26 25 28 30 30 29 30 31 31 32 32 32 31 30 29 28 27 26 25 25 23 27 28 31 31 29 27 24
43 43 41 37 34 34 33 32 32 38 40 39 36 34 32 30 27 27 29 33 35 35 35 33 32 33 34 33 34 32 31 30 31 30 31 32 31 30 28 29 28 26 24
41 41 42 41 37 34 32 31 31 32 35 36 35 36 34 32 30 31 32 33 36 38 41 39 35 35 36 34 32 32 32 32 32 35 35 35 36 36 32 30 27 25 22
41 38 35 35 35 32 34 35 31 30 31 34 35 36 37 34 34 33 34 36 39 41 42 43 41 39 39 38 35 34 33 31 31 34 35 37 36 34 31 28 26 23 21
36 36 34 32 30 30 32 33 33 31 32 35 36 39 40 37 38 40 39 38 39 42 42 44 45 45 44 42 40 38 38 35 32 34 35 37 38 35 34 28 26 25 23
32 35 35 33 32 30 29 30 30 31 34 37 39 41 44 44 40 42 42 43 42 45 47 48 47 48 47 49 49 45 42 39 38 36 38 38 38 37 34 31 27 27 25
32 32 35 34 34 32 29 29 30 31 33 35 37 38 39 41 41 40 42 44 47 48 50 51 54 56 55 51 50 50 50 47 42 39 39 40 39 41 37 34 29 28 27
35 35 35 35 33 31 29 31 31 33 33 34 36 36 33 34 37 38 39 39 39 42 46 48 54 56 58 57 56 56 55 54 52 49 42 41 42 42 40 37 33 30 29
36 36 37 36 35 30 30 31 32 34 36 38 34 34 34 35 34 36 37 36 39 41 44 48 51 52 54 57 58 58 58 58 56 55 54 47 44 45 43 41 37 33 31
29 30 31 31 29 30 33 34 33 36 38 38 36 36 36 37 37 39 39 36 37 40 43 48 52 51 51 52 55 55 58 59 58 57 57 55 51 49 46 44 41 36 34
25 26 29 29 28 28 27 27 32 34 34 35 38 40 44 43 44 44 43 46 46 45 46 50 52 55 55 54 58 57 54 56 55 57 57 59 60 57 55 49 45 40 38
26 26 25 23 25 25 26 26 25 26 31 40 42 38 42 44 46 44 50 53 55 55 50 50 54 61 59 62 64 62 57 57 55 59 60 61 62 64 62 59 52 47 43
27 26 26 25 22 21 22 22 23 24 25 25 25 29 32 35 37 42 46 50 50 56 58 59 63 68 70 69 71 73 63 62 65 69 66 65 66 67 68 69 62 54 49
24 24 23 22 21 20 19 19 20 21 20 20 21 21 22 24 28 33 37 46 48 55 54 59 67 64 67 68 66 75 72 69 70 71 71 73 74 74 72 74 74 67 60
22 20 19 19 18 18 18 19 19 20 21 22 22 22 22 24 27 30 32 36 41 48 47 49 52 59 69 68 72 72 76 76 77 74 75 77 81 81 79 80 82 78 71
21 20 18 18 18 18 17 17 17 17 18 18 20 21 23 24 27 30 31 30 34 37 40 44 50 55 58 72 74 71 74 76 78 78 80 82 83 85 87 87 84 82 79
22 21 22 22 21 20 18 17 17 16 17 17 17 18 19 20 22 27 31 38 39 45 49 51 57 58 61 74 77 81 81 82 81 81 78 82 89 90 89 90 93 92 82

GFSSE_prec_cthk_042.txt.gz
RH
36 30 28 27 30 31 30 26 26 30 31 29 28 27 28 26 22 20 23 28 28 28 28 24 20 21 21 28 30 34 33 30 27 28 30 25 14 10 11 13 14 13 14
33 29 26 30 31 33 32 31 27 27 29 27 26 25 23 22 19 25 30 34 25 17 16 11 11 18 21 23 26 28 28 27 26 25 21 14 11 13 15 16 15 16 17
37 31 29 29 31 36 34 34 31 26 25 25 22 22 20 19 19 24 31 34 29 24 18 12 10 11 14 18 22 23 24 23 20 17 15 15 16 17 17 17 18 19 19
37 31 28 29 33 35 36 37 36 32 26 24 22 19 17 16 25 27 29 31 28 22 16 11 10 10 10 12 14 17 17 15 16 18 18 18 18 20 19 20 21 23 33
36 31 29 31 39 37 38 39 36 35 31 26 22 17 15 15 23 25 27 27 26 24 19 16 16 16 16 16 16 17 19 20 21 21 20 20 18 22 25 28 34 38 39
36 32 30 35 42 39 40 40 38 36 34 31 24 18 16 15 23 22 23 24 24 24 18 18 19 19 19 20 20 22 23 24 24 24 24 22 21 26 35 33 35 36 37
37 35 36 37 39 41 43 42 40 38 36 32 27 21 19 19 18 21 22 23 22 21 21 23 23 23 24 25 25 25 25 26 26 26 24 23 23 23 28 31 32 32 35
39 36 33 36 38 42 43 42 41 41 38 32 28 23 22 20 21 24 23 23 23 23 24 24 23 23 23 24 25 26 27 29 28 27 26 26 24 25 28 29 28 29 31
41 37 35 34 37 42 41 40 42 42 39 34 31 27 24 24 23 24 27 29 27 26 27 26 26 27 27 27 27 26 26 26 25 25 24 23 24 26 29 28 28 28 28
42 40 40 40 37 38 39 38 40 40 40 35 32 30 28 26 26 25 26 28 31 34 34 32 30 29 29 28 28 27 28 29 28 28 27 27 30 31 30 28 27 24 22
45 44 41 38 36 34 35 35 38 38 37 36 34 32 29 29 29 29 30 30 30 34 37 38 37 36 34 33 33 31 30 29 29 29 30 32 35 35 34 32 30 25 24
47 47 44 38 35 35 35 35 33 33 35 35 33 33 32 32 32 31 30 32 34 34 37 37 38 39 38 38 38 37 34 33 33 32 32 33 36 38 36 37 31 24 23
47 44 43 42 40 36 34 33 30 30 31 32 32 32 33 32 34 35 35 34 35 36 38 40 40 40 41 42 41 41 39 37 35 36 35 36 36 36 34 31 31 28 24
45 42 40 38 36 34 31 30 29 28 30 33 33 33 34 33 35 38 37 37 37 37 38 39 42 43 43 43 44 45 46 45 42 39 37 38 37 38 36 34 31 28 26
45 38 35 35 32 31 29 28 27 27 27 29 34 37 39 40 39 42 43 44 43 41 42 40 38 42 45 46 49 50 49 49 48 48 45 40 38 39 39 38 34 31 27
44 39 35 33 31 29 28 28 27 26 27 31 33 36 37 38 39 40 41 42 44 45 45 46 44 44 45 46 48 51 53 53 53 53 53 52 49 43 40 41 39 35 31
37 37 37 36 34 31 31 30 27 27 30 31 33 34 34 34 33 32 33 34 36 38 40 40 43 45 48 50 52 52 52 52 54 56 57 58 56 54 52 44 44 40 36
38 40 42 39 38 37 34 32 30 29 29 30 30 32 34 34 33 32 33 33 34 37 38 38 38 40 43 46 50 52 52 51 50 51 54 56 56 58 57 54 49 46 42
29 31 35 38 39 40 39 37 35 34 32 32 35 34 33 33 35 40 40 39 41 43 42 44 45 46 46 47 49 54 55 55 53 52 50 50 52 55 61 62 60 55 48
28 28 28 29 29 31 34 33 32 32 34 35 34 35 38 45 47 50 51 52 51 50 50 55 55 56 57 57 57 60 62 60 60 57 55 55 56 57 60 65 65 66 59
29 27 30 30 29 29 30 32 30 28 28 31 35 39 44 47 48 50 51 45 43 46 47 51 64 61 67 70 74 76 73 71 70 68 68 63 60 64 65 67 68 68 68
30 29 28 28 29 28 27 26 25 25 24 25 25 29 31 32 33 33 38 42 43 45 50 51 58 57 64 71 77 82 79 71 68 67 68 70 71 73 73 75 73 73 72
30 29 28 27 26 25 26 26 25 24 23 23 23 23 24 24 26 31 33 31 33 36 36 40 49 59 59 64 67 72 70 66 68 67 69 71 72 74 75 77 82 84 82
28 26 24 24 23 23 22 24 23 22 21 21 21 21 21 22 23 24 27 30 31 33 35 37 40 48 50 52 60 64 71 71 74 71 67 72 73 76 77 81 84 89 88
26 24 22 21 19 20 20 20 19 18 19 20 19 19 19 19 20 22 25 27 32 36 34 37 39 40 46 55 59 68 70 66 67 85 72 76 80 83 83 85 88 89 92
25 23 21 20 20 19 18 18 18 18 17 17 16 16 16 16 16 18 19 21 26 37 42 49 52 52 47 50 60 63 67 72 69 80 78 82 94 96 91 92 87 89 92

GFSSE_prec_cthk_045.txt.gz
RH
35 31 28 27 29 28 26 24 25 29 29 28 27 27 26 23 20 22 28 32 35 29 26 22 19 19 20 23 30 35 35 31 25 24 26 20 11 11 12 12 13 13 16
32 29 29 27 30 32 30 28 30 30 27 25 24 22 21 19 23 26 35 23 17 15 12 10 16 20 20 25 26 27 26 25 22 21 17 12 12 14 15 16 15 16 19
32 30 34 29 31 33 35 33 30 26 24 23 19 18 17 18 23 28 31 27 20 15 11 10 12 14 18 19 20 21 21 20 18 15 14 15 16 17 17 17 18 20 20
31 29 34 30 31 32 34 36 34 31 25 20 18 17 16 19 22 27 30 27 22 17 12 11 11 11 13 15 17 18 17 15 17 17 16 17 18 21 20 21 23 34 34
32 27 32 29 34 33 35 35 35 34 30 23 19 16 16 23 24 24 25 23 22 18 15 15 15 15 16 18 18 18 18 19 20 20 19 18 21 25 28 32 35 36 36
34 28 29 29 33 34 36 38 37 34 33 30 23 17 18 26 26 23 23 24 23 21 19 20 20 20 20 20 20 21 21 22 22 22 22 21 23 29 36 34 38 37 36
33 29 30 32 35 36 39 41 38 35 31 31 27 22 19 23 23 24 22 22 22 20 21 21 21 22 22 23 24 25 26 26 26 25 24 23 23 26 30 30 30 32 32
32 30 32 37 35 37 41 42 41 40 35 30 26 24 23 21 21 25 27 26 23 22 23 23 24 24 25 25 26 26 26 26 25 24 24 24 23 22 28 27 27 26 26
36 33 33 34 36 40 45 44 43 42 39 34 30 26 24 24 24 24 24 26 27 29 30 29 28 26 26 26 26 27 28 28 27 27 27 26 28 29 31 28 26 24 24
40 37 34 32 35 42 45 44 44 44 41 36 33 29 25 26 25 26 26 26 27 30 31 32 33 34 33 33 32 31 31 29 27 27 27 28 32 36 36 34 31 25 22
44 42 40 38 35 41 43 41 42 42 41 38 34 30 26 28 28 29 29 28 28 30 31 32 33 35 36 37 36 34 35 33 31 31 31 31 34 37 38 38 36 33 26
43 43 42 42 39 39 40 38 37 39 38 35 34 30 28 29 30 31 32 33 33 34 36 36 37 38 38 38 38 38 39 39 39 37 35 35 37 39 37 38 38 31 28
49 49 45 43 42 40 38 38 36 36 35 34 32 31 31 29 30 31 33 35 34 33 34 36 36 36 40 43 45 46 45 45 45 45 45 43 43 40 40 40 34 35 31
49 48 48 45 41 37 36 35 34 32 31 31 31 32 32 32 33 33 34 35 36 36 35 35 36 37 37 38 41 46 48 49 50 50 49 50 50 48 43 38 37 35 32
51 49 47 44 41 39 35 34 31 30 29 28 29 30 33 35 37 36 38 40 41 42 42 43 42 40 39 39 39 40 42 43 47 50 52 53 53 54 54 53 45 39 36
53 51 46 43 40 37 34 32 31 29 28 27 29 33 33 36 37 38 38 38 39 40 41 41 41 42 41 43 44 44 45 45 45 46 48 49 52 54 57 58 57 53 44
51 50 44 41 37 35 35 34 33 32 29 28 32 35 34 34 33 33 33 33 33 35 36 36 38 39 40 42 43 47 49 49 49 47 48 48 49 51 54 58 58 60 57
45 45 42 38 36 35 36 37 36 34 30 29 30 33 34 35 36 35 32 31 33 38 39 38 41 43 44 47 48 49 51 53 54 53 52 52 54 54 54 53 54 56 63
40 42 43 41 39 38 38 38 37 35 32 31 32 32 34 35 35 35 34 36 43 49 48 49 50 51 49 53 54 55 58 58 59 61 62 64 61 61 60 59 58 57 59
32 32 34 39 41 40 39 38 37 36 32 32 31 32 33 34 35 41 52 56 54 54 51 45 43 46 50 55 64 66 68 71 70 70 72 75 74 70 69 68 68 65 64
33 32 33 32 32 34 33 33 34 32 32 32 31 32 34 42 46 49 51 46 42 40 43 47 46 50 56 63 66 64 65 70 72 76 78 74 72 71 73 75 76 78 78
34 32 31 31 31 32 33 33 33 31 30 28 26 26 27 29 31 35 38 48 45 42 40 38 37 38 43 51 64 64 65 65 65 65 66 65 68 71 72 76 78 80 84
35 33 31 31 30 30 29 29 28 28 28 28 26 24 25 27 28 30 29 29 29 31 31 32 36 39 41 42 45 55 60 55 56 57 60 66 69 71 72 79 79 80 83
35 34 32 31 28 27 26 25 25 25 25 25 26 25 24 23 23 25 25 26 27 28 30 32 34 34 37 40 42 45 50 53 54 55 63 64 66 70 74 93 83 80 84
34 32 31 30 28 26 24 22 21 21 22 21 21 21 20 21 21 22 22 23 23 26 28 30 34 36 40 45 49 54 56 57 66 76 59 59 66 68 79 85 86 85 91
32 31 30 28 26 24 22 20 20 20 19 19 18 18 19 18 18 18 17 18 18 22 27 35 40 45 48 53 53 44 48 53 55 52 50 51 51 51 54 67 69 85 90

GFSSE_prec_cthk_048.txt.gz
RH
34 32 31 27 27 27 24 24 24 26 26 25 25 25 23 20 21 26 33 32 24 23 21 17 18 23 30 29 31 33 32 28 21 21 19 13 11 12 13 14 15 16 22
33 31 28 26 25 27 27 24 22 22 22 22 22 20 19 21 24 28 19 16 13 11 10 12 15 16 18 21 24 24 22 19 17 15 12 13 15 15 16 16 15 17 23
35 32 29 28 26 28 29 28 25 23 22 20 18 16 17 21 25 28 23 18 14 10 10 12 14 17 17 19 19 19 18 17 15 15 15 15 16 16 17 18 23 26 25
35 30 28 26 30 31 33 32 30 29 25 20 18 16 16 20 24 26 23 20 17 13 13 13 14 16 18 19 20 20 18 18 18 18 17 18 21 21 23 27 34 31 34
36 33 30 28 29 32 34 34 33 33 29 24 18 17 21 22 24 25 25 22 21 16 16 16 15 16 17 19 19 19 21 21 22 21 21 22 26 30 32 36 34 34 36
36 34 35 30 31 31 35 34 35 33 32 30 24 19 26 27 26 26 23 23 21 18 19 19 19 20 20 21 22 24 24 24 24 24 23 22 26 31 33 34 33 34 33
37 33 34 33 32 32 36 38 37 35 31 30 27 24 28 29 30 27 25 23 21 20 21 21 21 21 22 22 23 23 24 25 25 25 24 24 24 29 28 27 27 29 27
37 33 34 32 33 33 38 41 39 37 34 30 27 25 29 33 26 25 26 26 25 25 25 24 23 23 23 24 25 26 27 27 26 26 26 25 25 26 31 28 25 23 21
38 33 32 37 36 35 39 43 41 41 39 34 30 26 25 25 26 28 26 24 25 28 28 28 29 30 29 29 30 30 29 28 27 26 26 27 29 30 35 33 31 26 22
39 35 33 36 37 37 41 44 45 44 41 36 33 30 27 26 26 26 27 26 26 28 29 30 31 32 33 33 33 34 34 33 32 31 30 31 32 35 35 35 35 28 23
42 38 36 35 36 38 41 46 45 44 41 40 34 30 30 29 28 29 28 28 28 29 29 30 30 31 33 34 34 34 36 36 37 37 37 36 37 39 38 37 36 32 29
45 43 41 40 37 38 43 45 42 42 41 40 36 32 28 28 29 29 30 31 32 34 33 31 31 31 31 33 36 39 40 40 42 43 43 44 44 47 46 42 40 34 30
42 42 44 43 42 40 44 44 41 38 39 38 35 32 29 27 28 29 29 30 31 31 32 32 32 33 33 32 33 34 36 38 42 45 47 47 48 53 52 52 46 41 36
45 44 42 41 42 43 44 44 41 40 37 34 33 33 31 30 29 28 29 30 32 33 35 36 36 37 37 37 36 35 35 37 38 39 41 43 46 50 53 49 51 51 45
49 48 48 47 44 42 40 38 37 35 34 31 30 29 29 30 33 34 33 36 39 40 40 40 41 41 41 40 39 39 39 39 39 40 43 44 45 46 46 48 51 53 54
52 51 49 49 47 45 42 38 36 33 31 29 26 27 30 33 36 37 37 38 38 37 37 36 36 36 37 38 41 44 46 46 47 47 47 47 49 49 50 50 50 51 51
54 52 51 50 49 47 44 40 37 35 33 31 29 29 32 35 35 34 34 33 34 34 34 36 40 42 42 45 46 49 50 52 53 54 55 53 54 54 55 55 56 56 54
59 56 54 53 51 48 44 43 40 38 37 35 32 29 30 32 34 34 34 34 35 35 37 44 49 50 50 49 48 48 50 54 56 60 62 64 68 69 70 69 67 65 64
55 55 54 53 49 47 45 45 42 41 40 38 36 32 32 34 34 34 34 34 37 42 51 55 54 53 48 45 47 49 53 57 63 64 65 67 70 74 77 79 76 73 71
46 48 48 47 44 43 43 45 47 49 40 38 35 33 34 34 34 35 35 38 48 55 54 49 48 45 44 44 44 51 57 62 64 67 69 74 77 79 78 75 76 73 71
42 40 38 37 37 37 37 36 35 34 35 35 35 34 33 32 32 34 36 38 41 43 43 44 42 43 41 41 38 38 43 49 54 56 61 65 67 67 69 70 70 73 71
43 39 37 37 37 38 39 39 38 37 36 35 34 33 32 29 29 29 31 34 33 36 39 40 36 35 34 34 38 40 41 40 40 45 52 56 55 56 58 63 69 69 68
45 42 38 36 35 36 36 36 34 33 33 33 35 35 34 32 31 31 31 30 30 31 31 31 33 34 34 34 36 41 43 41 42 43 44 48 48 52 61 62 64 69 72
42 40 40 38 37 35 33 32 30 28 27 26 26 27 28 29 28 27 26 25 26 27 27 29 31 31 33 34 36 36 40 44 50 51 51 50 54 57 63 56 61 66 69
42 40 38 37 36 35 33 30 27 25 24 22 21 22 23 23 23 23 22 22 22 22 22 24 29 30 32 36 40 45 47 52 51 49 45 43 45 47 45 46 44 48 55
44 39 35 34 33 32 30 29 27 25 22 20 20 20 19 19 19 18 19 19 19 19 19 21 27 29 35 46 49 48 44 44 38 39 39 39 41 38 39 39 42 45 49

GFSSE_prec_cthk_051.txt.gz
RH
35 32 30 28 28 26 24 24 26 27 26 25 24 23 20 20 25 30 27 22 21 18 16 19 26 30 34 30 27 30 27 20 15 14 11 12 13 14 14 14 16 23 29
35 33 31 27 28 26 23 22 24 23 22 20 19 18 20 23 22 16 15 14 10 9 10 14 14 17 17 20 23 21 18 15 13 13 14 15 15 15 16 17 19 22 28
37 33 30 26 26 27 26 26 24 23 20 18 16 17 21 24 26 20 18 15 12 10 11 13 15 16 18 19 18 17 16 15 16 16 16 18 18 19 22 31 29 28 30
39 34 29 26 27 30 30 29 27 25 19 17 16 17 21 23 25 23 21 17 13 12 12 14 16 18 19 19 20 18 18 19 20 19 20 24 26 28 34 37 33 35 36
41 37 34 29 30 30 32 31 31 30 24 19 17 20 21 24 25 25 21 19 16 16 16 16 17 18 19 20 20 21 22 22 22 21 21 25 31 34 35 33 31 32 32
42 42 34 33 32 33 34 34 33 31 29 25 21 25 26 26 27 28 21 19 17 18 18 18 18 19 19 20 21 22 22 23 23 23 22 24 30 34 28 28 28 28 28
43 45 38 34 32 33 35 36 35 32 30 28 25 31 31 30 31 25 24 23 21 21 21 21 21 21 22 22 23 24 25 25 24 24 23 23 25 30 30 29 26 24 22
45 46 39 36 32 35 35 39 39 35 32 29 26 29 34 34 28 24 24 24 25 26 26 26 26 26 26 26 26 27 27 27 26 26 26 25 26 28 32 30 28 25 22
44 44 40 39 34 35 38 41 41 39 36 32 29 27 27 26 26 28 26 23 23 26 27 28 28 29 29 30 30 32 33 32 32 31 31 30 30 31 35 34 32 25 23
43 41 41 38 36 36 40 42 44 44 41 37 32 29 27 27 26 26 27 27 27 28 28 28 28 30 31 32 33 33 34 33 33 34 35 36 37 41 41 39 36 28 26
44 40 39 39 38 38 41 43 46 46 44 40 36 31 29 28 27 27 27 27 28 29 30 30 29 29 30 30 32 33 35 36 36 37 37 38 40 44 48 46 45 36 32
46 43 42 41 40 40 42 44 47 44 42 41 38 33 29 28 26 27 28 28 28 30 31 31 30 30 30 31 31 31 32 33 34 35 36 37 40 47 53 49 50 45 43
49 45 43 41 41 41 41 43 45 42 41 40 38 36 31 27 26 26 27 28 29 29 30 31 32 34 34 34 33 33 33 33 33 35 35 35 36 43 49 46 47 48 48
47 48 46 46 44 42 43 46 47 44 41 40 39 36 33 31 29 27 27 28 29 30 33 35 36 35 35 35 36 35 36 36 36 37 37 38 40 42 46 48 45 45 46
47 44 43 40 43 43 43 47 48 46 42 39 36 34 32 30 29 30 30 31 33 35 38 39 38 36 36 38 38 40 43 44 45 44 45 45 46 47 48 48 48 49 49
57 49 46 46 46 44 45 47 44 41 39 37 32 29 30 30 32 35 36 35 35 36 35 35 34 34 38 41 44 44 45 44 44 45 47 49 50 52 53 53 56 58 59
67 57 52 52 52 50 49 46 44 43 40 36 34 31 31 32 33 35 34 34 35 34 35 34 34 37 43 46 46 46 44 44 44 46 49 52 58 61 63 63 62 62 64
70 59 56 53 53 53 52 50 48 45 42 40 38 36 34 32 32 34 34 35 37 37 35 35 39 47 50 47 45 44 45 45 47 52 54 58 59 62 63 66 70 72 71
76 66 55 54 55 55 55 53 50 46 43 44 42 40 38 35 33 33 33 35 37 38 38 40 47 50 48 46 45 43 42 43 44 52 57 63 66 67 67 68 70 69 68
70 69 63 56 58 57 56 53 50 47 48 47 44 42 39 36 35 34 34 35 37 38 40 44 44 45 45 43 41 40 41 38 37 43 46 49 54 56 60 65 66 66 65
62 60 58 56 54 54 51 47 44 41 41 39 38 37 36 36 36 34 33 32 35 36 36 36 37 38 37 40 38 30 28 30 33 35 37 40 44 49 53 57 57 58 61
53 51 50 50 48 45 42 39 38 37 37 37 37 37 36 35 33 32 30 29 29 32 32 33 35 34 32 31 34 35 35 32 33 36 37 39 40 44 49 51 51 53 57
55 54 50 44 42 40 40 39 39 39 39 38 36 35 35 35 35 35 36 36 37 36 33 35 33 33 32 32 32 35 36 35 34 35 38 40 43 47 50 52 52 53 65
59 58 55 51 47 44 40 39 38 37 34 32 29 28 28 28 27 28 28 28 28 27 26 26 27 28 30 31 33 32 34 39 44 46 47 46 43 44 40 41 43 42 42
58 55 51 50 48 46 45 41 38 35 32 30 28 26 24 23 23 24 24 23 23 22 20 21 22 23 25 31 30 34 39 44 44 44 40 39 40 36 39 39 38 38 39
57 53 49 47 45 43 41 40 38 36 34 32 27 24 22 21 21 20 20 19 19 18 19 20 21 21 26 32 36 40 45 46 39 41 40 40 42 38 33 35 38 37 36

GFSSE_prec_cthk_054.txt.gz
RH
36 35 29 28 29 30 27 29 29 28 27 26 24 23 19 26 27 25 19 19 18 22 27 32 35 38 35 28 24 26 17 12 11 12 13 14 14 14 14 16 26 26 23
39 38 31 29 28 30 27 26 26 25 24 22 21 22 20 22 17 15 13 11 9 10 16 19 22 23 19 20 20 16 13 13 14 15 15 15 16 18 24 23 22 24 26
41 37 32 31 31 32 28 24 24 24 20 18 18 20 22 22 19 17 14 12 11 12 14 15 16 17 18 17 17 15 15 16 16 17 20 24 23 30 32 29 29 30 38
43 39 35 31 30 31 30 27 24 21 18 17 18 21 22 24 22 20 16 13 12 13 14 16 16 17 18 18 17 18 19 19 18 19 27 30 31 34 33 31 34 34 32
47 45 39 32 31 33 32 30 28 25 19 18 19 21 23 25 24 21 18 16 16 16 16 17 18 19 20 20 20 21 21 21 21 22 28 32 36 32 31 29 28 30 29
50 48 44 32 32 32 34 32 32 28 25 22 23 23 26 26 25 21 19 17 18 17 17 17 18 19 19 20 21 21 22 22 22 21 22 27 33 31 27 25 24 24 24
51 51 45 38 33 33 35 35 33 31 28 26 31 29 28 30 30 25 23 21 21 21 21 21 21 21 22 23 23 23 24 23 23 23 23 23 27 30 29 28 26 24 21
54 52 50 44 35 34 35 38 36 34 30 27 34 36 35 33 29 25 24 24 25 26 26 26 26 26 27 28 29 29 30 29 29 28 28 28 28 31 32 30 27 24 23
55 54 52 43 38 35 36 39 40 37 34 31 31 31 34 30 29 30 27 24 24 24 25 26 28 29 30 30 31 31 32 32 32 33 33 34 35 36 40 36 30 26 24
55 57 54 46 42 39 37 41 41 42 39 36 33 33 31 30 28 29 28 27 27 28 27 26 26 28 29 30 31 32 32 32 33 34 35 37 38 42 45 45 41 37 33
55 56 53 49 44 43 42 42 44 46 44 39 36 33 32 32 29 28 28 27 27 28 29 29 29 28 27 28 29 29 29 30 30 32 32 34 35 40 46 46 46 44 43
58 55 53 48 45 45 42 41 44 46 46 44 39 35 33 31 29 28 27 27 27 28 29 29 29 29 30 29 29 30 31 32 32 32 32 33 34 38 47 47 45 43 43
59 55 53 49 46 48 43 42 43 44 47 46 44 40 34 30 28 27 26 26 27 28 29 30 31 32 32 31 30 32 33 34 36 36 36 36 36 38 45 47 43 44 43
64 58 54 49 47 45 50 44 44 45 47 48 44 42 38 34 30 28 26 26 27 28 30 30 33 33 32 32 34 38 37 40 41 39 38 39 40 40 41 43 46 47 47
60 58 57 53 51 47 44 44 44 46 48 49 45 42 38 35 31 30 27 26 28 31 33 37 37 37 35 32 36 40 41 41 40 39 40 40 41 43 44 46 49 49 51
62 58 51 49 52 49 44 45 47 48 52 51 44 40 36 33 32 33 34 33 33 34 35 35 35 34 32 33 41 44 43 40 38 39 39 41 45 49 52 51 53 54 56
64 61 55 46 41 39 38 41 48 50 50 45 42 37 33 34 34 34 34 35 34 33 33 33 33 32 33 39 45 45 42 41 40 39 38 42 49 51 53 56 60 59 59
63 67 68 60 51 49 52 51 48 49 47 46 45 41 38 38 37 35 34 35 35 34 34 33 34 34 38 43 44 45 46 43 41 41 41 42 43 49 54 57 58 59 59
63 68 70 70 60 55 55 55 53 52 52 49 46 44 43 42 40 37 35 35 36 35 34 35 37 40 45 46 47 47 46 44 42 40 39 39 40 45 50 53 55 56 59
65 70 72 72 68 61 56 57 56 55 55 52 48 48 49 46 44 41 37 36 38 37 37 38 40 41 42 44 44 40 38 37 35 30 32 32 34 37 42 46 49 51 54
68 71 70 72 72 67 62 61 59 57 56 54 52 48 45 43 40 37 35 35 35 33 34 37 38 37 37 37 38 34 33 31 32 33 31 32 35 36 39 42 46 49 52
68 68 65 65 67 66 64 59 56 52 49 47 44 41 40 39 39 38 36 35 35 35 35 37 38 38 36 36 37 36 36 36 35 31 31 30 32 36 39 41 44 48 50
62 62 64 62 61 62 61 57 54 51 46 43 42 41 39 37 36 35 34 33 35 37 37 38 39 39 37 35 32 36 38 37 38 35 31 36 41 43 43 44 44 42 41
63 60 60 60 60 57 55 53 50 47 44 42 40 37 35 33 30 29 27 29 30 29 29 28 27 27 28 28 28 30 34 37 37 38 40 41 37 36 36 37 38 36 36
65 62 62 60 58 55 54 55 51 45 41 38 35 33 32 30 28 25 26 26 23 23 23 22 21 20 20 23 26 32 33 34 40 45 48 44 38 37 38 35 35 35 37
66 68 64 63 62 60 59 55 52 49 46 45 39 34 32 29 27 27 27 22 22 21 20 20 19 20 21 23 25 35 36 41 43 48 48 44 44 38 38 34 32 35 37

GFSSE_prec_cthk_057.txt.gz
RH
40 32 29 28 28 28 29 38 34 32 27 25 24 20 27 29 24 18 17 21 28 37 45 51 49 42 32 21 20 13 10 11 13 13 14 14 16 17 20 24 27 24 24
42 32 28 26 27 28 29 30 30 28 26 23 22 20 31 21 14 12 10 10 14 23 27 25 26 24 18 17 13 12 13 14 15 17 18 21 28 26 24 26 27 33 39
43 35 29 27 29 29 29 28 26 25 22 19 21 26 21 18 16 13 11 10 12 14 14 14 16 17 15 15 14 16 16 17 20 25 27 31 33 29 28 31 32 39 32
43 38 35 30 29 28 27 24 23 23 18 18 21 26 25 22 19 15 13 12 13 14 15 16 17 17 17 17 18 19 19 19 23 29 33 34 31 31 30 29 27 26 25
47 44 38 33 30 28 28 27 24 20 18 19 21 24 28 25 22 19 17 16 15 16 17 18 19 19 19 19 19 20 20 20 21 27 29 30 30 26 24 23 22 22 21
52 50 43 36 32 31 29 30 29 24 21 20 22 24 27 25 23 20 18 17 16 16 16 17 18 19 19 20 20 20 20 21 22 23 28 28 30 28 25 24 22 20 19
58 55 49 43 35 32 32 31 28 27 25 27 26 26 29 30 26 24 22 22 21 20 20 21 21 22 23 23 24 25 25 25 27 25 26 28 28 31 29 26 23 21 21
61 54 50 48 41 35 33 33 32 30 27 32 34 34 33 32 26 25 24 24 24 24 24 25 26 26 27 27 27 28 28 28 32 29 30 30 31 33 34 32 28 25 23
64 60 53 52 49 42 36 35 34 33 30 32 37 39 36 32 29 28 26 24 24 23 24 25 26 27 27 27 28 28 29 29 31 30 35 36 34 36 39 37 36 35 34
66 64 58 55 52 43 40 38 37 36 34 33 35 36 33 30 30 29 28 27 27 27 27 27 27 26 26 26 26 26 27 26 28 29 34 31 32 35 41 42 42 40 39
68 66 63 57 57 49 45 42 40 39 38 36 34 34 34 37 30 31 28 27 28 29 29 29 29 28 28 28 27 28 27 29 30 31 33 31 31 32 38 42 41 40 38
70 66 63 61 59 54 49 44 40 42 42 41 38 34 38 39 38 36 29 27 26 28 29 29 29 28 29 29 27 27 28 30 33 34 35 34 32 33 37 42 41 39 39
70 67 64 63 59 55 51 46 43 43 44 46 47 43 40 38 32 30 30 27 26 27 28 28 29 29 32 31 30 30 32 34 36 36 35 32 31 32 33 40 39 39 41
70 63 59 59 60 57 55 48 46 44 46 46 48 48 44 39 34 36 34 33 29 31 33 33 34 36 36 34 35 33 34 37 39 37 34 35 35 35 35 38 39 40 42
71 67 65 64 60 58 56 53 48 49 46 48 49 49 48 44 38 35 33 31 30 30 32 35 38 38 38 35 33 33 38 41 40 36 36 34 36 38 39 43 42 45 47
72 71 70 67 64 58 55 54 50 50 48 50 50 50 51 47 41 35 36 34 33 34 37 37 37 37 36 35 33 36 40 40 38 38 37 36 36 39 41 44 47 48 50
64 67 69 66 64 63 57 55 52 51 49 52 52 55 47 44 41 38 38 39 38 37 36 36 36 35 35 35 36 39 40 41 43 44 42 40 39 37 40 41 44 48 51
57 55 56 58 59 56 52 47 46 48 49 53 57 50 46 43 41 43 42 41 39 37 36 36 36 35 35 38 41 45 48 47 48 45 42 44 41 37 38 39 44 46 47
58 55 54 55 61 60 55 47 46 49 54 53 53 53 52 48 44 43 44 43 41 39 37 37 36 37 39 42 43 42 46 45 44 39 37 35 34 34 33 35 36 41 45
59 59 55 59 65 67 69 60 53 52 54 56 56 57 55 53 52 51 50 47 43 42 39 41 43 47 49 45 41 39 39 37 35 32 34 34 36 35 33 33 36 39 42
62 63 59 59 64 66 69 69 60 56 58 60 60 59 57 55 54 49 44 42 42 41 42 39 41 41 41 42 42 38 37 36 35 36 38 37 35 32 30 32 35 39 41
63 66 65 64 65 64 68 70 71 71 66 67 65 60 55 52 49 47 45 44 43 43 42 43 43 47 47 51 51 50 44 34 35 37 35 33 32 34 38 40 42 42 43
64 68 70 72 70 70 69 69 69 68 65 60 58 53 50 46 45 44 42 40 38 38 35 34 40 43 42 40 38 39 42 34 38 40 37 33 34 41 42 37 36 36 37
64 64 67 69 65 63 62 62 62 64 65 63 58 52 50 46 41 38 36 33 30 29 26 27 29 28 29 32 33 31 32 37 36 37 35 40 42 45 41 39 36 36 35
67 65 66 64 64 64 65 67 67 65 64 59 53 52 48 42 38 35 32 30 29 26 24 25 27 23 23 23 27 30 31 32 39 42 43 47 46 44 43 41 37 35 30
68 67 68 67 66 66 67 66 66 62 57 54 53 53 49 41 39 37 32 29 28 25 25 28 22 22 23 23 23 31 35 33 45 43 47 48 46 46 41 40 37 32 30

GFSSE_prec_cthk_060.txt.gz
RH
41 30 29 29 29 31 35 34 34 31 25 22 20 27 31 21 15 18 26 36 46 53 56 54 49 37 18 16 10 11 12 13 13 15 20 23 21 21 24 25 30 34 33
37 31 28 28 27 28 29 29 28 25 22 20 25 34 19 13 11 9 14 23 30 33 33 28 24 16 13 11 12 13 15 19 20 23 27 29 25 25 27 31 38 33 29
35 30 27 27 28 28 27 25 22 20 18 19 26 18 16 14 11 10 10 13 17 23 21 16 15 13 13 14 16 16 18 24 26 26 29 32 28 27 31 26 24 23 25
35 33 29 28 28 25 22 20 20 17 17 19 26 21 19 17 14 12 12 13 15 15 15 15 15 15 16 17 17 18 19 24 27 28 32 28 26 27 24 22 22 22 20
42 38 35 31 28 25 23 20 17 16 17 20 25 24 22 20 17 16 15 15 16 16 17 17 17 17 17 18 18 18 19 21 26 27 29 29 28 25 24 23 22 21 20
49 45 42 36 31 29 27 24 20 17 18 20 23 26 23 20 18 17 17 16 16 16 16 17 17 18 19 20 21 21 23 24 24 26 30 32 31 29 27 25 22 21 20
52 50 48 43 35 30 29 27 24 23 23 23 25 28 26 24 22 20 20 19 19 19 20 20 21 22 23 24 25 25 26 26 27 27 28 29 30 32 32 29 28 26 24
56 53 49 48 45 34 30 27 27 25 27 29 31 34 31 26 23 22 23 23 23 23 23 23 24 25 25 26 26 26 26 28 28 28 32 31 32 33 34 33 34 34 33
64 55 50 52 48 43 36 31 29 27 31 32 35 37 35 28 27 26 25 24 24 23 23 23 23 24 24 25 24 25 24 24 24 26 30 29 30 32 34 35 34 35 35
67 59 54 52 50 47 41 37 30 28 30 37 39 38 33 30 30 29 27 27 27 27 27 27 27 27 26 26 26 26 26 26 26 29 32 32 32 32 34 37 37 35 34
71 64 63 57 54 51 46 41 36 32 29 33 37 36 34 32 30 32 30 28 28 28 28 28 28 27 27 27 27 26 25 26 29 31 32 32 30 28 33 36 39 38 36
75 71 68 64 58 56 50 44 40 36 33 32 33 36 36 41 36 32 31 29 28 27 28 28 28 28 27 27 28 28 27 29 30 32 33 31 28 28 29 33 36 37 37
76 72 72 68 63 57 55 50 43 39 38 39 39 36 42 42 37 34 31 29 27 25 26 27 27 27 27 30 31 30 29 28 33 35 33 32 31 30 30 30 32 36 38
83 75 74 73 65 62 58 57 50 41 42 41 42 42 43 41 37 35 35 30 26 25 25 29 28 33 35 34 34 30 28 31 35 34 33 33 33 33 33 33 35 37 40
82 75 73 70 64 60 57 57 53 45 44 43 43 41 44 45 43 37 35 32 29 29 29 31 33 35 35 35 33 30 30 33 34 34 35 36 36 35 35 37 36 36 38
78 81 74 68 64 60 58 60 58 49 50 46 43 41 43 48 47 40 37 32 30 30 31 33 33 35 34 33 32 32 33 36 38 38 39 38 37 35 38 39 39 39 39
76 75 73 74 71 66 60 60 58 55 51 50 46 43 44 49 47 42 41 39 37 35 34 34 33 32 32 32 32 33 36 40 43 42 43 39 35 32 33 33 36 40 42
69 71 72 71 69 70 66 63 62 57 53 51 47 44 48 46 44 46 45 43 44 43 39 37 36 35 35 36 40 43 45 42 44 42 41 37 36 36 33 32 33 36 40
60 65 66 63 62 58 56 56 58 57 53 48 46 49 48 47 48 49 48 49 49 49 47 43 42 41 44 47 47 44 46 43 40 35 32 31 31 35 39 40 35 35 37
57 58 59 54 53 53 51 51 56 54 49 47 51 48 49 52 53 54 53 53 51 49 44 45 46 48 45 43 44 47 44 44 42 40 35 33 34 35 35 33 32 33 35
61 59 59 55 55 56 56 57 62 62 63 62 52 52 54 56 58 58 56 54 50 47 46 47 49 51 46 49 46 51 49 46 44 38 32 36 38 35 32 34 39 41 42
63 64 63 58 56 57 59 61 64 66 67 70 71 63 59 61 62 57 54 51 48 48 46 45 45 44 44 42 47 51 44 33 29 30 33 37 35 34 36 39 40 39 37
66 69 72 68 63 62 61 62 64 64 71 73 75 72 68 61 59 55 53 50 47 46 44 41 39 37 37 39 44 47 44 39 35 37 41 36 34 36 41 43 40 33 33
65 65 72 74 76 70 68 64 65 68 73 71 69 70 66 64 60 56 52 49 43 39 35 32 30 29 30 29 34 38 34 41 38 38 38 40 41 42 48 47 42 39 34
62 65 65 71 76 75 75 69 66 67 68 66 67 67 65 64 58 51 49 47 42 37 35 33 31 31 29 27 31 30 31 32 36 40 39 45 50 51 50 45 44 39 37
65 66 66 64 67 70 68 67 66 65 66 66 66 66 60 55 52 50 49 49 45 40 38 37 34 33 33 32 33 32 32 31 35 39 41 52 52 55 55 47 43 39 36

GFSSE_prec_cthk_063.txt.gz
RH
42 31 32 32 34 33 37 35 29 23 19 20 31 24 18 16 24 37 45 52 52 48 50 50 38 15 10 11 12 13 15 19 22 23 23 23 24 27 31 32 31 26 28
40 32 30 30 31 33 31 29 26 20 20 25 27 16 11 9 16 27 36 46 45 43 33 21 13 10 12 13 16 21 21 22 23 24 24 24 26 30 27 26 22 26 27
37 32 30 28 29 29 27 24 21 18 21 28 17 12 11 10 10 13 21 26 27 21 14 12 12 14 15 16 19 24 25 25 26 24 24 24 24 23 21 20 20 19 20
34 31 29 29 28 24 22 20 18 17 20 18 16 15 13 12 11 13 13 12 12 13 14 14 15 17 17 17 18 21 22 25 26 25 25 25 23 21 20 20 19 19 19
37 35 32 30 26 23 20 18 16 17 21 20 20 18 16 14 14 14 15 15 15 16 16 16 17 17 17 18 18 20 22 25 28 29 29 27 28 27 26 24 23 21 20
43 41 38 32 29 25 21 17 16 17 19 21 22 19 17 16 16 16 15 16 16 16 16 17 18 19 21 21 22 23 24 24 25 27 28 29 31 31 29 28 28 28 27
48 48 46 40 33 29 25 21 19 19 19 22 23 21 20 19 19 18 18 18 18 19 20 21 22 23 24 24 24 25 25 25 26 27 27 28 29 31 29 29 30 31 32
53 52 50 46 40 33 28 24 23 24 25 27 29 27 25 22 21 21 21 21 21 21 21 22 24 24 24 24 23 24 24 24 25 27 28 29 30 31 32 32 31 31 31
60 55 51 50 46 43 32 27 24 26 28 31 34 32 27 26 25 25 24 24 24 24 24 25 25 25 25 25 25 25 25 25 26 28 30 31 31 31 32 34 34 32 31
69 61 53 53 50 46 42 34 26 27 30 33 36 32 29 29 28 28 28 27 26 26 26 27 27 26 26 26 26 25 25 25 27 30 30 30 29 28 29 32 35 36 32
75 67 58 55 52 49 46 43 33 27 31 35 37 36 32 31 31 31 29 29 28 27 27 27 27 27 27 25 25 26 27 26 28 28 30 30 28 28 27 29 31 34 33
78 75 64 63 58 53 47 43 41 32 28 30 33 33 34 35 33 32 32 29 28 27 26 27 26 26 25 25 26 29 28 26 26 30 32 30 31 31 29 28 28 33 34
85 80 74 71 65 60 52 46 43 40 32 30 28 30 36 37 37 34 33 30 27 25 24 24 25 26 25 27 30 31 28 25 28 31 31 31 35 35 34 31 30 31 33
87 89 80 75 71 68 60 51 47 46 41 36 35 33 35 36 38 37 34 32 28 26 25 25 24 26 31 32 31 29 27 26 28 32 32 34 36 37 36 34 34 33 33
87 88 78 75 77 74 70 61 56 53 50 44 41 40 38 38 36 38 38 34 30 27 25 26 28 29 30 31 30 29 29 29 30 33 37 38 39 39 38 36 36 35 34
91 88 83 79 82 84 75 64 60 55 54 51 48 42 40 38 37 40 41 36 33 30 28 29 31 32 32 31 32 32 31 32 33 37 37 38 37 35 34 36 35 35 36
82 86 81 80 80 77 71 65 62 57 58 58 54 48 41 39 38 42 40 40 40 36 36 36 36 35 34 33 34 37 42 45 46 45 42 43 42 41 39 40 36 36 38
83 79 84 84 80 78 73 71 67 65 60 56 57 52 44 40 40 41 43 45 46 44 43 44 43 40 39 39 39 43 42 44 47 47 47 48 47 44 39 37 39 39 36
64 73 78 77 77 78 75 73 70 68 64 58 60 54 48 45 39 43 46 49 52 51 50 47 43 43 45 46 46 45 45 46 50 46 48 48 47 38 38 38 35 33 33
67 62 64 66 69 71 66 62 58 58 57 60 61 55 54 47 44 45 49 53 56 57 56 52 50 49 48 46 46 45 45 43 44 46 42 39 39 39 37 36 33 33 37
62 64 70 63 59 59 57 51 48 47 50 53 59 60 61 61 53 52 53 57 61 57 56 54 50 50 48 46 44 41 39 38 42 39 34 36 39 37 39 37 33 37 40
62 64 67 65 66 67 60 57 55 55 54 58 63 69 72 74 72 67 62 60 57 55 53 51 50 49 47 45 45 39 40 38 40 39 35 36 39 42 41 35 34 39 40
62 64 66 68 69 68 65 61 60 61 63 67 65 68 69 74 73 72 69 64 62 59 55 53 51 46 43 40 39 40 44 44 41 41 39 41 42 40 39 37 38 41 41
62 63 66 69 70 72 69 71 66 64 64 66 67 70 78 74 69 70 68 67 65 58 52 48 45 42 37 36 36 35 41 45 47 43 36 38 38 36 41 44 43 45 41
64 63 63 68 75 77 82 82 83 80 81 78 76 72 70 73 68 65 64 59 55 52 50 46 47 44 40 38 37 36 36 37 39 41 39 36 43 47 51 45 49 49 45
61 63 63 65 72 72 75 77 81 80 79 81 75 74 70 70 68 62 59 58 55 53 51 48 46 43 41 38 35 35 36 36 35 35 38 43 46 54 54 55 51 49 48

GFSSE_prec_cthk_066.txt.gz
RH
38 36 37 34 34 36 32 29 26 20 24 34 25 19 22 35 43 52 50 49 51 51 49 43 18 9 10 12 13 17 21 21 20 21 21 24 29 27 24 22 24 26 26
35 35 34 35 34 35 33 29 22 21 35 32 14 10 16 28 41 49 50 51 49 45 32 12 10 11 14 17 18 20 21 22 21 21 22 24 22 20 19 18 19 21 26
37 35 33 33 34 34 30 24 20 28 33 19 11 9 10 21 31 39 42 36 27 16 11 11 13 15 18 20 21 22 22 23 23 23 23 21 20 19 18 19 19 19 20
36 35 33 33 32 30 27 21 19 31 25 15 12 10 9 11 16 22 23 19 14 13 14 15 16 16 18 19 20 24 25 27 27 25 26 26 25 25 25 24 23 22 21
37 33 32 33 29 26 22 18 18 23 17 15 13 12 12 12 13 13 13 14 15 16 16 16 17 17 18 20 22 24 25 26 28 27 28 29 29 27 26 26 26 26 26
38 36 35 32 28 23 19 17 19 21 20 19 15 15 14 15 16 16 16 16 16 16 16 18 19 21 22 23 24 24 24 24 25 24 25 26 28 27 27 27 28 28 28
42 41 39 35 29 24 19 18 19 21 21 20 17 16 16 16 16 17 17 18 18 19 20 21 22 23 23 23 23 23 23 23 25 26 27 28 30 30 29 29 29 29 29
47 50 49 42 33 27 23 21 21 22 24 24 20 19 18 19 19 19 19 19 19 19 20 21 21 22 22 23 23 24 25 25 26 27 29 29 29 29 29 30 30 29 29
54 55 57 48 42 35 28 24 26 27 29 31 28 26 24 23 23 23 23 22 22 23 24 24 24 24 24 24 25 24 25 24 26 28 29 29 27 27 29 31 32 34 30
60 60 56 52 48 44 38 29 27 29 32 35 33 28 28 28 27 27 26 26 25 25 25 25 26 26 26 25 24 25 26 26 26 27 28 30 28 28 29 30 30 32 32
70 64 57 56 53 49 45 40 33 30 31 34 34 31 30 30 31 30 30 29 27 25 25 25 25 25 24 23 24 26 27 26 24 27 30 32 30 31 32 30 29 30 32
75 69 64 59 57 54 51 46 41 38 32 34 33 32 32 33 33 33 33 31 29 27 25 24 24 24 24 24 26 28 30 26 24 27 31 32 33 33 35 34 32 33 33
89 75 71 65 62 59 54 49 45 41 41 38 33 31 31 34 35 34 34 32 30 27 26 25 24 24 25 27 29 31 29 26 25 26 30 33 35 36 37 35 34 34 36
97 91 76 69 68 68 62 55 50 47 42 39 34 31 30 31 34 34 35 34 31 28 25 25 25 25 28 30 30 28 27 27 28 29 31 35 37 40 40 36 35 39 35
89 95 91 79 72 72 68 65 61 54 51 48 46 41 35 34 34 34 35 38 34 31 28 27 27 28 29 29 29 28 29 29 30 33 37 37 38 41 39 37 36 34 35
76 85 95 84 82 76 75 71 68 62 57 54 54 51 47 40 37 35 35 41 37 34 33 33 33 33 32 32 31 31 33 37 43 44 45 42 45 48 48 43 41 38 35
80 80 90 91 93 85 85 79 75 67 62 59 56 54 52 47 41 37 36 40 41 41 39 38 39 41 39 37 38 39 40 41 42 46 50 48 49 51 50 47 39 41 42
76 81 84 81 89 88 84 82 78 73 63 62 60 58 53 50 45 41 39 40 46 48 48 47 46 44 41 41 41 43 46 45 45 44 47 48 50 49 46 38 37 39 35
76 75 72 77 84 83 82 80 76 76 72 69 68 64 57 53 50 44 42 44 48 50 53 51 52 49 48 48 47 46 46 44 40 40 40 47 51 46 39 34 35 36 34
75 74 74 82 89 87 84 85 84 79 75 70 66 60 61 57 56 51 44 46 49 52 55 57 55 54 52 51 49 43 45 42 42 35 36 40 46 46 39 37 39 36 33
71 77 77 80 82 81 77 75 73 66 63 58 56 53 54 56 62 57 53 52 52 54 57 57 58 55 53 52 50 48 43 43 39 38 34 35 40 44 44 45 46 37 36
65 71 75 81 83 78 73 69 61 59 56 57 54 55 54 60 63 66 71 71 74 67 57 59 60 59 57 56 53 50 44 38 39 37 35 34 42 46 51 47 42 38 40
66 64 66 71 74 73 75 79 77 71 67 62 61 60 62 66 66 71 74 76 74 72 70 63 61 58 56 53 52 50 49 44 43 45 43 46 49 51 49 45 38 42 44
65 65 67 68 70 72 76 82 83 82 81 78 73 74 70 71 72 73 72 74 72 70 70 65 63 57 53 47 45 44 44 47 48 50 44 44 45 46 42 41 43 46 46
63 68 67 74 77 78 79 78 80 83 87 88 87 81 86 85 86 87 86 78 73 68 61 56 54 53 51 48 46 43 42 41 42 45 42 38 44 42 42 44 47 50 51
56 63 63 68 76 75 78 78 81 87 86 85 85 87 87 85 85 85 82 77 65 61 58 57 57 55 51 48 47 45 43 43 40 40 41 40 43 47 49 50 54 52 60

GFSSE_prec_cthk_069.txt.gz
RH
41 40 40 36 36 37 30 27 21 24 32 25 24 26 39 45 45 45 54 59 62 58 48 26 13 10 12 15 18 19 19 19 19 22 24 22 20 17 17 21 22 28 31
38 37 39 38 37 37 32 25 22 29 36 22 19 26 38 42 50 49 47 50 48 40 20 11 11 14 17 18 19 19 19 19 20 22 21 19 18 17 17 18 20 25 26
39 38 37 38 41 41 32 22 23 37 29 12 11 22 35 43 47 45 45 42 30 13 11 13 15 17 18 18 19 20 22 23 24 24 22 22 22 23 23 23 22 22 23
40 39 37 38 40 36 29 21 27 31 17 11 9 17 28 36 40 37 27 19 11 12 14 15 16 16 17 19 21 23 24 24 24 25 25 25 25 24 25 25 25 25 25
42 40 39 38 36 30 24 24 29 23 14 12 10 10 16 22 23 21 16 14 14 16 16 16 17 19 19 20 21 23 24 24 24 23 23 25 25 25 26 26 27 27 26
44 40 39 40 34 27 21 22 25 18 15 13 12 12 12 13 14 15 16 16 16 17 18 19 19 21 21 22 21 21 21 21 23 24 26 27 28 28 28 28 28 28 28
46 45 39 38 33 26 20 20 25 19 17 15 14 14 15 15 16 16 17 18 19 20 20 20 20 20 20 20 21 23 23 23 25 26 27 27 27 27 28 29 30 28 27
48 46 42 39 33 26 21 22 24 22 19 16 15 16 16 17 18 19 19 20 20 20 21 20 21 21 22 22 23 23 24 23 24 26 27 26 26 25 27 28 30 30 28
51 49 45 42 36 28 25 24 26 27 23 21 19 19 19 20 20 21 21 22 23 24 24 24 23 23 23 22 22 23 24 25 25 25 26 27 27 27 27 28 28 28 28
60 55 52 50 42 36 30 29 30 32 33 31 27 25 25 26 25 25 24 24 24 25 25 25 24 24 23 22 22 23 24 25 24 24 27 28 31 30 30 31 30 29 29
67 64 59 55 50 44 38 34 33 34 37 37 34 30 29 29 30 29 29 28 27 26 25 25 25 24 23 23 23 25 26 26 23 24 26 28 30 32 33 33 33 31 31
73 68 64 57 55 50 46 41 40 36 37 37 34 34 33 33 32 32 32 31 29 27 26 25 25 25 24 24 25 28 29 28 25 25 26 28 31 34 35 37 35 36 35
87 79 72 64 59 56 52 47 46 43 41 39 36 33 32 34 34 35 34 33 32 30 27 26 26 26 26 27 30 31 30 28 27 28 28 31 34 34 36 39 38 39 38
91 93 84 76 67 63 58 53 47 48 46 47 44 39 32 34 34 34 35 35 35 31 29 27 27 27 28 31 32 31 29 28 29 30 34 39 41 40 42 41 40 36 35
70 94 95 88 78 71 66 61 57 53 48 48 48 43 39 37 36 34 33 35 39 35 33 31 30 32 33 33 32 31 30 30 34 39 42 43 43 45 47 51 48 40 36
67 78 86 91 91 83 72 69 67 64 59 53 51 50 47 45 43 40 35 34 38 39 37 36 36 37 38 37 36 36 36 38 39 42 43 46 49 47 49 48 51 41 34
76 78 75 80 97 90 81 77 72 71 68 64 58 56 56 54 48 45 41 37 38 40 41 42 42 43 42 42 40 41 41 42 44 44 43 43 45 45 46 46 48 40 36
81 85 83 81 76 85 90 86 88 83 76 69 67 63 60 57 53 47 46 39 40 41 46 47 48 48 48 47 46 45 44 47 46 43 43 42 50 43 46 48 47 39 38
77 88 93 83 75 80 85 88 85 89 86 78 69 67 65 62 60 51 48 46 43 43 47 50 53 52 50 50 50 50 49 47 46 41 41 40 42 41 43 46 41 40 40
77 75 80 85 77 82 83 87 89 86 87 80 76 77 78 71 66 59 54 54 50 47 49 50 53 56 57 56 53 52 48 45 45 42 40 40 40 40 40 42 41 44 42
79 81 85 87 86 87 88 90 91 88 85 80 83 80 72 67 62 59 59 59 58 54 53 57 56 59 62 60 58 54 53 49 48 42 39 37 37 39 44 44 46 50 48
72 80 79 82 84 81 82 80 86 83 82 75 68 67 64 65 65 60 63 62 64 71 72 70 68 64 63 64 62 60 55 51 48 47 44 43 41 44 46 50 53 49 44
60 69 78 78 75 76 71 72 80 77 77 76 72 70 70 69 70 69 72 72 70 75 76 75 76 73 72 63 60 61 61 53 49 48 49 47 46 48 49 54 52 48 45
58 63 74 78 84 78 80 87 87 82 83 84 81 80 71 74 75 85 85 82 83 83 77 74 70 69 66 62 59 56 51 51 53 51 49 51 52 49 48 48 46 47 51
53 55 66 74 77 83 79 79 84 89 90 92 86 90 88 88 88 91 90 91 86 82 80 82 73 63 60 59 59 58 52 49 49 49 51 49 52 48 48 46 45 49 53
51 53 57 64 71 76 74 74 75 80 83 90 88 95 89 86 87 92 91 90 88 87 86 73 63 64 64 63 63 60 57 54 51 50 50 50 51 50 50 48 48 52 53

GFSSE_prec_cthk_072.txt.gz
RH
42 42 41 36 35 34 29 26 20 26 28 26 20 17 18 24 34 45 62 67 63 58 32 18 13 12 15 16 16 17 18 19 22 20 18 17 17 17 17 23 25 26 30
40 42 41 35 34 34 28 23 25 35 26 24 33 43 46 51 45 53 57 56 51 29 17 12 13 16 17 17 17 18 19 21 21 20 20 20 20 20 21 22 22 24 27
43 42 41 38 38 40 29 22 29 38 24 21 33 41 45 51 50 46 47 44 26 15 12 15 17 17 18 19 20 20 22 22 22 23 23 22 23 23 23 23 24 24 26
44 42 41 41 42 40 29 23 36 31 15 15 28 40 50 49 44 44 36 20 11 13 15 16 17 18 19 20 21 22 22 22 22 21 22 21 22 24 24 24 24 25 24
47 44 42 44 40 35 25 26 34 23 13 13 21 33 40 40 36 25 17 13 15 16 16 18 19 20 20 21 21 21 20 20 20 21 23 25 25 25 25 25 26 26 27
51 47 46 46 41 32 23 32 28 17 13 11 17 24 29 28 22 18 15 16 16 17 19 20 21 21 20 19 19 20 20 21 21 23 25 25 25 25 25 26 27 26 26
55 49 48 50 40 30 25 34 26 17 14 12 12 13 17 17 16 16 17 17 19 20 20 20 20 20 20 21 21 21 20 20 21 23 24 25 24 24 25 27 28 28 27
56 50 49 48 38 30 26 32 24 20 16 14 14 14 14 15 16 17 19 20 20 20 20 21 21 22 22 22 22 22 22 23 23 23 24 25 25 25 27 27 27 27 27
58 51 51 48 36 28 27 35 31 23 18 16 15 15 16 17 18 19 20 22 23 23 24 24 24 23 23 22 22 22 23 24 22 23 25 26 27 28 28 28 28 29 29
62 56 54 44 37 29 27 33 37 27 23 20 19 19 19 21 22 23 23 23 24 24 24 25 24 23 23 22 22 23 25 25 22 22 25 27 27 28 30 32 31 31 31
67 63 57 46 39 32 30 33 38 42 33 29 26 25 26 26 26 27 28 27 27 26 26 25 24 24 23 23 23 25 27 27 24 24 24 25 27 29 31 32 33 34 36
73 69 58 51 43 39 35 35 39 43 44 38 33 31 31 30 31 31 31 32 31 29 28 26 26 25 24 24 24 27 29 27 26 26 26 27 29 33 35 36 37 38 37
77 74 68 58 54 48 42 39 39 41 45 41 36 34 34 34 34 34 35 35 34 32 29 28 27 27 26 25 27 30 30 28 27 28 30 35 38 40 41 40 39 40 37
90 81 78 71 63 58 51 46 45 44 46 45 39 35 34 34 34 35 36 36 37 36 32 30 28 28 29 31 33 33 31 30 30 33 37 40 40 43 42 44 48 49 46
96 92 90 81 75 68 62 55 50 50 50 50 49 47 42 38 38 37 36 35 35 38 36 33 32 32 33 36 36 35 34 35 36 40 41 43 44 43 44 41 44 46 46
88 88 87 88 84 80 74 68 62 56 55 56 59 55 47 44 44 44 40 36 36 35 40 38 37 37 38 38 39 38 39 41 42 42 44 44 43 43 43 43 46 46 43
80 82 83 77 78 87 83 78 73 69 66 64 59 56 55 53 54 52 49 44 41 38 38 42 43 44 44 43 43 43 43 44 42 44 42 43 43 41 48 43 47 46 41
85 85 82 79 81 85 87 88 90 84 77 74 72 73 67 63 60 57 52 50 47 45 43 42 48 49 50 48 46 45 44 45 44 43 44 40 39 39 44 44 46 49 39
81 81 85 85 85 82 85 90 91 89 90 87 87 81 75 69 66 62 58 53 49 51 52 50 51 54 53 51 51 54 52 48 45 43 45 42 43 41 42 42 41 45 44
79 78 80 82 81 84 92 92 89 85 92 90 90 87 80 70 69 69 65 60 56 56 56 56 52 56 56 55 56 56 54 50 50 48 49 46 45 45 44 46 48 48 48
80 71 74 78 81 80 78 83 83 91 87 86 83 88 81 78 85 85 77 65 59 60 63 61 59 59 57 57 58 57 57 55 52 49 47 45 44 45 44 49 48 49 54
71 74 90 95 91 80 77 79 82 83 83 83 85 88 91 90 85 80 72 68 61 62 65 65 69 63 63 69 70 68 57 57 54 54 53 51 48 47 49 50 46 52 52
72 78 81 81 78 92 95 90 93 85 81 90 91 89 84 73 70 70 68 76 71 66 69 70 71 74 75 76 74 72 71 64 60 59 56 53 51 49 49 51 49 48 47
59 62 69 78 81 85 90 91 99 97 96 98 97 97 93 86 77 72 77 82 88 88 89 88 85 80 75 75 69 65 63 61 59 57 56 55 53 52 53 53 52 51 46
50 54 58 61 73 77 71 77 81 85 87 84 87 89 96 95 90 85 86 89 92 94 92 89 87 83 81 82 65 63 60 59 61 59 57 54 55 55 56 56 53 53 50
51 52 53 55 57 64 72 80 80 83 86 89 89 87 86 88 90 90 95 93 92 92 89 91 90 89 83 68 66 62 64 63 62 62 63 59 57 56 59 60 59 57 55

GFSSE_prec_cthk_075.txt.gz
RH
46 46 46 43 38 34 31 27 21 24 25 25 13 11 16 26 35 37 57 62 61 46 27 18 15 15 15 16 16 18 18 19 17 17 16 17 17 19 21 23 25 26 24
43 44 47 43 35 32 28 24 24 27 25 26 19 14 23 28 36 53 63 62 48 28 19 14 15 16 16 17 19 19 19 19 19 19 18 19 20 21 21 21 23 25 32
47 45 47 41 35 34 28 22 30 27 25 40 48 48 42 45 51 54 53 45 24 17 16 15 17 18 19 19 20 21 21 21 21 20 19 20 21 21 22 21 21 22 23
49 48 46 45 40 39 27 25 35 26 25 40 50 52 61 54 49 47 42 24 17 15 16 18 19 19 20 21 21 21 20 19 20 20 20 22 23 24 23 23 23 24 23
53 49 47 48 46 40 26 29 36 19 20 35 50 58 65 49 46 38 20 14 14 16 18 19 21 21 21 21 20 20 20 20 20 22 23 24 24 24 24 24 24 24 24
56 51 48 51 47 38 25 34 32 18 15 27 45 54 60 40 29 17 13 16 16 18 19 20 21 21 21 21 20 20 21 21 21 22 24 24 24 24 24 25 25 24 24
60 55 51 56 48 34 28 36 28 17 15 20 33 40 36 27 20 17 16 17 18 19 20 20 20 21 21 21 22 21 21 20 21 22 24 25 25 24 24 25 25 24 25
62 59 57 62 47 32 36 35 27 18 15 18 23 28 25 20 17 17 18 20 20 20 20 20 22 23 23 22 21 22 22 22 21 22 23 25 26 25 26 26 26 26 27
64 60 59 64 49 33 40 35 26 20 17 16 16 18 19 17 17 19 20 20 21 22 23 23 23 23 23 23 21 22 23 23 21 21 23 24 25 26 27 28 29 28 30
69 63 58 63 45 33 35 36 31 24 21 19 18 17 18 18 19 20 22 23 23 24 24 24 25 24 24 23 22 23 24 24 22 22 22 23 24 26 28 29 30 31 33
74 66 62 56 43 32 31 41 36 29 25 20 19 19 20 21 22 23 24 26 26 26 26 25 25 25 24 23 23 25 27 26 24 24 24 25 26 29 33 34 35 36 38
83 77 62 56 43 34 32 40 40 35 29 27 25 25 25 27 28 29 29 29 29 29 27 27 26 25 25 24 24 26 28 26 25 25 26 28 32 35 37 37 34 36 38
93 86 71 58 47 38 34 37 42 45 39 37 33 31 31 32 32 33 33 33 33 31 30 28 27 26 26 25 25 29 29 27 26 27 29 33 36 38 39 39 38 42 46
92 91 77 62 52 46 41 40 43 48 48 44 40 37 36 36 36 36 36 36 37 36 33 32 29 29 29 29 32 33 32 30 30 31 35 38 40 40 40 42 40 42 46
92 96 85 69 59 54 48 45 45 46 48 49 45 39 38 38 39 38 37 37 36 37 38 35 33 32 33 35 37 36 34 34 37 40 42 41 40 42 41 41 39 40 42
89 93 95 85 73 64 58 53 47 48 49 48 51 48 45 42 41 42 40 39 37 36 35 39 37 37 38 40 40 39 39 40 42 42 41 40 38 41 40 45 50 44 42
89 95 90 91 91 82 72 69 61 56 51 53 55 56 56 51 46 46 47 47 43 42 39 39 40 41 44 44 44 43 43 43 42 41 38 39 39 37 38 40 51 50 52
86 88 88 89 89 87 82 78 76 71 66 66 61 58 57 56 56 58 57 55 52 49 47 44 42 44 47 49 49 47 45 45 45 44 42 42 40 40 40 42 46 47 46
83 84 85 86 83 84 83 81 87 80 75 74 73 72 71 71 70 67 65 62 58 52 50 51 50 50 51 52 51 48 50 47 47 47 45 44 44 45 46 46 45 45 49
91 85 82 84 85 88 85 82 90 89 81 79 79 78 78 83 81 77 75 69 60 55 52 56 60 58 52 54 53 52 50 50 49 48 48 46 44 42 43 44 46 48 49
95 91 81 84 92 84 85 82 89 86 84 81 83 86 88 89 88 85 78 72 67 62 58 61 64 64 61 56 54 53 52 51 46 45 44 45 44 44 44 45 49 47 47
97 85 88 92 96 94 89 92 85 88 87 89 86 84 86 88 96 91 87 86 86 76 67 65 62 63 66 59 56 60 58 61 57 56 55 57 55 53 49 50 51 50 49
79 86 89 82 78 73 86 92 93 94 94 95 94 92 88 93 98 98 92 88 87 78 69 70 76 72 75 72 66 64 68 69 66 63 63 62 60 56 52 53 54 53 51
77 78 83 85 89 87 90 90 95 95 99 98 98 98 97 99 98 95 91 90 88 86 87 87 89 88 88 83 74 73 70 71 68 65 61 60 59 58 57 56 58 58 54
67 68 65 63 70 84 92 94 95 98 95 90 91 88 89 90 91 92 95 96 95 96 96 96 95 90 90 90 87 79 77 71 65 62 61 58 57 58 60 61 58 65 60
64 62 56 56 55 62 68 77 80 89 94 96 94 91 90 95 91 89 88 93 97 96 98 98 96 90 92 92 88 80 75 68 66 64 61 59 59 59 61 62 61 64 63

GFSSE_prec_cthk_078.txt.gz
RH
50 51 47 44 40 39 33 31 25 19 21 19 18 16 21 29 42 45 44 53 56 31 27 20 16 14 16 18 19 18 16 16 16 16 17 18 19 22 23 23 29 35 38
49 48 47 48 40 38 31 26 21 24 29 22 14 14 24 31 47 44 60 60 37 27 24 21 16 15 18 19 18 19 19 18 18 18 19 19 20 20 20 22 23 29 30
56 52 48 51 40 36 30 24 24 27 27 18 13 18 26 34 41 58 61 47 27 24 19 15 17 18 19 20 20 21 20 19 18 18 21 23 21 22 21 20 21 21 22
60 56 52 53 39 35 30 22 28 27 40 40 27 34 39 49 54 57 50 28 23 19 17 18 18 19 20 20 20 20 19 19 19 20 27 29 23 22 21 21 22 22 21
64 60 56 51 44 41 29 26 32 27 48 60 61 60 62 64 53 49 31 23 20 17 19 19 20 20 20 19 19 19 19 19 20 22 24 28 28 22 22 21 22 22 23
66 66 55 53 51 45 28 34 33 25 39 56 64 69 68 56 47 31 19 18 17 20 21 21 21 20 19 19 19 19 19 19 20 25 26 27 29 23 22 22 22 22 23
68 66 58 58 59 46 28 39 31 18 31 53 65 70 65 47 31 15 15 17 20 21 21 21 21 21 20 20 21 21 20 19 23 24 29 31 27 23 22 24 23 24 25
73 69 65 65 63 44 30 39 32 18 23 48 62 69 62 29 18 15 18 19 21 22 21 21 21 22 22 22 22 22 22 20 21 22 25 29 24 24 25 26 26 25 26
77 75 70 69 69 46 32 38 28 18 20 35 48 51 34 23 19 17 19 21 21 21 21 22 23 23 22 22 22 23 23 21 23 22 24 27 23 24 26 28 29 29 30
85 83 76 76 72 50 46 38 28 20 19 24 38 36 30 22 18 19 20 21 22 23 24 24 24 24 23 22 22 23 24 23 23 22 22 23 24 26 29 32 33 33 34
96 92 82 82 78 54 53 40 29 23 19 21 22 28 23 21 20 20 21 23 24 25 25 25 25 24 24 23 22 24 26 25 24 24 24 25 28 32 34 35 33 32 35
96 96 89 85 78 51 53 43 37 29 25 24 24 25 28 28 28 28 24 25 27 27 27 27 26 25 25 24 24 24 28 27 26 25 27 29 33 34 36 37 37 38 43
94 99 96 89 78 48 39 53 45 34 33 31 28 24 29 29 26 27 29 30 30 30 29 28 27 27 26 26 25 27 29 27 28 28 29 32 35 37 37 37 38 38 43
92 98 96 92 69 46 39 48 53 44 36 32 27 27 29 31 31 31 32 33 33 34 32 30 30 28 28 27 29 34 35 33 32 31 34 36 37 38 39 38 37 38 42
93 95 98 94 67 48 40 41 49 50 44 41 39 37 37 36 35 36 36 36 37 36 36 34 32 31 31 34 36 40 38 37 36 37 39 38 37 36 38 39 39 40 40
86 90 96 98 68 54 44 39 41 48 55 52 51 45 44 43 41 40 40 39 38 37 36 39 41 39 38 38 41 41 41 40 41 42 43 42 38 37 36 37 40 45 46
78 90 91 95 81 67 56 50 46 47 50 57 57 57 52 49 44 45 47 44 42 40 38 37 40 41 43 45 47 47 44 46 45 44 43 41 41 40 39 39 40 47 51
76 84 89 94 86 82 76 67 59 54 53 54 54 58 57 58 57 50 46 46 47 45 44 42 43 45 45 49 53 53 50 48 49 47 48 47 45 45 45 44 43 44 49
82 88 88 91 89 88 80 73 74 70 68 59 59 57 54 53 58 54 58 58 57 56 52 49 48 51 49 50 53 55 53 49 51 50 51 51 49 45 45 44 44 44 45
84 89 92 92 93 85 86 83 76 76 73 69 68 71 70 71 72 70 70 70 65 63 60 55 54 55 57 59 55 52 52 52 51 49 47 43 42 41 42 43 44 45 48
90 87 88 91 88 85 83 85 86 82 84 79 78 79 77 78 79 74 77 86 80 75 69 61 61 59 61 61 61 62 56 53 51 47 43 44 45 47 51 52 54 54 52
93 92 94 94 95 93 90 87 88 86 88 83 82 83 81 81 84 83 86 94 88 83 76 67 66 68 64 63 66 67 64 58 53 47 50 56 58 61 61 59 59 57 54
97 97 95 98 90 89 88 87 88 89 87 80 84 86 88 86 85 86 86 94 97 96 92 86 80 76 75 76 80 75 70 64 58 58 60 64 63 64 62 61 62 62 59
91 90 93 91 92 94 94 93 91 90 92 93 94 88 94 93 90 87 88 92 97 98 98 98 96 86 85 87 89 87 82 79 72 71 72 72 69 65 64 64 61 61 63
87 84 88 88 85 84 84 93 93 95 93 95 92 91 95 98 93 91 91 93 97 99 98 98 97 94 94 95 92 89 88 83 75 76 75 72 71 67 61 60 63 61 59
77 75 75 73 72 76 85 90 89 92 96 89 95 93 92 93 91 92 93 95 94 96 94 94 97 99 97 96 94 94 90 89 85 79 76 74 71 69 68 64 64 64 63

GFSSE_prec_cthk_081.txt.gz
RH
49 48 49 44 39 41 36 32 30 28 20 21 22 22 28 30 39 38 41 46 47 28 26 24 18 20 23 20 17 14 14 15 15 16 17 18 21 22 24 30 34 37 31
54 48 49 47 41 41 35 30 26 19 19 18 22 20 26 28 42 39 42 49 33 27 28 20 15 18 21 17 16 16 16 17 17 17 18 18 18 19 19 21 25 27 25
59 55 49 49 43 40 34 28 21 23 26 23 24 21 25 32 49 45 51 47 29 31 31 21 17 19 18 18 18 18 17 17 18 19 20 20 20 20 19 19 19 20 21
64 59 53 52 47 40 34 27 23 25 27 14 19 19 30 36 47 53 55 33 28 29 26 17 19 20 20 19 19 18 18 17 20 25 31 27 21 19 19 19 20 21 21
71 61 60 56 49 39 35 26 29 27 34 17 24 30 36 48 51 56 42 27 27 28 19 20 20 20 20 20 19 18 19 19 22 27 30 29 26 22 21 21 21 21 22
74 69 64 58 49 42 36 26 31 35 50 46 49 51 60 69 59 50 30 26 25 20 20 21 21 20 20 19 19 19 19 20 25 28 30 30 25 22 21 22 22 22 23
80 74 71 64 56 53 38 30 32 36 55 61 63 72 81 72 55 34 24 23 21 21 22 22 21 20 20 20 20 20 19 20 26 28 30 31 25 23 23 23 24 24 24
88 81 79 67 65 64 44 35 35 29 50 61 70 79 82 70 45 23 19 19 21 22 22 21 21 21 20 21 21 20 20 20 25 28 29 26 23 23 25 26 26 26 27
90 89 80 71 73 70 51 39 38 22 40 62 71 78 78 67 28 16 18 21 23 23 22 22 22 22 22 21 22 22 21 21 24 25 26 25 21 22 25 28 29 30 30
92 87 87 82 80 75 63 45 41 23 27 58 67 75 72 48 21 17 19 22 23 22 23 23 24 24 23 22 21 23 24 23 25 22 25 22 23 26 29 30 31 30 29
94 93 94 88 87 82 68 51 43 24 21 42 61 63 54 32 21 20 21 22 22 23 24 25 25 24 24 23 22 23 25 26 27 25 25 24 27 30 31 32 31 32 33
91 93 97 96 92 90 67 66 41 26 22 28 46 50 34 28 29 29 23 22 23 24 25 26 26 25 25 24 23 23 27 27 26 26 26 26 30 32 33 33 32 35 40
87 89 94 94 89 94 74 72 52 32 30 34 36 34 33 30 30 31 25 24 25 27 27 27 27 26 26 28 27 26 29 30 30 29 28 30 31 33 34 35 36 36 40
83 83 87 92 97 97 80 70 64 39 36 33 33 33 35 33 31 32 31 30 30 30 33 30 29 30 30 29 29 29 34 34 35 35 34 33 35 35 34 38 38 37 42
76 82 88 88 92 98 81 67 65 53 44 40 35 34 33 32 31 35 37 38 36 35 36 35 34 32 31 31 32 35 41 41 39 39 40 39 37 36 36 36 37 44 43
77 74 86 89 99 99 85 62 68 62 55 43 37 34 34 36 35 38 40 40 38 38 37 40 40 37 37 37 37 41 43 42 42 45 42 42 40 38 37 37 39 45 52
75 78 90 88 97 99 77 58 71 72 65 55 45 41 42 43 40 40 41 40 41 43 44 45 42 45 46 46 45 47 46 46 46 46 44 43 43 43 44 42 41 41 47
75 73 84 83 93 98 67 54 53 69 74 64 54 50 46 46 46 45 46 47 49 48 54 44 42 43 46 50 50 52 52 51 49 49 52 49 49 49 48 47 44 43 44
70 76 76 86 90 92 84 64 51 47 54 63 67 61 61 58 56 54 51 55 51 59 56 49 48 47 47 50 53 57 61 59 50 52 51 52 53 47 46 46 43 42 45
69 75 76 87 89 91 86 74 75 59 55 58 62 64 62 63 63 58 57 61 59 66 56 58 56 54 52 57 60 61 60 53 53 49 51 48 45 42 42 41 45 44 47
80 85 94 95 94 88 87 90 85 79 77 73 72 74 74 74 73 74 77 73 75 75 71 70 69 64 59 65 66 71 60 57 56 53 47 44 46 43 45 49 57 61 61
94 93 98 97 97 93 92 91 86 92 93 89 88 85 85 83 78 83 88 81 82 84 81 80 78 71 68 70 70 68 68 65 62 52 51 48 46 47 48 55 59 64 62
97 89 98 98 97 94 97 94 91 94 94 93 91 88 84 82 81 83 88 87 82 86 90 94 95 89 75 75 81 82 82 76 72 67 62 60 57 55 57 61 62 64 65
92 93 97 98 98 90 92 94 96 96 95 94 95 93 91 89 89 87 87 90 85 86 86 90 92 99 97 93 89 92 90 87 82 77 76 72 70 69 70 71 69 66 64
95 94 94 91 92 92 93 87 88 89 89 92 90 96 93 90 90 88 88 91 90 89 85 87 89 94 98 97 99 97 96 90 90 86 87 86 83 78 77 76 70 66 65
94 90 87 88 93 92 92 95 93 94 96 96 91 91 87 87 83 86 88 86 97 93 86 86 87 97 96 98 99 99 97 93 93 92 89 88 83 82 78 74 69 67 65

GFSSE_prec_cthk_084.txt.gz
RH
55 45 41 40 38 35 33 31 30 32 28 27 27 26 31 34 36 35 46 39 39 28 27 30 28 28 24 14 13 13 14 14 16 16 18 19 21 24 28 30 30 26 28
59 52 47 43 43 41 37 32 29 30 24 24 25 24 27 32 39 42 42 40 30 27 27 30 22 24 19 16 16 16 16 16 16 16 16 17 19 20 22 22 24 23 23
60 59 53 47 46 46 40 33 29 22 19 19 24 22 25 30 39 39 41 38 29 29 28 28 22 24 18 17 17 17 17 19 19 19 19 20 19 18 18 18 19 19 20
60 64 57 54 49 46 41 33 25 23 24 23 25 27 22 30 42 42 46 32 39 36 25 20 19 19 18 18 18 17 18 21 23 24 24 20 19 18 18 18 19 20 20
70 65 62 62 56 47 42 33 25 28 27 21 28 27 28 39 45 52 47 33 38 34 22 18 19 20 19 18 18 18 18 21 24 26 25 22 21 19 19 19 20 20 21
80 74 69 66 65 49 42 35 29 30 30 17 30 31 35 44 46 53 37 32 36 26 20 19 20 19 19 19 18 18 19 23 23 26 26 26 21 20 19 20 21 22 22
74 69 77 74 69 54 45 35 34 36 41 27 35 42 45 56 61 53 32 31 28 25 20 23 20 20 19 19 19 18 19 22 25 28 27 24 22 21 22 22 23 23 24
66 66 80 83 77 60 56 37 38 39 54 46 55 59 68 72 72 43 28 28 26 22 22 22 21 20 20 20 20 20 20 21 25 27 26 23 21 21 22 25 26 27 27
77 69 90 89 81 72 67 47 46 37 53 63 62 71 84 80 73 42 27 23 24 22 23 22 22 21 20 20 21 22 22 23 23 23 24 22 20 22 25 27 29 28 27
78 73 83 99 88 84 76 58 53 32 46 64 72 79 83 77 64 40 25 21 22 24 23 23 23 23 22 21 21 23 23 24 23 23 24 22 23 26 28 29 29 28 29
66 87 97 99 94 91 87 68 59 44 34 62 72 78 79 75 57 33 21 22 23 24 23 24 24 24 24 22 22 22 24 25 25 24 23 24 26 29 30 30 30 30 34
59 74 92 96 93 94 90 81 64 55 27 48 69 75 77 69 44 30 23 23 24 23 24 25 26 25 24 24 23 23 25 26 26 25 25 26 28 31 31 31 33 33 36
62 70 83 94 93 97 96 93 74 58 31 29 60 73 76 58 40 32 24 23 22 24 25 26 27 27 26 25 25 23 26 28 28 28 26 28 30 31 31 30 33 34 36
56 68 72 85 86 89 96 91 89 65 34 27 37 64 72 52 38 30 26 24 24 25 27 28 28 28 27 27 27 26 27 32 32 32 30 32 34 32 31 32 35 35 37
55 61 77 82 80 87 96 94 98 77 43 34 35 43 53 40 32 32 28 25 25 28 29 31 31 31 30 29 29 30 33 36 36 36 36 38 38 35 33 32 34 40 48
59 65 78 84 81 85 88 95 96 86 58 41 39 45 45 33 32 32 31 29 31 32 32 34 34 34 33 37 37 35 36 40 41 42 44 40 39 38 37 37 36 37 40
66 68 76 79 78 86 87 98 98 87 77 51 42 43 38 35 32 31 32 34 35 35 35 36 38 39 40 49 40 39 44 44 44 47 43 42 42 40 40 40 41 41 41
80 75 76 76 74 86 90 94 95 90 83 68 47 40 40 37 33 33 35 37 38 40 41 42 42 42 48 53 47 46 47 52 49 53 51 57 51 48 47 44 43 44 43
85 80 76 78 76 83 87 93 95 95 92 88 71 51 44 41 39 41 43 46 48 50 50 47 46 46 60 50 46 48 51 56 53 56 54 54 51 50 47 42 41 41 40
91 86 81 80 80 87 82 88 90 85 92 92 87 72 59 51 52 54 51 53 53 53 52 53 59 59 64 56 52 51 57 59 57 56 61 54 48 43 40 38 40 40 42
96 89 90 90 85 85 85 92 89 79 74 81 80 83 71 68 69 70 65 58 61 63 65 62 72 68 73 59 67 61 66 63 67 64 64 55 50 44 43 45 44 47 50
96 92 96 91 89 89 97 94 87 86 84 79 80 76 80 77 74 77 77 76 76 73 70 74 80 77 81 75 73 73 68 71 70 66 65 55 49 48 48 50 50 50 52
99 98 99 97 96 94 98 96 97 84 91 86 90 87 87 87 85 84 82 81 80 81 85 88 86 87 84 86 86 85 83 81 77 80 77 61 60 61 62 65 64 61 62
98 95 98 99 99 98 97 98 98 94 91 96 96 93 96 92 93 90 87 85 83 86 85 86 90 90 89 95 94 98 96 94 90 88 88 81 75 73 73 75 72 69 66
94 96 96 98 98 96 94 95 94 93 95 96 90 91 94 94 95 90 87 82 83 85 80 79 85 90 93 93 92 90 95 99 98 91 90 87 89 89 87 85 85 78 73
98 98 97 98 96 92 89 94 95 93 93 90 88 92 91 90 92 91 88 84 80 81 81 81 83 88 90 91 91 91 98 98 99 97 94 95 94 87 85 83 81 78 72

GFSSE_prec_cthk_087.txt.gz
RH
60 53 47 43 38 36 34 32 32 31 30 26 24 25 28 27 27 38 42 40 35 34 35 38 34 25 14 14 13 13 16 16 17 18 18 20 24 27 27 27 23 24 24
55 56 53 46 41 40 37 36 33 32 30 27 28 24 29 32 30 34 41 35 27 30 36 39 30 17 14 14 14 15 16 15 16 16 16 16 18 20 19 19 19 19 20
55 56 54 52 46 45 42 40 34 31 30 25 31 24 28 34 35 42 42 31 25 28 35 33 22 16 16 16 16 17 18 18 17 16 17 18 17 16 16 17 18 18 19
56 59 57 56 53 49 47 43 36 31 25 24 28 27 25 32 38 42 42 27 25 31 32 27 18 17 18 17 17 19 21 22 20 20 19 18 17 17 17 18 19 19 20
53 58 62 60 58 56 50 44 36 28 25 24 26 30 26 33 36 39 43 33 33 31 28 21 18 19 18 18 18 20 22 23 23 20 19 19 19 18 18 18 19 20 21
58 64 68 65 62 61 56 46 36 32 33 30 31 33 28 39 40 46 47 38 39 28 25 19 18 19 18 18 18 20 22 23 24 23 22 22 20 19 19 19 20 22 23
66 72 70 71 72 74 62 50 39 38 42 23 33 34 30 43 50 53 46 39 38 28 25 19 19 18 18 18 18 19 21 22 23 25 24 23 22 20 20 23 24 24 24
65 79 83 75 77 82 70 57 42 42 52 28 37 35 40 49 56 56 40 39 31 30 27 21 20 19 19 19 19 19 20 21 22 23 23 22 20 19 21 24 26 26 25
72 84 83 78 75 82 79 72 51 44 57 43 45 48 56 64 65 65 40 35 33 29 24 21 21 20 21 21 22 21 21 21 21 21 22 20 19 22 24 25 26 25 25
72 84 88 82 71 72 82 84 68 53 56 73 60 65 66 74 75 69 43 34 28 28 23 21 21 21 21 21 22 23 23 23 22 21 20 19 21 24 25 26 26 25 28
64 70 82 91 91 77 87 88 80 70 49 67 77 70 77 80 81 66 54 43 29 25 24 23 23 23 23 22 22 23 23 24 22 21 20 20 23 25 26 26 26 27 30
56 63 73 83 95 95 84 93 90 81 65 55 83 80 85 85 79 61 50 43 31 25 24 23 24 24 25 24 23 22 24 25 24 23 22 22 24 26 27 26 27 29 31
53 58 64 67 75 83 96 97 95 93 80 53 73 83 87 87 81 54 46 39 32 26 24 24 24 25 25 25 24 23 25 26 26 25 26 26 27 28 27 26 28 30 32
55 57 60 60 62 75 89 92 93 93 85 66 54 85 87 82 73 51 39 39 35 27 25 26 26 26 26 26 26 25 26 27 30 29 30 31 33 32 29 28 28 33 38
59 65 63 56 55 65 82 88 89 93 89 74 47 62 87 88 69 46 38 38 35 26 26 27 27 28 28 27 27 28 28 30 34 34 35 36 35 35 33 32 32 32 36
63 69 69 56 56 59 79 80 89 83 90 75 54 41 70 89 70 47 41 36 29 26 27 29 31 31 31 31 30 31 33 37 37 39 38 39 38 36 36 36 37 37 37
66 77 74 58 61 58 74 80 81 90 95 80 55 37 45 69 72 49 39 30 28 29 30 32 33 33 35 36 36 37 44 46 44 41 43 41 41 42 42 42 42 41 43
74 85 80 72 69 59 73 76 79 98 98 88 66 50 45 50 61 42 34 33 33 34 34 35 36 38 39 40 42 42 50 54 49 49 54 51 47 49 50 49 45 44 44
70 85 87 86 80 67 75 78 80 98 96 95 77 62 53 56 55 40 37 38 37 37 38 39 41 41 43 45 46 48 55 64 56 58 53 52 49 50 51 49 45 41 40
71 80 88 93 90 81 81 79 77 90 99 99 92 67 54 50 41 40 41 42 44 46 46 46 46 46 45 49 50 52 64 63 56 61 58 57 59 52 51 47 40 39 41
74 76 85 93 94 87 86 83 83 86 96 98 96 82 58 54 47 47 49 50 49 50 50 51 53 54 57 58 59 60 73 72 65 67 63 65 61 62 56 48 45 46 46
72 80 89 91 94 93 87 86 82 86 92 98 98 97 91 71 63 59 57 57 60 57 56 60 68 68 69 73 71 72 78 82 71 73 72 68 64 66 56 53 48 51 56
69 80 86 91 99 95 94 95 92 88 94 95 95 94 98 94 85 81 79 74 70 71 69 74 76 78 78 82 81 84 88 87 81 80 80 78 80 74 62 61 62 64 68
74 83 87 99 99 99 97 97 98 96 91 92 95 94 95 96 94 91 92 90 88 85 83 84 87 87 87 87 90 90 91 89 91 95 94 96 92 78 73 73 77 76 75
77 86 93 97 98 99 98 99 98 97 98 94 93 97 96 96 96 95 93 93 91 92 87 87 85 81 82 81 84 88 90 94 95 97 98 96 95 90 84 87 86 85 82
89 87 98 97 96 98 98 94 97 99 97 97 96 96 93 93 93 92 91 90 90 88 86 84 86 86 84 82 82 85 86 90 92 96 95 96 95 94 93 93 90 86 81

GFSSE_prec_cthk_090.txt.gz
RH
52 50 50 51 47 43 37 34 32 31 29 30 26 26 27 25 24 27 34 33 33 33 32 39 33 18 17 15 14 17 16 17 17 17 20 23 25 24 23 20 19 21 24
51 49 47 48 48 45 40 38 38 35 33 30 28 28 29 27 25 35 40 35 36 35 39 40 28 13 13 13 14 16 15 16 16 16 16 18 20 18 17 17 17 18 21
55 55 50 49 49 51 45 42 42 40 38 35 31 29 30 31 27 34 40 34 30 38 40 38 22 14 15 15 15 16 16 16 16 16 17 17 16 16 16 16 17 18 19
54 58 54 51 48 49 51 47 43 39 38 40 33 31 30 35 33 35 39 34 29 38 40 32 21 15 15 16 18 18 18 18 18 18 17 17 16 16 15 16 18 19 19
54 59 60 57 55 53 55 54 48 41 36 34 30 38 30 39 37 40 41 34 26 35 37 29 21 17 16 17 19 19 19 19 19 18 19 18 17 16 16 16 18 20 21
55 58 58 64 60 60 58 58 52 40 33 28 32 32 37 40 41 37 39 39 33 37 37 28 21 18 17 18 19 19 18 19 19 20 19 20 19 18 17 18 19 21 22
55 62 65 68 73 73 64 59 53 42 39 36 34 35 44 36 47 39 43 44 36 36 32 33 20 19 19 19 19 20 19 20 20 21 21 21 20 19 19 20 22 22 22
53 61 71 77 76 80 76 69 56 48 46 52 33 40 48 40 56 51 51 46 34 32 32 28 20 19 19 19 19 19 18 20 22 23 21 20 19 18 19 21 23 22 22
47 56 70 74 73 77 78 72 62 52 52 60 29 45 53 45 61 66 59 45 35 33 32 28 21 20 20 20 21 20 19 19 19 20 21 19 18 20 21 22 22 22 25
55 57 65 83 77 77 77 72 69 61 57 65 47 53 54 56 69 69 68 49 44 41 38 28 22 22 22 22 22 23 22 19 20 20 19 18 19 21 22 23 23 24 26
49 58 60 72 84 84 80 74 71 67 65 66 67 58 63 69 73 72 72 54 48 40 31 25 23 23 23 22 22 23 23 21 20 20 19 20 21 24 24 24 23 25 27
43 44 60 67 77 87 88 83 78 72 68 70 77 72 72 77 76 76 75 59 56 42 34 25 24 24 24 24 23 22 23 23 22 21 20 21 23 25 25 24 24 25 28
45 46 59 64 66 73 83 86 89 87 72 75 77 81 82 79 81 88 77 62 55 50 41 25 25 25 25 25 24 23 23 23 23 23 23 23 26 29 27 25 25 26 31
47 49 54 58 62 65 67 71 78 82 80 74 76 80 85 84 84 97 74 60 53 47 43 28 25 26 25 26 25 25 25 25 25 26 27 27 31 32 30 28 27 28 32
50 48 50 51 52 54 53 58 66 66 84 81 73 81 84 81 84 88 76 61 52 46 44 34 27 26 26 27 27 26 26 27 28 30 32 31 32 32 33 32 32 32 32
50 47 48 48 51 51 51 49 57 75 76 84 82 74 78 88 95 96 86 56 51 48 46 41 30 28 29 29 29 28 29 31 33 34 33 36 36 35 37 37 36 37 38
46 41 43 47 52 59 60 54 48 60 72 86 81 76 71 84 98 88 77 57 49 49 47 41 34 31 31 32 31 31 32 32 35 41 42 43 39 39 40 40 42 44 46
44 44 44 56 60 62 62 59 55 53 71 81 82 81 70 71 85 96 83 60 49 48 46 39 36 36 35 35 35 36 37 37 40 46 50 54 50 43 43 43 45 45 47
42 40 52 62 66 64 68 68 67 59 75 81 89 91 85 63 66 82 93 67 53 49 42 36 38 37 38 39 39 41 42 44 45 49 63 64 52 49 48 47 46 44 43
38 35 52 61 68 72 73 74 82 75 84 83 93 93 84 62 47 55 89 78 53 49 42 39 39 40 41 43 45 46 49 49 49 53 58 68 57 51 51 48 48 44 45
36 46 61 64 75 82 84 79 84 86 85 82 85 93 93 70 60 60 67 62 48 45 41 39 43 44 46 48 50 51 52 54 58 63 66 68 72 59 57 57 56 45 47
45 64 73 68 73 80 85 86 87 90 88 88 87 91 91 85 74 70 69 60 50 46 49 50 50 50 52 53 57 58 61 60 68 71 70 73 74 70 67 66 63 50 53
71 71 72 73 74 79 82 86 92 90 92 98 95 96 96 91 83 76 65 59 55 54 56 56 59 61 62 70 72 69 74 75 76 80 82 80 86 82 83 80 72 63 61
83 82 75 72 80 85 85 88 96 96 94 98 90 95 95 92 92 88 79 73 69 67 65 65 72 77 82 84 89 91 88 87 88 85 86 91 89 90 94 90 78 73 77
93 86 78 77 85 86 90 97 99 99 98 97 96 98 98 98 96 97 97 96 94 92 92 92 91 89 87 84 84 84 89 87 84 83 89 88 89 88 95 90 85 85 84
93 85 81 87 90 90 98 99 99 99 98 98 98 99 97 97 97 97 96 95 98 95 97 94 95 94 93 92 88 88 87 88 84 80 81 85 83 89 85 92 90 93 91

GFSSE_prec_cthk_093.txt.gz
RH
46 49 51 50 51 49 45 42 35 32 30 28 26 26 27 28 28 27 28 28 24 27 36 35 32 25 18 18 17 18 18 16 17 21 24 24 22 21 18 18 20 22 28
48 50 50 47 50 49 46 43 39 37 36 31 29 28 27 27 28 27 29 29 27 35 41 36 28 22 13 15 15 16 16 16 16 16 18 18 17 16 15 15 16 18 20
51 49 49 49 49 52 50 48 44 42 40 35 31 31 29 29 30 33 34 32 33 40 43 35 23 19 13 15 16 15 15 15 15 15 16 16 15 15 15 15 16 17 17
52 52 53 51 52 49 46 50 50 49 44 43 40 32 32 31 30 37 38 34 34 37 41 32 23 19 14 15 16 16 16 16 16 16 16 15 15 15 15 15 16 18 18
53 55 53 53 52 51 48 47 51 51 45 42 43 37 34 39 37 34 37 34 36 38 39 29 25 20 16 17 18 18 19 19 18 18 17 16 16 16 15 15 17 19 20
54 55 55 54 52 52 52 51 49 53 47 40 41 37 40 39 52 42 40 37 38 34 34 30 26 20 17 17 18 18 18 18 18 18 18 18 18 18 17 18 19 21 21
54 55 55 55 54 58 60 59 57 53 45 37 32 35 39 40 50 52 43 40 34 35 34 31 27 21 18 18 17 18 17 17 18 20 20 20 20 18 18 20 21 21 20
63 57 57 59 61 64 70 66 64 56 48 44 40 37 36 50 43 52 47 44 43 35 37 32 29 22 18 19 18 17 17 18 18 19 20 20 19 19 20 20 21 21 21
69 68 55 57 61 65 68 71 70 65 62 56 58 45 44 53 54 51 60 53 45 39 37 36 29 23 19 19 19 18 18 18 19 19 19 19 19 20 20 21 21 21 23
71 72 74 75 63 66 66 69 69 68 65 61 64 46 49 55 58 56 62 60 45 37 40 39 31 25 21 20 21 20 20 19 19 19 19 18 19 20 21 22 21 23 25
62 67 67 69 81 80 85 81 75 72 67 63 66 52 59 62 60 57 67 66 48 44 42 37 33 26 23 23 22 21 22 21 20 19 18 18 19 22 24 23 23 24 26
56 58 58 59 65 71 85 92 89 81 73 67 72 68 67 64 61 64 72 74 55 54 50 42 32 26 24 23 23 22 22 22 21 21 20 19 20 23 25 24 24 26 27
57 56 57 56 60 60 66 78 84 88 82 72 71 75 72 73 69 74 76 78 68 58 59 51 39 26 25 24 23 23 23 23 23 23 22 22 23 26 26 25 25 27 32
59 53 51 51 51 55 59 67 74 77 83 78 73 74 75 83 81 81 81 82 73 62 63 56 47 36 26 26 25 24 24 25 25 25 26 26 26 28 27 26 26 27 30
59 55 50 48 46 48 54 58 60 63 64 68 74 72 74 83 88 86 86 84 90 63 63 57 50 46 33 28 26 25 25 26 26 27 29 30 30 31 33 31 29 30 31
60 57 58 54 46 44 48 54 52 51 55 56 67 72 70 75 80 97 89 88 96 75 63 58 50 45 41 31 28 28 28 28 28 30 33 32 32 32 35 35 36 34 34
55 55 53 53 50 43 40 47 50 50 49 53 54 60 62 74 77 80 97 98 86 81 74 58 50 47 48 42 31 30 30 30 31 33 36 36 36 38 42 40 39 38 38
54 51 52 48 47 46 42 40 39 41 46 49 50 50 64 74 77 75 87 96 92 82 75 64 53 47 50 44 36 33 33 33 33 34 38 40 42 44 47 48 44 43 42
55 54 52 45 43 41 39 45 45 48 54 51 55 59 65 79 75 78 84 98 95 86 78 64 56 54 48 46 40 38 38 37 38 39 42 44 46 50 60 57 54 47 44
55 53 50 45 40 36 41 52 53 58 58 60 64 63 71 73 83 81 88 95 89 80 71 69 63 56 51 46 43 41 42 42 42 44 46 49 50 55 59 61 63 55 47
61 57 56 46 37 40 47 62 60 65 67 67 72 74 80 85 93 93 91 90 94 83 74 65 65 61 53 46 45 45 46 47 48 50 51 52 56 63 62 66 67 69 63
58 61 63 52 41 47 61 62 64 70 72 76 85 82 91 96 98 96 92 89 84 84 71 70 69 63 51 48 47 51 54 53 51 52 55 58 58 62 66 72 73 71 70
47 51 52 46 50 61 67 67 65 76 80 83 92 93 95 96 95 96 87 80 83 80 74 72 68 57 51 51 56 59 62 56 56 60 65 68 65 70 73 74 79 81 81
50 58 55 58 61 66 72 68 72 76 82 85 86 98 96 96 97 93 92 89 87 89 73 60 60 60 62 65 64 63 65 73 75 71 77 75 75 82 82 82 85 86 85
65 64 73 76 75 72 70 74 78 82 81 85 88 99 99 98 96 95 92 92 90 90 82 73 71 73 77 77 80 82 87 89 89 88 86 82 85 82 85 86 86 88 82
81 82 85 87 88 86 83 82 97 89 97 94 96 99 99 98 96 97 97 93 88 85 84 91 90 91 90 90 92 94 94 91 90 89 91 88 89 87 84 86 84 84 82

GFSSE_prec_cthk_096.txt.gz
RH
40 42 47 48 50 50 54 44 40 37 35 34 32 32 32 30 31 33 31 28 24 25 37 40 36 33 28 23 19 17 17 18 24 24 23 22 20 18 18 20 22 27 30
43 44 50 48 49 52 51 48 44 38 36 33 30 29 27 27 28 29 29 26 25 28 40 36 30 26 19 14 17 16 16 16 17 18 17 16 16 15 15 16 16 18 20
46 47 50 49 53 56 51 53 48 43 40 39 34 31 28 27 27 28 30 30 28 37 44 35 25 22 17 15 15 16 15 15 15 15 15 14 14 14 14 14 15 16 18
48 49 52 50 52 55 54 52 50 51 50 46 42 40 34 30 29 32 33 35 37 43 41 30 23 23 17 15 15 15 15 15 15 15 14 14 14 14 14 14 15 17 18
49 49 49 50 52 54 52 50 47 50 52 52 49 44 39 36 33 34 38 39 42 45 39 27 25 23 19 16 17 16 16 15 15 15 15 15 15 15 15 15 17 19 20
51 55 53 53 52 51 49 48 49 47 48 50 50 48 49 41 43 42 37 36 40 45 40 28 27 26 20 17 17 18 17 15 15 16 16 17 17 16 17 18 19 19 20
52 53 56 54 53 51 50 50 52 55 53 48 47 44 43 43 44 54 49 37 41 42 37 28 28 28 23 18 18 18 17 16 16 17 19 19 19 18 18 19 19 20 20
58 56 54 61 54 52 54 55 57 60 60 57 48 43 41 44 47 51 52 46 45 41 36 28 28 29 26 19 19 18 17 17 17 18 19 20 19 19 19 19 19 19 21
67 66 65 62 61 53 53 57 62 65 64 61 54 52 50 50 53 55 55 50 47 42 39 30 31 30 27 20 19 18 17 18 18 18 18 18 19 20 19 19 19 20 22
58 68 74 72 76 61 55 58 62 64 67 67 66 64 61 56 56 63 59 60 56 51 43 36 34 32 29 22 21 20 20 19 18 19 18 18 18 20 20 21 20 21 23
52 58 69 76 82 85 83 75 77 72 69 66 67 69 64 59 58 64 65 63 62 55 47 43 36 34 31 26 22 23 21 21 20 20 18 18 18 20 22 22 21 23 24
50 50 58 60 72 80 83 86 82 86 81 74 69 69 60 53 64 70 68 65 68 63 50 48 45 36 32 28 23 23 23 23 22 21 20 19 19 20 23 22 22 23 26
55 54 51 55 68 71 74 71 71 74 80 85 78 75 72 70 69 74 75 67 74 73 61 52 52 42 39 28 24 23 24 24 24 23 21 20 21 23 24 23 22 23 28
57 56 58 56 63 70 68 65 66 66 71 76 82 77 71 77 71 75 80 77 80 82 67 58 54 50 45 38 26 23 24 25 25 25 25 24 24 25 27 26 24 24 25
56 62 60 59 59 66 65 61 61 59 62 66 69 70 66 67 69 72 79 86 87 88 84 68 64 59 49 42 36 26 24 25 26 26 27 28 29 29 31 32 31 28 29
56 59 60 57 56 58 53 53 52 54 54 59 61 61 63 57 65 69 76 86 94 94 91 80 67 65 54 49 45 41 28 26 27 27 28 30 31 30 31 33 34 35 36
52 58 56 54 54 52 47 49 46 42 44 51 55 54 56 56 58 70 72 74 88 95 94 87 71 67 62 52 50 47 39 29 29 28 30 33 34 34 35 35 36 38 41
44 52 55 54 52 50 50 48 52 48 45 50 52 54 52 53 53 60 66 75 73 89 96 92 82 82 69 62 54 47 47 41 33 30 32 35 36 37 38 38 38 40 50
42 47 53 55 54 49 49 49 49 47 44 40 45 54 56 55 52 51 52 65 72 78 91 96 90 86 77 63 58 53 48 45 40 35 33 36 39 41 43 44 43 44 54
44 48 52 53 52 51 50 49 47 40 34 39 43 47 51 55 57 58 53 60 69 77 83 86 91 86 81 71 64 61 50 50 47 40 38 40 44 46 48 52 49 52 52
44 50 50 53 54 51 43 40 39 36 35 46 50 52 55 57 59 59 63 62 73 81 81 89 92 89 83 72 70 67 58 54 50 46 44 45 47 51 52 55 55 55 59
50 59 57 55 55 52 45 46 46 40 41 51 55 58 60 63 67 70 80 68 78 92 90 92 90 87 83 77 75 72 65 56 50 48 46 47 51 54 54 57 60 62 71
54 65 63 65 57 53 50 51 47 49 52 54 56 63 67 69 76 86 98 89 83 99 94 92 90 87 80 74 76 73 71 60 54 55 57 55 62 59 60 70 66 71 67
58 63 67 62 55 46 48 49 51 57 58 60 59 60 69 74 82 82 96 98 99 99 95 90 89 84 80 77 81 76 71 68 65 62 62 65 68 67 70 76 75 79 78
61 62 58 50 50 55 54 55 58 65 71 65 59 66 74 76 86 92 96 99 97 97 97 97 92 86 86 86 80 77 73 73 69 69 75 78 79 82 86 81 82 84 86
59 56 55 64 66 71 68 67 71 77 76 76 89 90 87 86 92 98 99 99 99 98 98 99 97 94 87 80 80 84 83 84 85 87 89 90 89 88 88 87 88 90 89

GFSSE_prec_cthk_099.txt.gz
RH
38 40 43 43 46 51 49 46 45 44 41 40 39 39 36 35 33 36 35 29 24 28 37 38 38 40 31 25 19 17 20 24 23 21 19 17 16 18 19 23 29 33 33
40 45 45 46 48 48 53 50 46 44 41 38 37 37 37 32 31 30 32 29 24 30 38 39 37 34 28 17 16 16 17 19 18 16 14 14 15 14 15 15 17 19 22
43 48 50 49 48 46 53 53 52 47 43 41 38 34 34 31 28 28 28 28 27 35 36 38 29 29 20 15 16 16 16 15 15 14 13 13 13 13 14 14 15 16 18
48 50 53 51 51 51 55 54 51 47 47 47 46 41 39 35 30 29 30 28 31 41 41 33 23 23 21 16 15 15 15 15 14 14 13 13 13 13 13 14 15 16 17
47 49 52 53 55 55 52 49 47 46 48 50 50 49 46 45 34 34 35 34 45 49 42 28 22 23 23 17 15 15 15 15 15 15 14 14 14 14 14 15 16 18 19
49 49 49 49 49 54 56 51 48 46 46 47 49 50 53 56 45 41 42 48 43 45 47 32 23 25 25 20 16 16 16 15 15 15 16 16 16 15 16 16 17 17 18
56 53 51 51 49 51 53 52 50 49 52 53 53 49 50 50 54 48 49 47 47 42 47 36 24 25 28 24 18 18 16 16 16 16 17 18 18 18 17 17 17 17 17
50 63 70 60 55 51 54 52 50 49 52 59 60 55 49 44 52 57 56 53 51 52 46 42 26 26 29 27 20 18 17 16 17 18 18 18 18 19 19 18 18 18 19
46 53 68 75 64 54 53 59 56 54 56 59 62 60 54 53 51 63 64 63 57 59 49 40 30 28 31 29 24 19 17 17 17 18 18 18 18 19 20 19 19 19 20
47 54 64 73 73 67 61 62 63 59 58 61 59 58 59 59 59 59 65 67 64 60 56 45 35 31 33 32 28 20 19 18 18 18 17 18 18 18 20 20 19 20 22
45 46 54 64 76 79 81 81 79 72 67 65 63 63 62 64 65 63 65 68 64 63 62 52 42 36 36 34 32 26 21 21 20 19 18 18 18 18 19 20 19 21 22
46 48 47 52 59 71 84 86 91 88 78 76 73 71 69 71 68 65 64 70 70 68 67 58 53 43 38 38 35 30 24 22 22 21 19 18 19 19 21 21 20 22 24
46 49 50 49 50 65 73 81 85 83 80 78 74 78 74 72 64 60 64 72 74 72 72 67 63 56 47 41 38 31 28 26 25 23 23 21 20 21 23 23 21 21 25
35 47 52 52 52 53 64 70 74 80 77 75 71 72 71 74 72 75 74 73 76 75 73 77 65 64 55 51 48 42 31 29 26 25 25 24 23 24 25 25 23 23 23
25 35 48 55 55 52 54 54 60 74 68 69 66 65 65 69 71 71 73 77 75 78 79 84 81 66 60 55 52 47 37 31 30 27 26 27 27 28 29 31 31 28 28
21 29 41 52 58 53 50 53 57 70 67 66 66 65 62 67 69 66 64 71 75 75 79 84 90 86 69 64 57 53 48 41 33 30 29 28 30 32 31 34 42 36 34
21 26 37 48 52 56 51 53 57 69 70 64 61 60 55 52 59 58 62 61 65 73 78 83 93 95 85 70 61 60 54 49 46 34 32 31 31 32 33 33 35 41 41
18 26 36 44 45 47 56 52 51 57 64 59 55 53 51 49 48 57 54 59 58 61 78 80 88 90 97 81 74 70 59 54 51 49 39 34 34 36 36 36 36 35 39
13 25 35 41 41 42 45 56 52 50 52 51 48 50 50 47 42 49 54 54 56 58 63 71 77 87 91 88 82 74 69 63 55 53 50 41 38 40 39 40 41 38 39
15 23 34 41 42 43 45 48 54 51 48 46 47 47 45 43 45 47 50 54 55 54 54 59 61 71 85 85 86 83 74 74 67 57 55 49 43 42 44 45 46 46 46
18 22 37 41 45 49 48 45 49 50 48 43 39 39 37 43 49 50 50 52 53 54 53 55 57 64 70 89 88 82 84 76 69 63 66 58 50 47 49 50 52 53 53
21 26 43 48 49 51 48 48 47 48 44 42 40 39 38 44 51 54 54 56 56 59 63 66 64 69 75 82 84 91 91 80 69 68 66 61 56 52 55 55 57 59 60
37 48 50 62 56 57 61 54 46 47 47 46 46 43 42 48 52 56 61 63 62 67 81 74 73 73 82 86 85 88 85 78 80 73 72 66 63 61 56 60 65 67 69
57 56 70 68 73 63 58 54 51 51 52 53 50 48 48 53 53 57 63 68 72 79 86 89 92 91 91 92 93 87 87 88 84 76 70 68 66 64 66 69 71 76 81
70 72 75 68 63 62 58 53 51 55 58 61 58 56 58 57 58 62 61 66 73 85 89 92 99 99 96 99 95 93 88 85 90 86 78 76 74 74 77 77 81 84 87
76 68 67 68 65 61 58 57 61 67 68 69 67 69 70 67 71 72 73 73 84 90 96 98 95 95 97 97 95 94 90 89 91 87 83 81 83 80 88 89 88 88 87

GFSSE_prec_cthk_102.txt.gz
RH
39 42 44 44 45 46 50 49 48 53 50 52 40 43 42 36 34 33 34 29 26 29 34 35 37 39 34 24 18 22 30 34 28 21 17 16 18 20 23 29 38 37 35
40 44 45 45 44 45 44 48 47 47 46 43 40 38 39 38 33 32 32 29 28 33 40 37 39 37 32 21 18 18 22 22 21 17 15 14 14 16 17 19 20 22 28
42 48 50 47 50 50 45 50 49 47 46 45 42 43 40 36 31 30 31 27 29 42 41 39 37 33 27 19 16 17 18 17 17 16 15 19 13 13 13 14 15 17 19
47 51 55 48 48 54 51 52 50 49 46 45 46 46 46 44 33 30 30 28 28 46 43 40 32 26 23 21 17 16 16 16 15 15 19 20 16 13 13 14 15 15 16
49 55 58 51 48 50 55 56 51 46 42 44 47 48 48 51 43 35 34 31 34 51 52 40 25 23 25 23 18 16 15 15 15 15 18 22 21 14 14 15 17 17 18
49 52 60 50 55 54 57 57 55 48 45 44 47 48 49 55 52 48 47 46 50 52 50 44 26 24 26 26 20 17 17 16 16 19 18 16 23 16 17 17 17 17 17
45 47 56 60 51 54 57 60 57 53 51 49 51 53 52 51 51 53 57 55 55 51 45 48 29 25 27 28 26 19 18 17 17 18 23 20 21 17 18 18 18 18 17
45 48 49 58 68 59 57 58 55 58 59 59 60 61 59 53 48 55 61 61 58 55 54 50 36 28 27 30 30 23 19 17 17 19 20 24 19 18 19 19 19 18 19
44 47 51 58 62 73 68 62 57 56 59 57 58 62 61 61 59 56 63 66 69 66 61 58 47 30 30 32 32 29 21 19 22 23 21 24 18 19 20 20 20 20 20
45 43 48 51 59 68 75 69 63 59 63 64 60 59 60 57 56 57 61 67 72 76 67 63 53 40 32 35 35 33 27 21 24 20 21 24 19 19 20 20 20 20 21
40 44 43 48 55 63 73 74 74 71 72 69 68 61 55 54 60 60 58 62 67 71 74 68 61 48 39 37 38 36 34 27 27 25 24 19 19 19 20 21 20 20 21
35 41 44 44 48 57 61 69 81 86 86 85 80 72 62 59 65 67 69 65 64 69 69 72 69 54 44 46 42 39 37 35 30 28 26 20 20 20 21 22 21 21 22
25 34 40 46 46 48 52 63 69 79 85 83 82 78 77 71 69 65 66 63 64 69 74 73 70 65 57 53 51 47 43 39 33 31 29 24 21 21 23 23 22 21 23
19 26 33 38 48 49 49 51 53 69 78 86 83 78 71 74 74 68 72 75 74 73 74 78 78 74 68 61 56 55 52 48 37 33 32 27 26 24 25 24 23 22 22
14 20 28 32 38 46 53 53 52 57 66 70 82 81 73 71 72 72 71 73 75 82 81 74 79 78 77 72 63 57 55 54 48 38 34 29 28 28 28 29 30 27 24
10 14 21 29 37 41 45 52 52 53 56 58 64 63 77 77 74 70 69 72 70 78 77 80 80 82 81 82 73 67 59 52 53 48 43 34 31 30 31 34 42 48 35
13 11 15 23 33 40 44 45 48 51 54 54 61 63 73 74 66 61 58 60 61 68 78 78 81 82 80 83 82 71 67 58 59 53 51 46 34 32 33 34 33 40 50
17 14 13 18 27 39 44 44 44 45 53 55 60 61 61 71 63 56 55 52 49 54 60 68 73 72 73 80 85 91 84 68 62 59 55 53 47 32 32 35 37 36 39
21 20 14 17 24 36 44 45 45 44 44 52 51 54 57 66 65 58 57 56 52 46 44 54 66 66 67 79 82 89 88 82 73 70 60 58 55 49 38 38 38 41 40
25 22 18 17 25 34 42 44 44 43 44 46 53 54 52 55 60 57 52 49 49 47 45 44 56 66 68 66 75 86 91 87 82 73 71 64 63 61 57 47 44 42 45
35 28 23 16 27 36 40 44 44 44 45 45 46 51 53 48 44 45 42 43 46 48 49 51 53 54 59 65 64 69 71 73 77 76 76 74 65 69 67 54 58 52 48
50 37 30 23 30 43 46 49 52 51 46 44 43 41 44 45 42 40 41 41 44 51 54 55 55 57 58 61 62 64 68 72 73 66 73 78 74 79 69 62 62 63 59
53 44 33 33 49 55 58 60 59 53 45 43 42 39 39 44 47 43 42 41 47 56 59 62 61 61 64 70 80 81 79 70 70 68 76 71 81 82 74 70 70 69 69
55 53 53 65 66 73 75 72 66 51 55 54 45 44 44 50 53 50 48 48 53 55 61 68 69 70 75 81 88 87 84 80 79 78 75 77 84 79 78 77 75 72 74
80 73 76 79 85 87 84 71 68 61 58 51 45 49 57 60 59 58 54 58 59 59 62 66 71 77 82 85 85 88 92 92 91 89 89 87 82 80 82 78 77 78 75
86 80 88 90 88 92 87 79 67 61 57 55 61 67 71 70 71 70 68 68 73 74 76 69 75 82 83 87 90 97 96 99 95 96 95 92 90 94 89 88 87 87 84

GFSSE_prec_cthk_105.txt.gz
RH
37 39 41 44 46 45 46 47 50 52 52 56 49 45 46 36 34 35 34 30 27 29 33 33 38 47 35 25 19 31 35 40 25 18 16 20 23 22 29 37 40 36 42
41 41 40 43 44 43 45 44 44 50 49 48 46 48 44 44 35 32 31 29 29 34 38 36 50 41 39 24 18 26 30 24 20 17 15 15 17 19 22 26 30 27 34
43 47 49 48 46 45 45 46 46 46 46 45 47 45 44 42 36 31 29 28 28 48 59 39 42 38 31 23 17 21 22 21 18 15 16 20 14 14 15 15 17 19 22
43 45 52 54 52 47 50 53 53 48 47 45 46 50 49 46 48 34 30 28 30 47 63 47 41 31 29 24 18 18 18 17 17 16 22 21 19 13 13 14 15 16 17
44 49 55 57 56 53 52 53 57 53 50 43 43 47 48 48 48 39 35 34 31 46 60 50 32 26 24 26 22 17 16 16 16 19 22 22 22 14 14 15 16 17 17
47 50 53 57 59 54 55 60 60 58 52 46 44 45 48 50 53 48 45 48 43 52 64 52 33 26 25 27 26 18 17 17 17 23 23 21 23 16 16 17 18 18 18
45 51 51 50 52 58 59 63 66 62 57 53 52 52 56 52 51 50 55 57 52 57 62 52 40 29 27 26 28 25 19 18 20 24 25 24 22 16 17 18 19 19 18
42 45 48 48 49 49 59 57 60 63 62 61 60 59 60 60 55 55 56 62 62 59 55 54 49 30 29 28 29 29 24 19 20 25 26 28 23 17 17 18 19 19 19
44 44 49 51 50 52 53 62 63 60 62 60 60 61 62 63 59 59 63 62 66 71 68 60 59 46 34 29 31 32 30 22 22 29 27 26 21 20 20 20 21 21 20
39 47 46 51 55 60 61 59 62 70 63 60 57 60 61 61 62 55 57 62 67 70 78 73 67 58 42 36 33 33 33 30 22 28 26 29 24 19 20 20 21 21 20
29 41 48 50 53 55 60 64 66 67 70 70 68 61 61 61 56 52 52 57 59 65 72 79 74 68 56 40 39 38 35 32 31 27 25 24 21 20 20 20 21 20 20
19 26 34 44 49 53 57 62 63 67 70 73 75 77 72 67 64 66 63 59 61 61 63 71 73 73 68 50 44 43 40 35 39 39 28 25 20 19 20 21 21 20 20
15 16 24 31 37 44 52 57 57 60 63 65 72 79 79 81 79 77 73 69 70 67 65 65 68 70 70 58 54 51 44 43 47 43 37 28 22 20 22 21 22 21 21
10 11 16 25 32 36 42 47 54 59 58 61 67 70 72 71 74 83 86 81 74 68 68 70 74 73 71 68 58 59 56 51 50 54 47 32 26 24 22 24 27 22 22
11 10 11 15 25 34 37 40 45 49 57 58 56 57 67 73 77 73 77 80 84 78 79 83 85 81 78 77 74 66 62 60 56 54 52 45 35 27 26 24 28 25 23
15 13 12 12 16 25 35 41 43 48 49 57 56 53 56 60 66 71 69 75 72 81 84 79 78 83 82 85 82 78 71 62 64 60 55 53 47 40 31 29 28 36 46
18 16 15 14 13 19 27 38 46 50 53 53 57 57 55 56 59 60 70 66 73 69 68 71 84 83 82 87 89 87 81 72 63 62 62 59 53 49 46 39 32 30 35
21 20 19 17 16 16 23 34 45 50 51 51 48 51 56 61 62 61 60 60 56 68 63 60 58 65 78 83 82 88 87 82 73 68 63 70 68 59 53 53 47 36 33
30 25 23 22 20 18 22 33 46 50 51 54 52 50 51 54 61 62 58 57 58 64 63 59 55 60 59 64 70 79 80 75 82 81 78 75 70 63 63 58 54 50 43
34 32 29 25 24 21 21 31 46 54 56 51 52 51 50 49 49 54 56 55 58 63 67 57 55 53 54 49 50 62 74 74 78 85 78 76 75 81 71 62 60 56 57
41 40 41 33 28 25 21 31 42 54 56 57 57 53 52 50 49 49 49 53 51 48 53 60 60 56 52 49 50 53 64 74 71 72 74 85 72 81 71 67 66 63 58
51 48 43 48 43 33 26 34 44 54 62 64 60 56 56 51 45 45 43 41 46 47 44 44 48 53 54 55 62 62 61 58 64 64 62 63 61 65 65 62 69 67 64
66 61 58 54 55 50 44 49 50 53 64 66 67 56 53 50 47 42 39 40 40 47 46 42 45 52 61 65 67 68 68 64 61 58 61 67 67 63 64 60 68 72 73
80 79 70 66 63 57 56 59 70 63 79 74 71 62 55 51 49 46 42 40 40 43 47 47 50 59 62 72 81 74 73 73 69 76 81 77 77 73 74 62 64 72 75
85 87 87 87 77 69 73 75 81 91 93 84 78 69 57 57 49 44 47 49 50 53 54 58 63 68 70 78 79 80 78 81 81 82 80 78 83 81 84 78 78 76 82
87 86 82 92 95 97 96 93 87 88 91 87 77 66 65 59 51 57 61 61 65 66 63 71 75 78 79 75 76 77 82 81 88 87 87 89 87 91 93 88 87 88 88

GFSSE_prec_cthk_108.txt.gz
RH
40 40 42 45 45 42 42 42 47 51 51 52 47 48 46 42 34 31 29 28 28 29 31 32 39 39 32 15 27 38 44 42 20 15 18 22 22 25 37 40 40 49 47
41 40 40 42 43 43 42 42 43 46 48 49 49 46 45 47 38 32 28 25 27 34 35 37 50 40 40 20 23 33 33 25 17 16 15 15 17 22 27 33 32 33 39
40 40 43 47 45 45 44 47 47 44 46 46 47 49 49 46 45 35 28 25 26 41 58 49 43 41 30 23 17 22 23 21 18 16 18 16 14 15 16 16 17 20 25
41 43 44 47 50 53 51 48 53 51 49 46 46 47 52 52 45 41 33 29 27 49 66 61 48 36 30 25 19 18 19 19 17 21 23 22 15 13 13 14 15 17 17
43 45 44 49 53 54 56 55 56 58 56 51 48 44 46 50 49 44 39 35 32 45 58 60 43 31 25 25 24 17 17 17 17 21 25 25 20 15 14 15 16 17 17
44 47 51 53 54 55 53 54 56 59 58 57 48 45 44 43 50 50 44 43 39 42 54 61 48 30 27 24 26 23 16 16 18 23 24 25 22 18 16 17 18 18 18
43 46 49 53 55 55 52 55 60 62 64 62 56 53 50 48 50 50 49 53 53 51 58 64 55 32 28 27 25 26 23 17 19 21 24 23 24 18 16 17 18 18 18
37 44 46 48 50 53 52 57 59 62 61 61 60 58 57 57 57 55 52 54 56 58 62 60 54 46 31 28 26 27 28 24 19 22 24 24 25 21 18 18 17 18 18
30 40 44 46 44 48 49 47 52 58 62 62 58 58 58 59 60 61 59 57 61 63 67 68 62 59 43 36 33 28 29 29 25 22 23 22 22 20 19 19 20 19 19
24 31 44 48 48 49 48 55 54 54 55 60 67 66 62 56 57 59 54 55 56 63 66 70 70 68 62 45 37 34 34 31 28 31 25 24 23 21 18 19 20 20 20
18 21 31 44 47 50 54 57 59 60 59 59 62 66 68 65 62 54 50 51 51 56 62 67 72 73 70 62 49 41 37 36 33 31 31 24 23 21 18 18 19 19 20
11 13 17 24 39 44 49 53 57 61 61 62 60 66 68 70 70 69 64 59 56 55 56 60 65 68 72 69 64 51 47 41 38 37 38 31 26 21 18 18 19 18 19
8 8 11 13 18 29 38 44 47 56 63 64 65 66 62 65 69 75 75 71 69 68 66 65 64 66 67 67 66 58 53 48 44 44 46 40 31 26 22 19 19 19 19
9 9 8 9 12 16 24 33 40 47 52 54 61 62 62 61 62 68 69 72 79 77 72 65 65 67 70 72 70 64 60 54 49 49 53 52 46 36 26 25 23 23 21
12 11 11 10 9 12 16 23 33 40 47 50 52 57 56 59 67 61 74 69 70 83 79 82 81 83 83 82 80 78 70 69 63 57 57 58 54 49 40 33 30 31 27
16 15 13 13 13 11 13 19 26 37 44 46 50 51 55 57 56 55 53 66 69 79 81 81 82 83 84 83 83 86 89 81 77 72 68 61 61 57 51 46 43 37 38
22 19 17 17 16 15 13 14 22 31 44 47 49 50 50 53 55 50 47 50 54 59 67 76 74 79 84 92 85 80 84 88 86 80 76 71 69 62 62 54 53 48 44
28 26 25 22 20 19 17 14 16 23 41 48 53 54 59 56 56 52 50 51 55 56 53 52 58 61 66 73 71 81 84 87 94 89 85 74 66 62 62 62 64 56 51
31 29 27 27 26 23 20 19 17 20 32 48 54 57 60 63 56 50 53 56 55 55 55 53 50 54 56 59 68 62 72 83 85 89 88 85 74 63 63 66 72 68 58
33 32 31 32 32 30 26 22 19 21 32 43 58 65 63 64 58 56 54 53 53 51 50 52 53 51 52 52 57 60 56 59 62 66 73 74 78 73 68 65 71 74 73
37 36 35 35 35 40 37 29 25 22 28 41 62 72 70 73 69 66 55 55 54 50 48 44 43 42 43 42 53 64 59 55 51 47 50 62 71 74 78 65 58 75 79
45 45 44 41 40 45 48 42 33 31 30 34 50 65 73 72 70 71 62 54 50 46 42 40 38 37 39 44 44 52 63 66 59 56 54 56 65 71 72 68 64 58 58
52 53 54 57 57 55 49 57 56 45 47 52 53 59 82 80 74 77 66 59 49 46 41 39 41 39 37 41 46 55 63 68 65 60 59 57 57 61 65 66 63 62 68
54 61 65 71 75 65 54 61 69 70 71 79 93 89 94 88 77 74 65 53 49 47 43 44 45 44 52 49 53 59 69 70 73 73 71 65 65 64 65 74 81 78 73
67 70 71 71 77 85 81 81 77 82 87 92 96 91 93 88 84 82 63 55 50 46 44 48 49 51 54 62 63 68 78 78 82 88 83 76 75 71 71 73 76 76 77
79 82 78 72 80 87 89 93 95 96 92 91 85 89 85 82 76 72 72 62 58 51 57 56 57 57 61 63 69 77 82 85 85 85 81 82 86 81 90 86 78 77 84

GFSSE_prec_cthk_111.txt.gz
RH
41 42 42 46 44 42 41 40 43 47 49 51 44 44 45 45 38 31 27 26 28 30 29 33 36 33 22 22 36 42 50 25 17 19 23 24 21 32 36 39 40 47 47
45 41 40 43 42 42 43 42 44 45 45 48 47 43 43 46 45 36 28 25 27 32 34 37 49 40 28 22 27 38 33 20 17 16 15 17 20 26 34 35 33 38 38
44 41 42 46 44 43 44 44 44 47 48 46 46 50 48 45 45 42 33 27 27 35 48 53 51 44 27 23 18 22 21 19 16 17 18 16 16 17 17 18 18 19 24
43 40 45 48 48 48 49 52 50 47 49 49 47 48 49 50 49 46 35 31 28 51 62 61 59 42 29 24 21 17 17 17 18 20 19 16 17 15 15 14 15 16 16
40 41 43 48 52 55 58 53 54 57 53 54 53 47 46 42 46 51 43 36 32 40 51 63 61 41 32 25 24 22 15 15 18 20 20 20 18 14 14 15 16 17 18
40 43 46 48 51 55 58 59 56 58 60 57 54 52 47 43 41 44 42 41 38 38 47 57 54 39 30 27 25 25 23 16 16 18 19 21 18 17 15 15 16 17 17
39 45 47 49 52 55 55 55 55 56 63 64 60 58 55 52 49 48 48 49 47 43 47 58 59 50 34 29 26 24 25 24 17 18 19 19 19 18 15 15 15 16 17
27 41 47 46 49 52 55 53 54 59 63 62 62 60 59 58 58 56 53 53 54 53 52 55 59 56 41 34 30 27 26 26 27 21 20 20 19 20 17 16 16 16 16
23 27 39 45 47 49 50 51 50 57 58 59 59 60 62 61 60 59 57 55 56 58 58 60 61 60 59 46 40 34 31 30 28 28 26 21 20 20 17 17 18 18 18
22 24 27 38 45 46 47 49 50 49 49 58 64 61 60 64 66 63 59 54 53 55 57 60 63 63 62 61 51 45 40 34 33 33 31 28 24 22 20 17 18 18 19
12 15 18 23 34 44 48 51 52 53 56 56 61 60 58 61 63 64 65 61 54 49 51 56 59 64 65 66 62 56 49 46 41 37 37 35 31 24 20 17 18 18 18
8 8 10 12 16 23 35 43 46 53 59 59 57 57 59 64 66 65 66 66 67 62 59 55 55 59 64 64 63 62 61 51 50 46 44 40 37 32 25 20 18 18 18
8 8 7 7 9 12 16 27 37 41 44 50 56 60 62 63 64 64 63 64 71 70 70 67 65 64 64 67 66 65 64 53 51 51 49 48 47 43 35 26 22 19 18
11 11 10 9 9 9 10 14 22 31 38 41 47 53 61 68 72 63 62 64 64 69 72 72 70 67 65 66 68 68 70 62 57 55 52 53 51 50 49 43 32 26 23
15 14 13 12 11 11 10 10 12 18 30 37 41 45 49 52 55 55 58 59 68 69 69 70 72 79 80 81 79 79 79 77 73 69 64 61 62 59 55 54 46 39 35
20 19 18 17 15 14 13 11 10 13 19 32 40 41 47 47 48 51 52 53 66 70 69 71 75 76 79 84 86 86 86 86 83 85 83 74 70 70 65 62 59 52 48
24 22 20 20 18 17 16 15 13 11 13 21 36 43 47 50 50 49 55 55 58 53 56 61 73 69 78 83 84 84 94 91 89 88 85 86 82 75 73 69 64 59 55
25 23 22 22 22 22 21 19 18 16 13 15 24 44 48 53 58 63 53 54 54 53 52 52 53 57 54 55 66 70 69 73 80 90 91 91 96 87 81 73 63 55 51
28 27 25 25 24 23 24 24 22 21 18 17 20 34 48 57 64 71 65 63 61 54 54 53 54 52 49 52 56 54 56 61 64 73 78 89 93 89 87 83 73 63 58
29 30 29 29 29 26 25 27 27 25 22 21 22 29 46 58 70 74 76 68 70 68 58 56 53 51 49 48 48 47 48 46 48 55 63 69 74 78 80 76 73 76 70
33 31 32 34 34 32 29 31 32 32 30 24 25 31 41 61 72 80 82 79 78 73 70 65 56 52 49 48 47 40 37 37 41 46 51 59 65 62 65 66 65 67 72
38 36 36 38 39 40 39 40 42 43 41 40 33 37 49 70 73 85 87 88 88 84 79 73 57 46 44 41 41 39 36 33 31 32 39 50 57 63 60 56 55 64 69
39 39 43 47 48 49 51 49 46 46 48 57 52 61 60 67 79 98 97 95 92 87 82 69 60 50 43 39 41 45 48 41 40 40 41 43 56 60 63 65 62 60 60
48 53 59 59 54 57 62 62 52 52 68 68 58 69 83 81 85 88 90 89 85 83 74 65 62 55 49 40 40 41 46 52 57 51 49 50 58 64 66 67 66 67 64
55 59 65 66 63 60 68 72 72 73 77 75 92 94 98 94 95 95 92 86 88 83 74 71 65 56 48 45 47 47 50 57 57 63 55 59 69 68 75 80 78 74 76
60 63 69 70 69 67 72 70 76 85 87 94 96 96 94 97 98 98 98 95 88 85 81 75 69 60 55 52 58 56 63 67 65 67 67 68 74 75 79 82 83 85 83

GFSSE_prec_cthk_114.txt.gz
RH
45 46 43 49 51 45 43 42 46 49 55 54 46 44 43 44 42 35 29 27 30 30 30 31 28 22 22 28 36 44 32 18 17 21 25 21 25 37 37 37 40 42 44
45 48 41 49 51 50 43 44 46 46 48 54 50 44 44 44 45 40 33 28 30 32 35 42 41 35 22 27 32 38 29 16 15 14 15 16 23 31 38 37 41 42 40
43 45 42 47 47 50 48 47 47 49 51 48 49 52 51 48 46 45 36 30 29 33 44 56 56 48 25 21 25 23 18 15 14 14 14 14 15 17 19 20 22 22 26
40 40 46 47 48 46 50 51 51 50 49 50 50 50 49 50 49 48 42 37 32 43 58 55 58 49 35 24 22 23 15 14 14 14 14 13 13 13 13 13 14 14 15
39 39 41 45 58 51 51 53 57 55 54 53 53 54 53 48 45 46 41 41 37 40 49 57 61 48 39 29 24 23 23 15 15 15 15 15 13 12 12 13 14 15 16
39 42 44 46 46 52 54 55 55 54 58 59 57 54 52 52 45 46 42 37 38 38 44 50 58 47 36 33 28 25 23 23 18 15 15 16 16 15 13 13 14 15 16
34 42 45 49 53 52 54 55 57 58 57 57 59 60 57 57 56 54 55 51 47 45 44 47 57 58 43 38 33 28 25 24 24 20 17 16 17 17 15 14 13 14 14
23 34 41 46 52 54 56 57 56 56 56 60 62 61 57 58 59 59 58 57 55 55 54 54 59 58 56 42 40 37 32 28 27 26 21 18 19 19 18 15 15 15 16
23 23 30 39 44 46 50 52 55 56 57 61 63 64 65 64 62 62 63 61 57 57 57 58 60 60 60 56 44 44 43 38 33 31 28 26 22 19 17 16 16 17 17
18 22 24 26 36 41 45 48 50 51 51 51 55 56 59 63 64 62 63 66 62 57 58 61 59 61 62 61 59 48 45 44 42 39 35 32 29 27 21 18 16 16 17
10 10 13 17 20 28 37 41 45 48 52 52 51 51 54 57 59 62 64 63 63 60 57 57 60 61 61 63 66 62 52 47 47 46 45 41 38 34 29 23 18 17 17
9 8 8 8 10 12 16 26 36 40 43 47 52 56 58 58 57 60 65 67 64 64 60 59 62 65 65 64 66 66 64 58 51 49 50 48 45 44 38 31 25 21 18
10 10 9 9 8 8 10 12 17 29 38 41 45 48 49 51 56 61 66 66 65 67 67 66 62 64 66 69 70 70 69 69 64 52 50 51 48 49 49 44 39 29 23
11 11 11 10 10 9 9 8 10 13 23 33 38 42 45 48 54 59 65 69 67 66 68 69 70 70 69 68 69 70 70 72 73 65 56 54 55 52 53 51 48 45 38
14 14 15 14 13 11 10 10 10 9 11 18 31 35 38 42 47 53 58 61 65 64 62 64 70 71 73 71 71 74 79 78 79 78 71 66 65 63 60 59 57 55 50
20 18 17 16 15 14 13 13 12 11 11 10 15 28 35 40 42 45 49 51 52 53 56 63 70 68 80 83 88 82 82 85 86 87 85 83 81 79 74 70 69 67 62
24 22 19 18 17 17 16 15 14 13 13 13 12 14 29 39 42 51 50 49 51 49 51 57 65 63 66 74 88 90 91 91 90 94 92 91 92 88 87 83 77 75 71
26 24 23 23 23 22 21 19 19 18 17 16 15 14 16 30 48 50 58 56 56 56 55 56 57 54 53 52 54 62 69 75 79 80 85 88 93 95 92 92 90 87 78
27 26 27 26 25 25 24 23 22 23 23 21 18 18 16 21 38 57 58 64 71 74 74 69 58 54 53 53 51 48 49 51 57 64 64 69 72 79 86 91 90 90 88
29 29 29 27 26 25 25 24 24 24 27 28 27 22 22 24 32 56 65 71 79 78 83 85 83 80 67 57 51 46 43 42 43 44 45 46 47 51 64 71 80 85 86
33 32 31 28 27 27 28 28 27 28 30 32 33 29 28 30 34 42 64 82 84 92 90 88 84 80 75 70 62 49 42 40 38 37 36 35 36 40 46 52 59 64 71
35 33 33 32 35 39 42 39 38 38 39 42 42 44 41 38 40 47 52 66 83 98 93 92 88 86 81 77 73 67 53 39 32 31 30 29 27 28 31 38 50 57 60
36 36 39 43 47 50 47 47 48 45 45 42 41 45 56 51 49 52 77 78 75 88 98 98 93 89 83 80 80 77 61 47 36 31 27 29 34 36 35 36 42 51 57
41 43 47 51 54 53 49 55 59 59 58 60 65 63 62 64 70 73 77 97 96 95 95 98 93 92 87 82 77 75 70 61 52 41 34 33 36 40 45 43 41 50 59
48 49 54 55 56 60 56 57 63 64 70 77 84 83 95 89 86 84 80 82 93 95 97 94 96 94 89 84 77 72 67 60 56 59 46 42 42 45 48 49 50 51 59
53 55 57 59 61 63 66 64 62 62 69 76 83 86 91 95 95 95 90 81 84 87 88 90 91 89 88 81 76 77 71 71 67 68 63 52 57 57 54 52 52 58 66

GFSSE_prec_cthk_117.txt.gz
RH
48 48 45 49 53 52 45 46 47 49 51 58 52 45 45 44 43 39 32 30 30 29 30 31 27 20 25 33 33 31 26 15 16 19 21 18 30 34 36 36 39 40 41
44 47 44 47 50 53 52 48 48 51 49 52 52 48 46 47 47 44 38 33 34 33 34 42 45 32 32 30 33 27 19 14 14 14 14 15 26 35 39 35 40 40 39
43 47 47 46 48 48 51 51 49 51 52 52 51 50 53 53 50 49 43 34 33 36 40 60 62 52 36 26 31 29 18 14 13 13 13 13 15 20 25 25 27 24 22
38 40 44 46 48 48 48 49 50 50 50 51 50 50 51 51 50 47 44 41 38 40 47 58 57 55 44 34 29 27 23 14 13 14 14 13 12 12 13 13 13 13 14
37 40 43 46 51 56 51 47 51 56 57 55 53 53 53 55 53 53 51 37 37 38 50 63 63 60 46 39 33 29 24 21 15 13 14 15 13 12 12 12 13 14 15
37 40 41 44 56 58 56 51 51 54 57 58 57 58 56 54 55 52 52 47 40 37 42 51 59 62 44 39 37 33 29 25 22 16 14 15 15 15 14 13 14 14 15
31 37 41 42 48 54 57 55 55 56 57 58 60 59 61 57 58 59 58 59 54 49 46 48 55 61 56 42 41 38 34 29 27 25 19 16 15 16 16 14 14 14 14
21 27 33 38 42 49 49 56 58 57 57 58 58 59 59 62 62 62 63 61 60 60 57 53 57 63 66 56 42 41 41 39 34 30 28 24 19 17 18 16 15 15 16
19 22 24 33 39 41 45 46 50 54 58 57 59 60 64 63 64 65 66 65 65 63 61 61 60 63 67 64 58 46 43 42 42 41 36 31 28 24 19 18 16 16 16
17 17 19 23 26 35 38 43 46 48 49 51 53 53 55 58 58 60 64 66 65 65 63 61 63 64 68 68 65 60 50 47 45 43 41 41 38 33 29 24 19 17 17
12 11 10 10 13 16 22 30 37 41 44 46 48 49 49 50 51 51 58 62 63 67 66 61 59 61 65 72 70 66 62 56 51 48 45 43 45 44 42 35 27 22 18
9 9 9 8 8 8 10 12 17 29 36 40 43 46 49 50 52 54 57 58 59 63 65 62 59 58 62 64 68 71 70 67 59 54 53 49 46 46 47 48 40 32 25
10 10 10 9 9 8 7 7 9 11 18 30 36 41 42 45 48 50 52 55 59 64 65 65 63 62 64 66 64 67 70 74 73 70 64 57 51 49 48 49 49 46 41
12 12 12 12 12 11 10 9 8 8 9 12 22 32 36 40 44 45 47 51 55 60 62 65 68 67 67 68 67 71 72 72 74 74 74 67 60 57 55 53 55 52 50
14 15 15 14 13 12 12 12 12 11 10 9 10 16 28 31 35 41 45 48 52 57 62 70 67 68 65 71 67 69 71 71 72 72 76 77 68 65 63 61 60 65 61
18 18 17 16 16 15 14 14 13 13 13 13 12 10 12 24 29 33 37 43 50 51 54 61 63 62 63 67 73 76 76 87 88 90 87 86 83 81 81 78 73 73 74
21 20 19 18 18 18 17 17 17 17 17 17 16 15 13 13 24 28 35 41 44 48 49 52 57 56 59 67 65 72 71 82 90 92 93 95 95 93 92 92 90 88 84
23 22 22 23 23 22 22 21 21 20 19 20 21 22 20 17 15 25 31 41 47 57 56 52 52 54 62 76 75 65 59 60 67 78 82 82 83 84 89 88 93 94 93
29 29 29 29 28 26 23 22 22 22 22 21 22 23 24 21 19 19 28 34 53 57 67 70 66 70 63 72 71 62 56 49 47 45 53 62 69 71 71 71 76 82 89
34 32 31 30 28 26 24 25 26 27 26 27 28 28 27 27 24 24 26 35 38 60 68 78 82 85 88 87 77 69 57 54 50 44 42 41 45 47 52 56 57 58 65
34 33 31 28 28 29 31 34 35 34 32 34 37 36 37 39 36 31 33 33 41 64 72 84 87 89 91 93 93 89 80 72 57 47 42 40 40 43 44 42 42 43 46
35 34 32 31 32 34 39 42 39 39 41 42 41 40 40 42 45 46 41 44 44 51 61 81 86 88 98 96 94 89 80 71 65 62 59 51 41 38 35 30 27 28 27
39 34 34 36 38 41 46 45 45 46 48 45 46 53 56 54 53 55 55 56 58 59 59 73 89 98 91 98 96 94 87 80 75 68 67 62 56 41 32 28 26 27 30
43 40 40 42 46 49 49 48 50 49 53 53 54 63 69 76 76 74 70 64 63 74 82 75 74 88 89 94 96 97 96 91 85 70 71 68 61 51 41 40 37 34 35
45 44 46 49 51 52 52 49 53 54 55 53 58 65 74 77 83 84 80 83 80 75 86 99 94 88 93 92 95 93 94 94 89 79 68 63 60 64 58 55 51 47 44
48 50 50 51 52 53 49 53 57 58 58 55 56 59 63 72 74 76 83 82 84 78 70 76 76 85 79 81 81 87 87 86 76 71 68 61 57 56 57 61 60 55 55